Time,TemperatureF,DewpointF,PressureIn,WindDirection,WindDirectionDegrees,WindSpeedMPH,WindSpeedGustMPH,Humidity,HourlyPrecipIn,Conditions,Clouds,dailyrainin,SoftwareType,DateUTC
2013-03-06 00:00:00,49.5,44.2,29.94,WNW,292,3.0,0.0,82,0.00,,---,0.44,VWS V14.01,2013-03-06 08:00:00,
2013-03-06 00:01:00,49.6,44.7,29.94,WNW,295,1.0,0.0,83,0.00,,---,0.00,VWS V14.01,2013-03-06 08:01:00,
2013-03-06 00:02:00,49.7,44.8,29.94,WSW,256,1.0,0.0,83,0.00,,---,0.00,VWS V14.01,2013-03-06 08:02:00,
2013-03-06 00:03:00,49.8,44.2,29.94,West,279,4.0,0.0,81,0.00,,---,0.00,VWS V14.01,2013-03-06 08:03:00,
2013-03-06 00:04:00,49.9,44.3,29.94,WNW,286,2.0,0.0,81,0.00,,---,0.00,VWS V14.01,2013-03-06 08:04:00,
2013-03-06 00:05:00,50.0,44.4,29.94,NNW,342,3.0,0.0,81,0.00,,---,0.00,VWS V14.01,2013-03-06 08:05:00,
2013-03-06 00:06:00,50.0,44.7,29.94,NNW,338,4.0,0.0,82,0.00,,---,0.00,VWS V14.01,2013-03-06 08:06:00,
2013-03-06 00:07:00,50.1,44.5,29.94,SSW,212,2.0,0.0,81,0.00,,---,0.00,VWS V14.01,2013-03-06 08:07:00,
2013-03-06 00:08:00,50.1,43.8,29.94,South,172,2.0,0.0,79,0.00,,---,0.00,VWS V14.01,2013-03-06 08:08:00,
2013-03-06 00:09:00,50.2,43.6,29.94,ESE,117,0.0,0.0,78,0.00,,---,0.00,VWS V14.01,2013-03-06 08:09:00,
2013-03-06 00:10:00,50.2,44.0,29.94,SW,215,3.0,0.0,79,0.00,,---,0.00,VWS V14.01,2013-03-06 08:10:00,
2013-03-06 00:11:00,50.2,43.6,29.94,NW,319,5.0,0.0,78,0.00,,---,0.00,VWS V14.01,2013-03-06 08:11:00,
2013-03-06 00:12:00,50.1,43.8,29.94,North,9,0.0,0.0,79,0.00,,---,0.00,VWS V14.01,2013-03-06 08:12:00,
2013-03-06 00:13:00,50.1,43.5,29.94,SSW,201,1.0,0.0,78,0.00,,---,0.00,VWS V14.01,2013-03-06 08:13:00,
2013-03-06 00:14:00,50.1,43.8,29.94,WSW,242,1.0,0.0,79,0.00,,---,0.00,VWS V14.01,2013-03-06 08:14:00,
2013-03-06 00:15:00,50.1,44.2,29.95,ENE,63,3.0,0.0,80,0.00,,---,0.00,VWS V14.01,2013-03-06 08:15:00,
2013-03-06 00:16:00,50.1,43.8,29.95,South,189,1.0,0.0,79,0.00,,---,0.00,VWS V14.01,2013-03-06 08:16:00,
2013-03-06 00:17:00,50.1,43.8,29.94,NNW,333,4.0,0.0,79,0.00,,---,0.00,VWS V14.01,2013-03-06 08:17:00,
2013-03-06 00:18:00,50.1,43.8,29.94,SE,138,1.0,0.0,79,0.00,,---,0.00,VWS V14.01,2013-03-06 08:18:00,
2013-03-06 00:19:00,50.1,43.8,29.94,SSW,192,3.0,0.0,79,0.00,,---,0.00,VWS V14.01,2013-03-06 08:19:00,
2013-03-06 00:20:00,50.0,43.4,29.94,West,259,3.0,0.0,78,0.00,,---,0.00,VWS V14.01,2013-03-06 08:20:00,
2013-03-06 00:21:00,50.0,43.4,29.94,ENE,61,0.0,0.0,78,0.00,,---,0.00,VWS V14.01,2013-03-06 08:21:00,
2013-03-06 00:22:00,50.1,43.5,29.94,NW,315,2.0,0.0,78,0.00,,---,0.00,VWS V14.01,2013-03-06 08:22:00,
2013-03-06 00:23:00,50.1,43.5,29.94,SSW,194,0.0,0.0,78,0.00,,---,0.00,VWS V14.01,2013-03-06 08:23:00,
2013-03-06 00:24:00,50.1,43.5,29.94,NNW,334,2.0,0.0,78,0.00,,---,0.00,VWS V14.01,2013-03-06 08:24:00,
2013-03-06 00:25:00,50.1,43.5,29.94,WNW,292,1.0,0.0,78,0.00,,---,0.00,VWS V14.01,2013-03-06 08:25:00,
2013-03-06 00:26:00,50.2,44.0,29.94,WSW,254,2.0,0.0,79,0.00,,---,0.00,VWS V14.01,2013-03-06 08:26:00,
2013-03-06 00:27:00,50.3,44.0,29.94,West,269,0.0,0.0,79,0.00,,---,0.00,VWS V14.01,2013-03-06 08:27:00,
2013-03-06 00:28:00,50.3,44.0,29.94,SSW,192,0.0,0.0,79,0.00,,---,0.00,VWS V14.01,2013-03-06 08:28:00,
2013-03-06 00:29:00,50.5,44.2,29.94,SW,232,2.0,0.0,79,0.00,,---,0.00,VWS V14.01,2013-03-06 08:29:00,
2013-03-06 00:30:00,50.6,45.0,29.94,SSE,163,1.0,0.0,81,0.00,,---,0.00,VWS V14.01,2013-03-06 08:30:00,
2013-03-06 00:31:00,50.8,44.9,29.95,ESE,105,1.0,0.0,80,0.00,,---,0.00,VWS V14.01,2013-03-06 08:31:00,
2013-03-06 00:32:00,51.0,45.4,29.94,WNW,286,4.0,0.0,81,0.00,,---,0.00,VWS V14.01,2013-03-06 08:32:00,
2013-03-06 00:33:00,51.0,45.1,29.94,South,180,1.0,0.0,80,0.00,,---,0.00,VWS V14.01,2013-03-06 08:33:00,
2013-03-06 00:34:00,51.2,44.9,29.94,SSE,168,1.0,0.0,79,0.00,,---,0.00,VWS V14.01,2013-03-06 08:34:00,
2013-03-06 00:35:00,51.3,44.7,29.94,WSW,242,1.0,0.0,78,0.00,,---,0.00,VWS V14.01,2013-03-06 08:35:00,
2013-03-06 00:36:00,51.3,44.3,29.94,SE,143,1.0,0.0,77,0.00,,---,0.00,VWS V14.01,2013-03-06 08:36:00,
2013-03-06 00:37:00,51.4,44.1,29.94,NNW,336,4.0,0.0,76,0.00,,---,0.00,VWS V14.01,2013-03-06 08:37:00,
2013-03-06 00:38:00,51.4,44.4,29.94,NE,35,1.0,0.0,77,0.00,,---,0.00,VWS V14.01,2013-03-06 08:38:00,
2013-03-06 00:39:00,51.5,44.5,29.95,NNW,337,1.0,0.0,77,0.00,,---,0.00,VWS V14.01,2013-03-06 08:39:00,
2013-03-06 00:40:00,51.5,44.5,29.95,NW,304,2.0,0.0,77,0.00,,---,0.00,VWS V14.01,2013-03-06 08:40:00,
2013-03-06 00:41:00,51.6,44.6,29.95,SW,223,0.0,0.0,77,0.00,,---,0.00,VWS V14.01,2013-03-06 08:41:00,
2013-03-06 00:42:00,51.6,44.6,29.95,SSE,165,0.0,0.0,77,0.00,,---,0.00,VWS V14.01,2013-03-06 08:42:00,
2013-03-06 00:43:00,51.6,44.3,29.95,West,277,2.0,0.0,76,0.00,,---,0.00,VWS V14.01,2013-03-06 08:43:00,
2013-03-06 00:44:00,51.6,44.6,29.95,WSW,254,1.0,0.0,77,0.00,,---,0.00,VWS V14.01,2013-03-06 08:44:00,
2013-03-06 00:45:00,51.7,44.7,29.95,SW,235,2.0,0.0,77,0.00,,---,0.00,VWS V14.01,2013-03-06 08:45:00,
2013-03-06 00:46:00,51.7,44.7,29.95,SW,214,1.0,0.0,77,0.00,,---,0.00,VWS V14.01,2013-03-06 08:46:00,
2013-03-06 00:47:00,51.7,44.0,29.95,SSW,201,2.0,0.0,75,0.00,,---,0.00,VWS V14.01,2013-03-06 08:47:00,
2013-03-06 00:48:00,51.7,43.7,29.95,SW,231,0.0,0.0,74,0.00,,---,0.00,VWS V14.01,2013-03-06 08:48:00,
2013-03-06 00:49:00,51.7,44.0,29.95,WSW,254,1.0,0.0,75,0.00,,---,0.00,VWS V14.01,2013-03-06 08:49:00,
2013-03-06 00:50:00,51.7,44.4,29.95,East,88,2.0,0.0,76,0.00,,---,0.00,VWS V14.01,2013-03-06 08:50:00,
2013-03-06 00:51:00,51.7,44.4,29.95,West,279,2.0,0.0,76,0.00,,---,0.00,VWS V14.01,2013-03-06 08:51:00,
2013-03-06 00:52:00,51.7,44.4,29.95,SW,221,2.0,0.0,76,0.00,,---,0.00,VWS V14.01,2013-03-06 08:52:00,
2013-03-06 00:53:00,51.7,44.0,29.95,NW,306,3.0,0.0,75,0.00,,---,0.00,VWS V14.01,2013-03-06 08:53:00,
2013-03-06 00:54:00,51.7,44.0,29.95,WNW,300,6.0,0.0,75,0.00,,---,0.00,VWS V14.01,2013-03-06 08:54:00,
2013-03-06 00:55:00,51.6,43.6,29.95,SE,145,4.0,0.0,74,0.00,,---,0.00,VWS V14.01,2013-03-06 08:55:00,
2013-03-06 00:56:00,51.6,44.0,29.95,West,277,0.0,0.0,75,0.00,,---,0.00,VWS V14.01,2013-03-06 08:56:00,
2013-03-06 00:57:00,51.6,44.0,29.95,WNW,289,1.0,0.0,75,0.00,,---,0.00,VWS V14.01,2013-03-06 08:57:00,
2013-03-06 00:58:00,51.6,43.6,29.95,ESE,105,1.0,0.0,74,0.00,,---,0.00,VWS V14.01,2013-03-06 08:58:00,
2013-03-06 00:59:00,51.6,43.6,29.95,WNW,286,1.0,0.0,74,0.00,,---,0.00,VWS V14.01,2013-03-06 08:59:00,
2013-03-06 01:00:00,51.6,44.0,29.95,WSW,247,1.0,0.0,75,0.00,,---,0.00,VWS V14.01,2013-03-06 09:00:00,
2013-03-06 01:01:00,51.7,43.7,29.96,South,169,0.0,0.0,74,0.00,,---,0.00,VWS V14.01,2013-03-06 09:01:00,
2013-03-06 01:02:00,51.7,43.7,29.96,SW,224,2.0,0.0,74,0.00,,---,0.00,VWS V14.01,2013-03-06 09:02:00,
2013-03-06 01:03:00,51.8,43.4,29.96,SSW,213,1.0,0.0,73,0.00,,---,0.00,VWS V14.01,2013-03-06 09:03:00,
2013-03-06 01:04:00,51.8,43.4,29.96,ENE,57,0.0,0.0,73,0.00,,---,0.00,VWS V14.01,2013-03-06 09:04:00,
2013-03-06 01:05:00,51.9,44.6,29.96,WSW,240,0.0,0.0,76,0.00,,---,0.00,VWS V14.01,2013-03-06 09:05:00,
2013-03-06 01:06:00,52.0,44.0,29.96,NW,314,1.0,0.0,74,0.00,,---,0.00,VWS V14.01,2013-03-06 09:06:00,
2013-03-06 01:07:00,52.1,44.4,29.96,WNW,290,0.0,0.0,75,0.00,,---,0.00,VWS V14.01,2013-03-06 09:07:00,
2013-03-06 01:08:00,52.2,44.5,29.96,NW,323,1.0,0.0,75,0.00,,---,0.00,VWS V14.01,2013-03-06 09:08:00,
2013-03-06 01:09:00,52.3,45.0,29.96,East,84,0.0,0.0,76,0.00,,---,0.00,VWS V14.01,2013-03-06 09:09:00,
2013-03-06 01:10:00,52.4,44.7,29.96,NNW,334,1.0,0.0,75,0.00,,---,0.00,VWS V14.01,2013-03-06 09:10:00,
2013-03-06 01:11:00,52.5,44.8,29.96,East,90,0.0,0.0,75,0.00,,---,0.00,VWS V14.01,2013-03-06 09:11:00,
2013-03-06 01:12:00,52.6,44.2,29.96,ESE,111,1.0,0.0,73,0.00,,---,0.00,VWS V14.01,2013-03-06 09:12:00,
2013-03-06 01:13:00,52.6,44.2,29.96,WNW,292,1.0,0.0,73,0.00,,---,0.00,VWS V14.01,2013-03-06 09:13:00,
2013-03-06 01:14:00,52.7,44.3,29.96,SE,142,2.0,0.0,73,0.00,,---,0.00,VWS V14.01,2013-03-06 09:14:00,
2013-03-06 01:15:00,52.8,44.4,29.96,NW,309,4.0,0.0,73,0.00,,---,0.00,VWS V14.01,2013-03-06 09:15:00,
2013-03-06 01:16:00,52.8,44.0,29.96,ESE,118,2.0,0.0,72,0.00,,---,0.00,VWS V14.01,2013-03-06 09:16:00,
2013-03-06 01:17:00,52.9,44.1,29.96,NW,324,1.0,0.0,72,0.00,,---,0.00,VWS V14.01,2013-03-06 09:17:00,
2013-03-06 01:18:00,53.0,44.6,29.96,NNW,338,0.0,0.0,73,0.00,,---,0.00,VWS V14.01,2013-03-06 09:18:00,
2013-03-06 01:19:00,53.0,44.2,29.96,West,281,2.0,0.0,72,0.00,,---,0.00,VWS V14.01,2013-03-06 09:19:00,
2013-03-06 01:20:00,53.1,44.3,29.96,WSW,240,1.0,0.0,72,0.00,,---,0.00,VWS V14.01,2013-03-06 09:20:00,
2013-03-06 01:21:00,53.2,44.4,29.96,WNW,302,0.0,0.0,72,0.00,,---,0.00,VWS V14.01,2013-03-06 09:21:00,
2013-03-06 01:22:00,53.2,44.4,29.96,WNW,303,0.0,0.0,72,0.00,,---,0.00,VWS V14.01,2013-03-06 09:22:00,
2013-03-06 01:23:00,53.3,44.9,29.96,NW,323,7.0,0.0,73,0.00,,---,0.00,VWS V14.01,2013-03-06 09:23:00,
2013-03-06 01:24:00,53.3,44.5,29.96,South,170,2.0,0.0,72,0.00,,---,0.00,VWS V14.01,2013-03-06 09:24:00,
2013-03-06 01:25:00,53.3,44.2,29.96,WSW,254,2.0,0.0,71,0.00,,---,0.00,VWS V14.01,2013-03-06 09:25:00,
2013-03-06 01:26:00,53.2,44.0,29.96,SSE,159,0.0,0.0,71,0.00,,---,0.00,VWS V14.01,2013-03-06 09:26:00,
2013-03-06 01:27:00,53.2,44.0,29.96,SE,140,0.0,0.0,71,0.00,,---,0.00,VWS V14.01,2013-03-06 09:27:00,
2013-03-06 01:28:00,53.1,43.6,29.96,SSE,167,2.0,0.0,70,0.00,,---,0.00,VWS V14.01,2013-03-06 09:28:00,
2013-03-06 01:29:00,53.0,43.5,29.96,South,182,2.0,0.0,70,0.00,,---,0.00,VWS V14.01,2013-03-06 09:29:00,
2013-03-06 01:30:00,52.9,43.4,29.96,SSW,194,2.0,0.0,70,0.00,,---,0.00,VWS V14.01,2013-03-06 09:30:00,
2013-03-06 01:31:00,52.8,44.0,29.96,WNW,297,8.0,0.0,72,0.01,,---,0.01,VWS V14.01,2013-03-06 09:31:00,
2013-03-06 01:32:00,52.7,43.9,29.96,West,273,0.0,0.0,72,0.01,,---,0.01,VWS V14.01,2013-03-06 09:32:00,
2013-03-06 01:33:00,52.6,44.9,29.96,WSW,256,3.0,0.0,75,0.01,,---,0.01,VWS V14.01,2013-03-06 09:33:00,
2013-03-06 01:34:00,52.5,44.8,29.96,ENE,57,0.0,0.0,75,0.01,,---,0.01,VWS V14.01,2013-03-06 09:34:00,
2013-03-06 01:35:00,52.4,44.4,29.96,SW,231,2.0,0.0,74,0.01,,---,0.01,VWS V14.01,2013-03-06 09:35:00,
2013-03-06 01:36:00,52.4,45.4,29.96,NNW,331,6.0,0.0,77,0.01,,---,0.01,VWS V14.01,2013-03-06 09:36:00,
2013-03-06 01:37:00,52.4,45.1,29.96,WSW,242,2.0,0.0,76,0.01,,---,0.01,VWS V14.01,2013-03-06 09:37:00,
2013-03-06 01:38:00,52.3,43.9,29.96,South,177,1.0,0.0,73,0.01,,---,0.01,VWS V14.01,2013-03-06 09:38:00,
2013-03-06 01:39:00,52.2,43.5,29.96,SSW,205,1.0,0.0,72,0.01,,---,0.01,VWS V14.01,2013-03-06 09:39:00,
2013-03-06 01:40:00,52.2,43.5,29.96,SSW,209,1.0,0.0,72,0.01,,---,0.01,VWS V14.01,2013-03-06 09:40:00,
2013-03-06 01:41:00,52.3,45.0,29.96,West,259,5.0,0.0,76,0.01,,---,0.01,VWS V14.01,2013-03-06 09:41:00,
2013-03-06 01:42:00,52.3,44.6,29.96,SW,227,3.0,0.0,75,0.01,,---,0.01,VWS V14.01,2013-03-06 09:42:00,
2013-03-06 01:43:00,52.4,44.0,29.96,NNW,327,0.0,0.0,73,0.01,,---,0.01,VWS V14.01,2013-03-06 09:43:00,
2013-03-06 01:44:00,52.4,44.0,29.96,WNW,303,2.0,0.0,73,0.01,,---,0.01,VWS V14.01,2013-03-06 09:44:00,
2013-03-06 01:45:00,52.5,43.8,29.96,WNW,300,2.0,0.0,72,0.01,,---,0.01,VWS V14.01,2013-03-06 09:45:00,
2013-03-06 01:46:00,52.6,43.5,29.96,WSW,248,2.0,0.0,71,0.01,,---,0.01,VWS V14.01,2013-03-06 09:46:00,
2013-03-06 01:47:00,52.7,43.9,29.96,WSW,258,1.0,0.0,72,0.01,,---,0.01,VWS V14.01,2013-03-06 09:47:00,
2013-03-06 01:48:00,52.7,43.9,29.96,WNW,299,0.0,0.0,72,0.01,,---,0.01,VWS V14.01,2013-03-06 09:48:00,
2013-03-06 01:49:00,52.8,44.0,29.96,NW,326,2.0,0.0,72,0.01,,---,0.01,VWS V14.01,2013-03-06 09:49:00,
2013-03-06 01:50:00,52.8,43.7,29.96,WNW,292,3.0,0.0,71,0.01,,---,0.01,VWS V14.01,2013-03-06 09:50:00,
2013-03-06 01:51:00,52.9,43.4,29.96,West,281,2.0,0.0,70,0.01,,---,0.01,VWS V14.01,2013-03-06 09:51:00,
2013-03-06 01:52:00,52.9,43.4,29.96,WSW,254,1.0,0.0,70,0.01,,---,0.01,VWS V14.01,2013-03-06 09:52:00,
2013-03-06 01:53:00,53.0,43.1,29.96,NNW,343,3.0,0.0,69,0.01,,---,0.01,VWS V14.01,2013-03-06 09:53:00,
2013-03-06 01:54:00,53.0,43.5,29.96,NNE,23,1.0,0.0,70,0.01,,---,0.01,VWS V14.01,2013-03-06 09:54:00,
2013-03-06 01:55:00,53.0,43.1,29.96,NW,325,1.0,0.0,69,0.01,,---,0.01,VWS V14.01,2013-03-06 09:55:00,
2013-03-06 01:56:00,53.0,43.1,29.96,WNW,286,5.0,0.0,69,0.01,,---,0.01,VWS V14.01,2013-03-06 09:56:00,
2013-03-06 01:57:00,53.0,42.7,29.96,NW,312,2.0,0.0,68,0.01,,---,0.01,VWS V14.01,2013-03-06 09:57:00,
2013-03-06 01:58:00,53.0,42.7,29.96,NW,317,4.0,0.0,68,0.01,,---,0.01,VWS V14.01,2013-03-06 09:58:00,
2013-03-06 01:59:00,53.0,43.1,29.96,ESE,119,0.0,0.0,69,0.01,,---,0.01,VWS V14.01,2013-03-06 09:59:00,
2013-03-06 02:00:00,53.1,42.8,29.96,WNW,295,8.0,0.0,68,0.01,,---,0.01,VWS V14.01,2013-03-06 10:00:00,
2013-03-06 02:01:00,53.1,43.2,29.96,NW,314,1.0,0.0,69,0.01,,---,0.01,VWS V14.01,2013-03-06 10:01:00,
2013-03-06 02:02:00,53.2,42.9,29.96,WSW,245,3.0,0.0,68,0.01,,---,0.01,VWS V14.01,2013-03-06 10:02:00,
2013-03-06 02:03:00,53.3,42.6,29.96,South,183,3.0,0.0,67,0.01,,---,0.01,VWS V14.01,2013-03-06 10:03:00,
2013-03-06 02:04:00,53.3,42.6,29.96,NNW,340,3.0,0.0,67,0.01,,---,0.01,VWS V14.01,2013-03-06 10:04:00,
2013-03-06 02:05:00,53.3,43.0,29.96,WNW,282,2.0,0.0,68,0.01,,---,0.01,VWS V14.01,2013-03-06 10:05:00,
2013-03-06 02:06:00,53.4,43.1,29.96,NW,306,2.0,0.0,68,0.01,,---,0.01,VWS V14.01,2013-03-06 10:06:00,
2013-03-06 02:07:00,53.5,42.8,29.96,West,281,8.0,0.0,67,0.01,,---,0.01,VWS V14.01,2013-03-06 10:07:00,
2013-03-06 02:08:00,53.5,42.8,29.96,WNW,295,0.0,0.0,67,0.01,,---,0.01,VWS V14.01,2013-03-06 10:08:00,
2013-03-06 02:09:00,53.5,42.8,29.96,West,277,2.0,0.0,67,0.01,,---,0.01,VWS V14.01,2013-03-06 10:09:00,
2013-03-06 02:10:00,53.6,42.5,29.96,WNW,294,1.0,0.0,66,0.01,,---,0.01,VWS V14.01,2013-03-06 10:10:00,
2013-03-06 02:11:00,53.6,43.3,29.96,NW,317,0.0,0.0,68,0.01,,---,0.01,VWS V14.01,2013-03-06 10:11:00,
2013-03-06 02:12:00,53.7,43.8,29.96,WNW,290,1.0,0.0,69,0.01,,---,0.01,VWS V14.01,2013-03-06 10:12:00,
2013-03-06 02:13:00,53.8,44.6,29.96,WSW,252,0.0,0.0,71,0.01,,---,0.01,VWS V14.01,2013-03-06 10:13:00,
2013-03-06 02:14:00,53.8,43.1,29.96,South,177,2.0,0.0,67,0.01,,---,0.01,VWS V14.01,2013-03-06 10:14:00,
2013-03-06 02:15:00,53.9,43.2,29.96,South,178,1.0,0.0,67,0.01,,---,0.01,VWS V14.01,2013-03-06 10:15:00,
2013-03-06 02:16:00,53.9,43.2,29.96,SSE,161,1.0,0.0,67,0.01,,---,0.01,VWS V14.01,2013-03-06 10:16:00,
2013-03-06 02:17:00,54.0,42.9,29.96,West,270,4.0,0.0,66,0.01,,---,0.01,VWS V14.01,2013-03-06 10:17:00,
2013-03-06 02:18:00,54.0,42.9,29.96,West,279,0.0,0.0,66,0.01,,---,0.01,VWS V14.01,2013-03-06 10:18:00,
2013-03-06 02:19:00,54.0,42.9,29.96,SE,140,0.0,0.0,66,0.01,,---,0.01,VWS V14.01,2013-03-06 10:19:00,
2013-03-06 02:20:00,54.0,42.1,29.96,NE,51,2.0,0.0,64,0.01,,---,0.01,VWS V14.01,2013-03-06 10:20:00,
2013-03-06 02:21:00,54.0,42.5,29.96,SSE,155,0.0,0.0,65,0.01,,---,0.01,VWS V14.01,2013-03-06 10:21:00,
2013-03-06 02:22:00,54.0,42.5,29.96,SSE,155,0.0,0.0,65,0.01,,---,0.01,VWS V14.01,2013-03-06 10:22:00,
2013-03-06 02:23:00,53.9,42.8,29.96,WNW,296,5.0,0.0,66,0.01,,---,0.01,VWS V14.01,2013-03-06 10:23:00,
2013-03-06 02:24:00,54.0,42.9,29.95,West,277,0.0,0.0,66,0.01,,---,0.01,VWS V14.01,2013-03-06 10:24:00,
2013-03-06 02:25:00,54.0,42.9,29.95,ESE,105,0.0,0.0,66,0.01,,---,0.01,VWS V14.01,2013-03-06 10:25:00,
2013-03-06 02:26:00,54.1,42.6,29.95,West,269,3.0,0.0,65,0.01,,---,0.01,VWS V14.01,2013-03-06 10:26:00,
2013-03-06 02:27:00,54.1,43.0,29.95,NNW,334,0.0,0.0,66,0.01,,---,0.01,VWS V14.01,2013-03-06 10:27:00,
2013-03-06 02:28:00,54.2,43.1,29.95,West,277,1.0,0.0,66,0.01,,---,0.01,VWS V14.01,2013-03-06 10:28:00,
2013-03-06 02:29:00,54.4,44.8,29.95,ESE,121,0.0,0.0,70,0.01,,---,0.01,VWS V14.01,2013-03-06 10:29:00,
2013-03-06 02:30:00,54.5,44.5,29.95,SW,221,1.0,0.0,69,0.01,,---,0.01,VWS V14.01,2013-03-06 10:30:00,
2013-03-06 02:31:00,54.6,44.3,29.95,SE,129,0.0,0.0,68,0.01,,---,0.01,VWS V14.01,2013-03-06 10:31:00,
2013-03-06 02:32:00,54.7,44.7,29.95,SE,134,0.0,0.0,69,0.01,,---,0.01,VWS V14.01,2013-03-06 10:32:00,
2013-03-06 02:33:00,54.8,44.1,29.95,SE,125,0.0,0.0,67,0.01,,---,0.01,VWS V14.01,2013-03-06 10:33:00,
2013-03-06 02:34:00,54.9,43.4,29.95,SW,221,3.0,0.0,65,0.01,,---,0.01,VWS V14.01,2013-03-06 10:34:00,
2013-03-06 02:35:00,54.9,43.4,29.95,SSW,200,0.0,0.0,65,0.01,,---,0.01,VWS V14.01,2013-03-06 10:35:00,
2013-03-06 02:36:00,54.9,43.4,29.96,North,5,2.0,0.0,65,0.01,,---,0.01,VWS V14.01,2013-03-06 10:36:00,
2013-03-06 02:37:00,55.0,43.9,29.95,NNW,342,0.0,0.0,66,0.01,,---,0.01,VWS V14.01,2013-03-06 10:37:00,
2013-03-06 02:38:00,55.0,44.3,29.95,South,173,0.0,0.0,67,0.01,,---,0.01,VWS V14.01,2013-03-06 10:38:00,
2013-03-06 02:39:00,55.0,44.3,29.96,SW,234,2.0,0.0,67,0.01,,---,0.01,VWS V14.01,2013-03-06 10:39:00,
2013-03-06 02:40:00,55.0,43.1,29.95,NW,325,0.0,0.0,64,0.01,,---,0.01,VWS V14.01,2013-03-06 10:40:00,
2013-03-06 02:41:00,55.0,43.1,29.95,South,191,1.0,0.0,64,0.01,,---,0.01,VWS V14.01,2013-03-06 10:41:00,
2013-03-06 02:42:00,55.0,43.5,29.96,SSE,157,4.0,0.0,65,0.01,,---,0.01,VWS V14.01,2013-03-06 10:42:00,
2013-03-06 02:43:00,55.0,42.7,29.96,SSW,202,2.0,0.0,63,0.01,,---,0.01,VWS V14.01,2013-03-06 10:43:00,
2013-03-06 02:44:00,54.9,42.1,29.95,North,350,2.0,0.0,62,0.01,,---,0.01,VWS V14.01,2013-03-06 10:44:00,
2013-03-06 02:45:00,55.0,41.8,29.96,SW,215,2.0,0.0,61,0.01,,---,0.01,VWS V14.01,2013-03-06 10:45:00,
2013-03-06 02:46:00,55.0,43.1,29.96,SSW,209,0.0,0.0,64,0.01,,---,0.01,VWS V14.01,2013-03-06 10:46:00,
2013-03-06 02:47:00,55.0,43.5,29.96,NNW,337,2.0,0.0,65,0.01,,---,0.01,VWS V14.01,2013-03-06 10:47:00,
2013-03-06 02:48:00,55.2,43.2,29.95,SSW,198,1.0,0.0,64,0.01,,---,0.01,VWS V14.01,2013-03-06 10:48:00,
2013-03-06 02:49:00,55.3,42.5,29.95,North,351,1.0,0.0,62,0.01,,---,0.01,VWS V14.01,2013-03-06 10:49:00,
2013-03-06 02:50:00,55.4,42.2,29.96,WSW,256,4.0,0.0,61,0.01,,---,0.01,VWS V14.01,2013-03-06 10:50:00,
2013-03-06 02:51:00,55.5,42.7,29.96,South,180,3.0,0.0,62,0.01,,---,0.01,VWS V14.01,2013-03-06 10:51:00,
2013-03-06 02:52:00,55.5,42.3,29.95,WSW,253,4.0,0.0,61,0.01,,---,0.01,VWS V14.01,2013-03-06 10:52:00,
2013-03-06 02:53:00,55.6,42.0,29.95,West,264,1.0,0.0,60,0.01,,---,0.01,VWS V14.01,2013-03-06 10:53:00,
2013-03-06 02:54:00,55.6,42.0,29.95,South,172,1.0,0.0,60,0.01,,---,0.01,VWS V14.01,2013-03-06 10:54:00,
2013-03-06 02:55:00,55.6,42.0,29.95,SSW,195,3.0,0.0,60,0.01,,---,0.01,VWS V14.01,2013-03-06 10:55:00,
2013-03-06 02:56:00,55.6,41.5,29.95,ESE,103,0.0,0.0,59,0.01,,---,0.01,VWS V14.01,2013-03-06 10:56:00,
2013-03-06 02:57:00,55.6,42.0,29.95,SSE,167,2.0,0.0,60,0.01,,---,0.01,VWS V14.01,2013-03-06 10:57:00,
2013-03-06 02:58:00,55.5,41.9,29.95,West,277,2.0,0.0,60,0.01,,---,0.01,VWS V14.01,2013-03-06 10:58:00,
2013-03-06 02:59:00,55.5,41.9,29.96,SSE,159,5.0,0.0,60,0.01,,---,0.01,VWS V14.01,2013-03-06 10:59:00,
2013-03-06 03:00:00,55.4,40.9,29.95,South,182,1.0,0.0,58,0.01,,---,0.01,VWS V14.01,2013-03-06 11:00:00,
2013-03-06 03:01:00,55.3,41.2,29.96,WSW,248,1.0,0.0,59,0.00,,---,0.01,VWS V14.01,2013-03-06 11:01:00,
2013-03-06 03:02:00,55.3,41.2,29.95,NW,325,1.0,0.0,59,0.00,,---,0.01,VWS V14.01,2013-03-06 11:02:00,
2013-03-06 03:03:00,55.3,41.7,29.95,WSW,258,2.0,0.0,60,0.00,,---,0.01,VWS V14.01,2013-03-06 11:03:00,
2013-03-06 03:04:00,55.4,42.2,29.95,South,169,0.0,0.0,61,0.00,,---,0.01,VWS V14.01,2013-03-06 11:04:00,
2013-03-06 03:05:00,55.4,41.3,29.95,West,263,5.0,0.0,59,0.00,,---,0.01,VWS V14.01,2013-03-06 11:05:00,
2013-03-06 03:06:00,55.5,42.3,29.95,NNW,344,4.0,0.0,61,0.00,,---,0.01,VWS V14.01,2013-03-06 11:06:00,
2013-03-06 03:07:00,55.5,41.9,29.95,NW,304,1.0,0.0,60,0.00,,---,0.01,VWS V14.01,2013-03-06 11:07:00,
2013-03-06 03:08:00,55.5,41.9,29.95,South,190,0.0,0.0,60,0.00,,---,0.01,VWS V14.01,2013-03-06 11:08:00,
2013-03-06 03:09:00,55.5,41.9,29.95,NNW,343,2.0,0.0,60,0.00,,---,0.01,VWS V14.01,2013-03-06 11:09:00,
2013-03-06 03:10:00,55.6,42.4,29.95,NE,35,2.0,0.0,61,0.00,,---,0.01,VWS V14.01,2013-03-06 11:10:00,
2013-03-06 03:11:00,55.6,41.5,29.95,NW,312,3.0,0.0,59,0.00,,---,0.01,VWS V14.01,2013-03-06 11:11:00,
2013-03-06 03:12:00,55.6,42.0,29.95,ENE,57,2.0,0.0,60,0.00,,---,0.01,VWS V14.01,2013-03-06 11:12:00,
2013-03-06 03:13:00,55.6,42.4,29.95,NNW,341,0.0,0.0,61,0.00,,---,0.01,VWS V14.01,2013-03-06 11:13:00,
2013-03-06 03:14:00,55.6,42.8,29.94,West,277,3.0,0.0,62,0.00,,---,0.01,VWS V14.01,2013-03-06 11:14:00,
2013-03-06 03:15:00,55.5,42.7,29.94,NNW,329,1.0,0.0,62,0.00,,---,0.01,VWS V14.01,2013-03-06 11:15:00,
2013-03-06 03:16:00,55.5,43.1,29.95,NNE,30,3.0,0.0,63,0.00,,---,0.01,VWS V14.01,2013-03-06 11:16:00,
2013-03-06 03:17:00,55.5,43.1,29.95,NNW,342,2.0,0.0,63,0.00,,---,0.01,VWS V14.01,2013-03-06 11:17:00,
2013-03-06 03:18:00,55.4,43.0,29.95,West,267,2.0,0.0,63,0.00,,---,0.01,VWS V14.01,2013-03-06 11:18:00,
2013-03-06 03:19:00,55.3,43.3,29.95,NW,319,4.0,0.0,64,0.00,,---,0.01,VWS V14.01,2013-03-06 11:19:00,
2013-03-06 03:20:00,55.3,42.9,29.95,NW,323,0.0,0.0,63,0.00,,---,0.01,VWS V14.01,2013-03-06 11:20:00,
2013-03-06 03:21:00,55.2,43.2,29.95,NW,321,2.0,0.0,64,0.00,,---,0.01,VWS V14.01,2013-03-06 11:21:00,
2013-03-06 03:22:00,55.2,43.2,29.95,WNW,286,2.0,0.0,64,0.00,,---,0.01,VWS V14.01,2013-03-06 11:22:00,
2013-03-06 03:23:00,55.2,43.2,29.95,West,281,0.0,0.0,64,0.00,,---,0.01,VWS V14.01,2013-03-06 11:23:00,
2013-03-06 03:24:00,55.2,42.8,29.95,WSW,253,1.0,0.0,63,0.00,,---,0.01,VWS V14.01,2013-03-06 11:24:00,
2013-03-06 03:25:00,55.1,42.8,29.95,NW,325,0.0,0.0,63,0.00,,---,0.01,VWS V14.01,2013-03-06 11:25:00,
2013-03-06 03:26:00,55.1,43.2,29.95,NW,319,2.0,0.0,64,0.00,,---,0.01,VWS V14.01,2013-03-06 11:26:00,
2013-03-06 03:27:00,55.1,44.0,29.95,NNW,332,1.0,0.0,66,0.00,,---,0.01,VWS V14.01,2013-03-06 11:27:00,
2013-03-06 03:28:00,55.1,44.0,29.95,SSE,151,1.0,0.0,66,0.00,,---,0.01,VWS V14.01,2013-03-06 11:28:00,
2013-03-06 03:29:00,55.1,43.6,29.95,NE,34,2.0,0.0,65,0.00,,---,0.01,VWS V14.01,2013-03-06 11:29:00,
2013-03-06 03:30:00,55.2,43.2,29.95,South,173,0.0,0.0,64,0.00,,---,0.01,VWS V14.01,2013-03-06 11:30:00,
2013-03-06 03:31:00,55.2,42.8,29.95,SE,128,0.0,0.0,63,0.00,,---,0.01,VWS V14.01,2013-03-06 11:31:00,
2013-03-06 03:32:00,55.2,42.8,29.95,WSW,243,0.0,0.0,63,0.00,,---,0.01,VWS V14.01,2013-03-06 11:32:00,
2013-03-06 03:33:00,55.2,42.4,29.95,West,276,0.0,0.0,62,0.00,,---,0.01,VWS V14.01,2013-03-06 11:33:00,
2013-03-06 03:34:00,55.2,42.4,29.95,WSW,246,1.0,0.0,62,0.00,,---,0.01,VWS V14.01,2013-03-06 11:34:00,
2013-03-06 03:35:00,55.3,42.9,29.95,NW,309,2.0,0.0,63,0.00,,---,0.01,VWS V14.01,2013-03-06 11:35:00,
2013-03-06 03:36:00,55.2,42.4,29.95,WNW,282,4.0,0.0,62,0.00,,---,0.01,VWS V14.01,2013-03-06 11:36:00,
2013-03-06 03:37:00,55.3,41.7,29.95,WSW,240,0.0,0.0,60,0.00,,---,0.01,VWS V14.01,2013-03-06 11:37:00,
2013-03-06 03:38:00,55.3,41.7,29.95,NW,312,2.0,0.0,60,0.00,,---,0.01,VWS V14.01,2013-03-06 11:38:00,
2013-03-06 03:39:00,55.4,41.8,29.95,NW,304,1.0,0.0,60,0.00,,---,0.01,VWS V14.01,2013-03-06 11:39:00,
2013-03-06 03:40:00,55.5,42.7,29.95,NW,306,0.0,0.0,62,0.00,,---,0.01,VWS V14.01,2013-03-06 11:40:00,
2013-03-06 03:41:00,55.6,42.8,29.95,NNW,327,0.0,0.0,62,0.00,,---,0.01,VWS V14.01,2013-03-06 11:41:00,
2013-03-06 03:42:00,55.8,43.0,29.95,NW,323,0.0,0.0,62,0.00,,---,0.01,VWS V14.01,2013-03-06 11:42:00,
2013-03-06 03:43:00,55.9,43.5,29.95,SW,235,0.0,0.0,63,0.00,,---,0.01,VWS V14.01,2013-03-06 11:43:00,
2013-03-06 03:44:00,55.9,42.2,29.95,WSW,251,4.0,0.0,60,0.00,,---,0.01,VWS V14.01,2013-03-06 11:44:00,
2013-03-06 03:45:00,56.0,42.3,29.95,NNW,336,1.0,0.0,60,0.00,,---,0.01,VWS V14.01,2013-03-06 11:45:00,
2013-03-06 03:46:00,56.1,42.4,29.95,North,360,3.0,0.0,60,0.00,,---,0.01,VWS V14.01,2013-03-06 11:46:00,
2013-03-06 03:47:00,56.2,42.1,29.95,SSW,210,5.0,0.0,59,0.00,,---,0.01,VWS V14.01,2013-03-06 11:47:00,
2013-03-06 03:48:00,56.2,41.6,29.95,West,269,3.0,0.0,58,0.00,,---,0.01,VWS V14.01,2013-03-06 11:48:00,
2013-03-06 03:49:00,56.3,41.7,29.95,WNW,287,2.0,0.0,58,0.00,,---,0.01,VWS V14.01,2013-03-06 11:49:00,
2013-03-06 03:50:00,56.3,41.7,29.95,SSE,154,5.0,0.0,58,0.00,,---,0.01,VWS V14.01,2013-03-06 11:50:00,
2013-03-06 03:51:00,56.4,41.8,29.95,South,181,4.0,0.0,58,0.00,,---,0.01,VWS V14.01,2013-03-06 11:51:00,
2013-03-06 03:52:00,56.4,42.3,29.95,WNW,298,1.0,0.0,59,0.00,,---,0.01,VWS V14.01,2013-03-06 11:52:00,
2013-03-06 03:53:00,56.4,42.3,29.94,NE,55,0.0,0.0,59,0.00,,---,0.01,VWS V14.01,2013-03-06 11:53:00,
2013-03-06 03:54:00,56.4,42.7,29.94,NNW,341,1.0,0.0,60,0.00,,---,0.01,VWS V14.01,2013-03-06 11:54:00,
2013-03-06 03:55:00,56.3,42.2,29.95,WSW,249,6.0,0.0,59,0.00,,---,0.01,VWS V14.01,2013-03-06 11:55:00,
2013-03-06 03:56:00,56.3,43.0,29.94,SSW,194,2.0,0.0,61,0.00,,---,0.01,VWS V14.01,2013-03-06 11:56:00,
2013-03-06 03:57:00,56.1,41.1,29.94,South,175,1.0,0.0,57,0.00,,---,0.01,VWS V14.01,2013-03-06 11:57:00,
2013-03-06 03:58:00,55.9,40.9,29.94,WNW,292,2.0,0.0,57,0.00,,---,0.01,VWS V14.01,2013-03-06 11:58:00,
2013-03-06 03:59:00,55.8,41.7,29.94,West,266,1.0,0.0,59,0.00,,---,0.01,VWS V14.01,2013-03-06 11:59:00,
2013-03-06 04:00:00,55.6,41.1,29.94,SW,230,3.0,0.0,58,0.00,,---,0.01,VWS V14.01,2013-03-06 12:00:00,
2013-03-06 04:01:00,55.5,41.0,29.94,West,277,1.0,0.0,58,0.00,,---,0.01,VWS V14.01,2013-03-06 12:01:00,
2013-03-06 04:02:00,55.4,40.9,29.94,West,266,2.0,0.0,58,0.00,,---,0.01,VWS V14.01,2013-03-06 12:02:00,
2013-03-06 04:03:00,55.4,41.3,29.94,ENE,59,2.0,0.0,59,0.00,,---,0.01,VWS V14.01,2013-03-06 12:03:00,
2013-03-06 04:04:00,55.4,42.2,29.94,SSE,157,0.0,0.0,61,0.00,,---,0.01,VWS V14.01,2013-03-06 12:04:00,
2013-03-06 04:05:00,55.4,41.8,29.94,South,191,0.0,0.0,60,0.00,,---,0.01,VWS V14.01,2013-03-06 12:05:00,
2013-03-06 04:06:00,55.5,42.3,29.94,NNW,336,2.0,0.0,61,0.00,,---,0.01,VWS V14.01,2013-03-06 12:06:00,
2013-03-06 04:07:00,55.7,42.9,29.94,SSE,166,1.0,0.0,62,0.00,,---,0.01,VWS V14.01,2013-03-06 12:07:00,
2013-03-06 04:08:00,55.8,41.7,29.94,SW,219,1.0,0.0,59,0.00,,---,0.01,VWS V14.01,2013-03-06 12:08:00,
2013-03-06 04:09:00,55.9,42.2,29.94,West,279,2.0,0.0,60,0.00,,---,0.01,VWS V14.01,2013-03-06 12:09:00,
2013-03-06 04:10:00,56.0,41.9,29.94,WNW,290,1.0,0.0,59,0.00,,---,0.01,VWS V14.01,2013-03-06 12:10:00,
2013-03-06 04:11:00,56.1,42.0,29.94,North,9,2.0,0.0,59,0.00,,---,0.01,VWS V14.01,2013-03-06 12:11:00,
2013-03-06 04:12:00,56.2,41.6,29.94,North,5,2.0,0.0,58,0.00,,---,0.01,VWS V14.01,2013-03-06 12:12:00,
2013-03-06 04:13:00,56.3,42.6,29.94,SW,215,1.0,0.0,60,0.00,,---,0.01,VWS V14.01,2013-03-06 12:13:00,
2013-03-06 04:14:00,56.4,41.8,29.94,WSW,257,0.0,0.0,58,0.00,,---,0.01,VWS V14.01,2013-03-06 12:14:00,
2013-03-06 04:15:00,56.5,41.9,29.94,SSW,196,0.0,0.0,58,0.00,,---,0.01,VWS V14.01,2013-03-06 12:15:00,
2013-03-06 04:16:00,56.6,42.5,29.94,SW,215,5.0,0.0,59,0.00,,---,0.01,VWS V14.01,2013-03-06 12:16:00,
2013-03-06 04:17:00,56.6,42.0,29.94,NNE,31,4.0,0.0,58,0.00,,---,0.01,VWS V14.01,2013-03-06 12:17:00,
2013-03-06 04:18:00,56.6,41.6,29.94,WNW,299,0.0,0.0,57,0.00,,---,0.01,VWS V14.01,2013-03-06 12:18:00,
2013-03-06 04:19:00,56.7,42.5,29.94,West,279,0.0,0.0,59,0.00,,---,0.01,VWS V14.01,2013-03-06 12:19:00,
2013-03-06 04:20:00,56.7,41.7,29.94,West,269,2.0,0.0,57,0.00,,---,0.01,VWS V14.01,2013-03-06 12:20:00,
2013-03-06 04:21:00,56.8,42.2,29.94,WNW,295,0.0,0.0,58,0.00,,---,0.01,VWS V14.01,2013-03-06 12:21:00,
2013-03-06 04:22:00,56.8,42.2,29.94,NW,322,4.0,0.0,58,0.00,,---,0.01,VWS V14.01,2013-03-06 12:22:00,
2013-03-06 04:23:00,56.9,41.8,29.94,South,175,4.0,0.0,57,0.00,,---,0.01,VWS V14.01,2013-03-06 12:23:00,
2013-03-06 04:24:00,56.9,41.4,29.94,NE,39,1.0,0.0,56,0.00,,---,0.01,VWS V14.01,2013-03-06 12:24:00,
2013-03-06 04:25:00,56.9,41.4,29.94,South,180,2.0,0.0,56,0.00,,---,0.01,VWS V14.01,2013-03-06 12:25:00,
2013-03-06 04:26:00,56.8,41.3,29.94,NW,321,2.0,0.0,56,0.00,,---,0.01,VWS V14.01,2013-03-06 12:26:00,
2013-03-06 04:27:00,56.7,40.7,29.94,WNW,298,2.0,0.0,55,0.00,,---,0.01,VWS V14.01,2013-03-06 12:27:00,
2013-03-06 04:28:00,56.7,40.7,29.94,WNW,286,5.0,0.0,55,0.00,,---,0.01,VWS V14.01,2013-03-06 12:28:00,
2013-03-06 04:29:00,56.6,41.1,29.94,NNW,346,2.0,0.0,56,0.00,,---,0.01,VWS V14.01,2013-03-06 12:29:00,
2013-03-06 04:30:00,56.6,41.1,29.94,South,187,4.0,0.0,56,0.00,,---,0.01,VWS V14.01,2013-03-06 12:30:00,
2013-03-06 04:31:00,56.5,41.0,29.94,SW,227,0.0,0.0,56,0.00,,---,0.01,VWS V14.01,2013-03-06 12:31:00,
2013-03-06 04:32:00,56.4,40.9,29.94,WNW,303,0.0,0.0,56,0.00,,---,0.01,VWS V14.01,2013-03-06 12:32:00,
2013-03-06 04:33:00,56.4,41.8,29.94,WNW,288,2.0,0.0,58,0.00,,---,0.01,VWS V14.01,2013-03-06 12:33:00,
2013-03-06 04:34:00,56.4,41.4,29.94,WSW,241,2.0,0.0,57,0.00,,---,0.01,VWS V14.01,2013-03-06 12:34:00,
2013-03-06 04:35:00,56.4,40.9,29.94,NW,318,2.0,0.0,56,0.00,,---,0.01,VWS V14.01,2013-03-06 12:35:00,
2013-03-06 04:36:00,56.4,40.9,29.94,South,182,1.0,0.0,56,0.00,,---,0.01,VWS V14.01,2013-03-06 12:36:00,
2013-03-06 04:37:00,56.4,41.8,29.94,South,179,0.0,0.0,58,0.00,,---,0.01,VWS V14.01,2013-03-06 12:37:00,
2013-03-06 04:38:00,56.4,40.5,29.94,NNW,340,3.0,0.0,55,0.00,,---,0.01,VWS V14.01,2013-03-06 12:38:00,
2013-03-06 04:39:00,56.4,40.5,29.94,WNW,292,2.0,0.0,55,0.00,,---,0.01,VWS V14.01,2013-03-06 12:39:00,
2013-03-06 04:40:00,56.4,40.5,29.94,West,279,4.0,0.0,55,0.00,,---,0.01,VWS V14.01,2013-03-06 12:40:00,
2013-03-06 04:41:00,56.5,40.1,29.94,WNW,288,3.0,0.0,54,0.00,,---,0.01,VWS V14.01,2013-03-06 12:41:00,
2013-03-06 04:42:00,56.6,39.7,29.94,South,175,2.0,0.0,53,0.00,,---,0.01,VWS V14.01,2013-03-06 12:42:00,
2013-03-06 04:43:00,56.6,39.7,29.94,NNE,26,4.0,0.0,53,0.00,,---,0.01,VWS V14.01,2013-03-06 12:43:00,
2013-03-06 04:44:00,56.6,39.7,29.94,WSW,251,2.0,0.0,53,0.00,,---,0.01,VWS V14.01,2013-03-06 12:44:00,
2013-03-06 04:45:00,56.6,39.2,29.94,SW,219,1.0,0.0,52,0.00,,---,0.01,VWS V14.01,2013-03-06 12:45:00,
2013-03-06 04:46:00,56.5,39.1,29.94,West,261,4.0,0.0,52,0.00,,---,0.01,VWS V14.01,2013-03-06 12:46:00,
2013-03-06 04:47:00,56.4,39.0,29.94,WNW,288,4.0,0.0,52,0.00,,---,0.01,VWS V14.01,2013-03-06 12:47:00,
2013-03-06 04:48:00,56.3,39.4,29.94,NW,316,3.0,0.0,53,0.00,,---,0.01,VWS V14.01,2013-03-06 12:48:00,
2013-03-06 04:49:00,56.3,39.9,29.94,NNW,340,1.0,0.0,54,0.00,,---,0.01,VWS V14.01,2013-03-06 12:49:00,
2013-03-06 04:50:00,56.2,39.8,29.94,NW,310,4.0,0.0,54,0.00,,---,0.01,VWS V14.01,2013-03-06 12:50:00,
2013-03-06 04:51:00,56.2,39.8,29.94,NNW,340,4.0,0.0,54,0.00,,---,0.01,VWS V14.01,2013-03-06 12:51:00,
2013-03-06 04:52:00,56.2,39.8,29.94,West,276,3.0,0.0,54,0.00,,---,0.01,VWS V14.01,2013-03-06 12:52:00,
2013-03-06 04:53:00,56.1,39.7,29.93,WNW,284,2.0,0.0,54,0.00,,---,0.01,VWS V14.01,2013-03-06 12:53:00,
2013-03-06 04:54:00,56.1,39.7,29.93,WNW,303,1.0,0.0,54,0.00,,---,0.01,VWS V14.01,2013-03-06 12:54:00,
2013-03-06 04:55:00,56.1,39.7,29.93,NW,319,4.0,0.0,54,0.00,,---,0.01,VWS V14.01,2013-03-06 12:55:00,
2013-03-06 04:56:00,56.1,39.7,29.94,NW,304,4.0,0.0,54,0.00,,---,0.01,VWS V14.01,2013-03-06 12:56:00,
2013-03-06 04:57:00,56.1,39.7,29.94,WNW,282,3.0,0.0,54,0.00,,---,0.01,VWS V14.01,2013-03-06 12:57:00,
2013-03-06 04:58:00,56.0,39.6,29.93,WSW,247,0.0,0.0,54,0.00,,---,0.01,VWS V14.01,2013-03-06 12:58:00,
2013-03-06 04:59:00,56.0,39.6,29.93,West,275,0.0,0.0,54,0.00,,---,0.01,VWS V14.01,2013-03-06 12:59:00,
2013-03-06 05:00:00,56.0,39.6,29.94,West,279,2.0,0.0,54,0.00,,---,0.01,VWS V14.01,2013-03-06 13:00:00,
2013-03-06 05:01:00,55.9,39.5,29.94,NNW,340,3.0,0.0,54,0.00,,---,0.01,VWS V14.01,2013-03-06 13:01:00,
2013-03-06 05:02:00,55.9,39.5,29.94,West,281,5.0,0.0,54,0.00,,---,0.01,VWS V14.01,2013-03-06 13:02:00,
2013-03-06 05:03:00,55.8,39.4,29.94,NW,321,2.0,0.0,54,0.00,,---,0.01,VWS V14.01,2013-03-06 13:03:00,
2013-03-06 05:04:00,55.8,39.9,29.94,West,259,2.0,0.0,55,0.00,,---,0.01,VWS V14.01,2013-03-06 13:04:00,
2013-03-06 05:05:00,55.8,39.4,29.94,NNW,336,2.0,0.0,54,0.00,,---,0.01,VWS V14.01,2013-03-06 13:05:00,
2013-03-06 05:06:00,55.8,39.9,29.94,NW,311,1.0,0.0,55,0.00,,---,0.01,VWS V14.01,2013-03-06 13:06:00,
2013-03-06 05:07:00,55.8,39.9,29.94,WNW,291,2.0,0.0,55,0.00,,---,0.01,VWS V14.01,2013-03-06 13:07:00,
2013-03-06 05:08:00,55.8,40.4,29.94,NNE,15,0.0,0.0,56,0.00,,---,0.01,VWS V14.01,2013-03-06 13:08:00,
2013-03-06 05:09:00,55.9,40.5,29.94,NNW,338,2.0,0.0,56,0.00,,---,0.01,VWS V14.01,2013-03-06 13:09:00,
2013-03-06 05:10:00,55.9,40.5,29.93,SSE,156,2.0,0.0,56,0.00,,---,0.01,VWS V14.01,2013-03-06 13:10:00,
2013-03-06 05:11:00,56.0,40.5,29.94,SE,137,2.0,0.0,56,0.00,,---,0.01,VWS V14.01,2013-03-06 13:11:00,
2013-03-06 05:12:00,56.0,40.5,29.94,ENE,72,1.0,0.0,56,0.00,,---,0.01,VWS V14.01,2013-03-06 13:12:00,
2013-03-06 05:13:00,56.0,41.0,29.93,SSW,195,1.0,0.0,57,0.00,,---,0.01,VWS V14.01,2013-03-06 13:13:00,
2013-03-06 05:14:00,56.0,40.5,29.94,WNW,299,1.0,0.0,56,0.00,,---,0.01,VWS V14.01,2013-03-06 13:14:00,
2013-03-06 05:15:00,56.1,40.2,29.94,SW,228,0.0,0.0,55,0.00,,---,0.01,VWS V14.01,2013-03-06 13:15:00,
2013-03-06 05:16:00,56.1,40.6,29.94,SSE,157,0.0,0.0,56,0.00,,---,0.01,VWS V14.01,2013-03-06 13:16:00,
2013-03-06 05:17:00,56.2,40.7,29.93,SE,138,5.0,0.0,56,0.00,,---,0.01,VWS V14.01,2013-03-06 13:17:00,
2013-03-06 05:18:00,56.1,40.2,29.93,South,188,2.0,0.0,55,0.00,,---,0.01,VWS V14.01,2013-03-06 13:18:00,
2013-03-06 05:19:00,56.1,41.1,29.93,WNW,290,2.0,0.0,57,0.00,,---,0.01,VWS V14.01,2013-03-06 13:19:00,
2013-03-06 05:20:00,56.1,40.6,29.93,WNW,290,2.0,0.0,56,0.00,,---,0.01,VWS V14.01,2013-03-06 13:20:00,
2013-03-06 05:21:00,56.1,40.2,29.94,SW,232,2.0,0.0,55,0.00,,---,0.01,VWS V14.01,2013-03-06 13:21:00,
2013-03-06 05:22:00,56.1,40.2,29.93,South,169,4.0,0.0,55,0.00,,---,0.01,VWS V14.01,2013-03-06 13:22:00,
2013-03-06 05:23:00,56.0,40.5,29.93,SE,139,0.0,0.0,56,0.00,,---,0.01,VWS V14.01,2013-03-06 13:23:00,
2013-03-06 05:24:00,56.0,40.1,29.93,ENE,61,1.0,0.0,55,0.00,,---,0.01,VWS V14.01,2013-03-06 13:24:00,
2013-03-06 05:25:00,55.9,39.5,29.94,ESE,106,1.0,0.0,54,0.00,,---,0.01,VWS V14.01,2013-03-06 13:25:00,
2013-03-06 05:26:00,55.9,39.0,29.94,West,277,3.0,0.0,53,0.00,,---,0.01,VWS V14.01,2013-03-06 13:26:00,
2013-03-06 05:27:00,55.8,39.4,29.94,SW,234,0.0,0.0,54,0.00,,---,0.01,VWS V14.01,2013-03-06 13:27:00,
2013-03-06 05:28:00,55.7,39.3,29.93,West,268,2.0,0.0,54,0.00,,---,0.01,VWS V14.01,2013-03-06 13:28:00,
2013-03-06 05:29:00,55.7,39.8,29.93,WNW,297,3.0,0.0,55,0.00,,---,0.01,VWS V14.01,2013-03-06 13:29:00,
2013-03-06 05:30:00,55.7,39.3,29.93,NW,322,0.0,0.0,54,0.00,,---,0.01,VWS V14.01,2013-03-06 13:30:00,
2013-03-06 05:31:00,55.7,39.8,29.93,SE,128,0.0,0.0,55,0.00,,---,0.01,VWS V14.01,2013-03-06 13:31:00,
2013-03-06 05:32:00,55.6,39.2,29.93,SSE,153,0.0,0.0,54,0.00,,---,0.01,VWS V14.01,2013-03-06 13:32:00,
2013-03-06 05:33:00,55.6,39.2,29.93,NNW,345,1.0,0.0,54,0.00,,---,0.01,VWS V14.01,2013-03-06 13:33:00,
2013-03-06 05:34:00,55.6,40.2,29.93,ESE,122,0.0,0.0,56,0.00,,---,0.01,VWS V14.01,2013-03-06 13:34:00,
2013-03-06 05:35:00,55.5,39.1,29.93,NW,319,2.0,0.0,54,0.00,,---,0.01,VWS V14.01,2013-03-06 13:35:00,
2013-03-06 05:36:00,55.5,38.7,29.93,SSW,196,0.0,0.0,53,0.00,,---,0.01,VWS V14.01,2013-03-06 13:36:00,
2013-03-06 05:37:00,55.5,39.1,29.93,South,190,0.0,0.0,54,0.00,,---,0.01,VWS V14.01,2013-03-06 13:37:00,
2013-03-06 05:38:00,55.5,40.1,29.93,WSW,253,2.0,0.0,56,0.00,,---,0.01,VWS V14.01,2013-03-06 13:38:00,
2013-03-06 05:39:00,55.5,39.6,29.93,West,280,2.0,0.0,55,0.00,,---,0.01,VWS V14.01,2013-03-06 13:39:00,
2013-03-06 05:40:00,55.5,39.1,29.93,South,191,0.0,0.0,54,0.00,,---,0.01,VWS V14.01,2013-03-06 13:40:00,
2013-03-06 05:41:00,55.5,39.6,29.93,SSW,193,1.0,0.0,55,0.00,,---,0.01,VWS V14.01,2013-03-06 13:41:00,
2013-03-06 05:42:00,55.5,39.1,29.93,NW,323,0.0,0.0,54,0.00,,---,0.01,VWS V14.01,2013-03-06 13:42:00,
2013-03-06 05:43:00,55.5,39.1,29.93,WNW,302,2.0,0.0,54,0.00,,---,0.01,VWS V14.01,2013-03-06 13:43:00,
2013-03-06 05:44:00,55.5,39.1,29.93,WNW,284,1.0,0.0,54,0.00,,---,0.01,VWS V14.01,2013-03-06 13:44:00,
2013-03-06 05:45:00,55.5,39.1,29.93,North,355,4.0,0.0,54,0.00,,---,0.01,VWS V14.01,2013-03-06 13:45:00,
2013-03-06 05:46:00,55.5,39.1,29.93,South,175,5.0,0.0,54,0.00,,---,0.01,VWS V14.01,2013-03-06 13:46:00,
2013-03-06 05:47:00,55.5,39.1,29.93,South,178,1.0,0.0,54,0.00,,---,0.01,VWS V14.01,2013-03-06 13:47:00,
2013-03-06 05:48:00,55.5,39.1,29.93,SW,232,1.0,0.0,54,0.00,,---,0.01,VWS V14.01,2013-03-06 13:48:00,
2013-03-06 05:49:00,55.5,39.6,29.93,West,280,2.0,0.0,55,0.00,,---,0.01,VWS V14.01,2013-03-06 13:49:00,
2013-03-06 05:50:00,55.4,39.5,29.93,NW,319,1.0,0.0,55,0.00,,---,0.01,VWS V14.01,2013-03-06 13:50:00,
2013-03-06 05:51:00,55.5,39.1,29.93,WNW,298,2.0,0.0,54,0.00,,---,0.01,VWS V14.01,2013-03-06 13:51:00,
2013-03-06 05:52:00,55.4,39.0,29.93,NW,313,4.0,0.0,54,0.00,,---,0.01,VWS V14.01,2013-03-06 13:52:00,
2013-03-06 05:53:00,55.4,39.5,29.93,NNW,329,1.0,0.0,55,0.00,,---,0.01,VWS V14.01,2013-03-06 13:53:00,
2013-03-06 05:54:00,55.4,39.5,29.93,West,281,5.0,0.0,55,0.00,,---,0.01,VWS V14.01,2013-03-06 13:54:00,
2013-03-06 05:55:00,55.3,39.0,29.93,WNW,293,0.0,0.0,54,0.00,,---,0.01,VWS V14.01,2013-03-06 13:55:00,
2013-03-06 05:56:00,55.3,39.4,29.93,WNW,291,4.0,0.0,55,0.00,,---,0.01,VWS V14.01,2013-03-06 13:56:00,
2013-03-06 05:57:00,55.3,39.0,29.93,NW,317,7.0,0.0,54,0.00,,---,0.01,VWS V14.01,2013-03-06 13:57:00,
2013-03-06 05:58:00,55.2,38.9,29.93,NW,314,0.0,0.0,54,0.00,,---,0.01,VWS V14.01,2013-03-06 13:58:00,
2013-03-06 05:59:00,55.2,38.9,29.93,West,271,0.0,0.0,54,0.00,,---,0.01,VWS V14.01,2013-03-06 13:59:00,
2013-03-06 06:00:00,55.2,38.9,29.93,WNW,296,0.0,0.0,54,0.00,,---,0.01,VWS V14.01,2013-03-06 14:00:00,
2013-03-06 06:01:00,55.2,38.9,29.93,SE,138,0.0,0.0,54,0.00,,---,0.01,VWS V14.01,2013-03-06 14:01:00,
2013-03-06 06:02:00,55.2,39.3,29.93,WNW,293,1.0,0.0,55,0.00,,---,0.01,VWS V14.01,2013-03-06 14:02:00,
2013-03-06 06:03:00,55.2,38.9,29.93,NW,319,3.0,0.0,54,0.00,,---,0.01,VWS V14.01,2013-03-06 14:03:00,
2013-03-06 06:04:00,55.2,39.3,29.93,North,350,2.0,0.0,55,0.00,,---,0.01,VWS V14.01,2013-03-06 14:04:00,
2013-03-06 06:05:00,55.2,39.3,29.93,ENE,77,1.0,0.0,55,0.00,,---,0.01,VWS V14.01,2013-03-06 14:05:00,
2013-03-06 06:06:00,55.2,38.9,29.93,West,274,1.0,0.0,54,0.00,,---,0.01,VWS V14.01,2013-03-06 14:06:00,
2013-03-06 06:07:00,55.2,38.9,29.93,NW,317,1.0,0.0,54,0.00,,---,0.01,VWS V14.01,2013-03-06 14:07:00,
2013-03-06 06:08:00,55.1,39.2,29.93,NNE,15,1.0,0.0,55,0.00,,---,0.01,VWS V14.01,2013-03-06 14:08:00,
2013-03-06 06:09:00,55.1,39.2,29.93,NW,317,0.0,0.0,55,0.00,,---,0.01,VWS V14.01,2013-03-06 14:09:00,
2013-03-06 06:10:00,55.1,39.2,29.93,West,270,3.0,0.0,55,0.00,,---,0.01,VWS V14.01,2013-03-06 14:10:00,
2013-03-06 06:11:00,55.1,38.8,29.93,SSW,209,3.0,0.0,54,0.00,,---,0.01,VWS V14.01,2013-03-06 14:11:00,
2013-03-06 06:12:00,55.0,38.7,29.93,West,265,1.0,0.0,54,0.00,,---,0.01,VWS V14.01,2013-03-06 14:12:00,
2013-03-06 06:13:00,55.0,38.7,29.93,WNW,299,1.0,0.0,54,0.00,,---,0.01,VWS V14.01,2013-03-06 14:13:00,
2013-03-06 06:14:00,54.9,38.6,29.93,NE,44,2.0,0.0,54,0.00,,---,0.01,VWS V14.01,2013-03-06 14:14:00,
2013-03-06 06:15:00,54.9,39.0,29.93,NNW,340,1.0,0.0,55,0.00,,---,0.01,VWS V14.01,2013-03-06 14:15:00,
2013-03-06 06:16:00,54.8,39.0,29.93,WNW,290,1.0,0.0,55,0.00,,---,0.01,VWS V14.01,2013-03-06 14:16:00,
2013-03-06 06:17:00,54.8,39.0,29.93,WNW,294,2.0,0.0,55,0.00,,---,0.01,VWS V14.01,2013-03-06 14:17:00,
2013-03-06 06:18:00,54.7,38.4,29.93,NNW,339,2.0,0.0,54,0.00,,---,0.01,VWS V14.01,2013-03-06 14:18:00,
2013-03-06 06:19:00,54.7,38.9,29.93,NNW,335,0.0,0.0,55,0.00,,---,0.01,VWS V14.01,2013-03-06 14:19:00,
2013-03-06 06:20:00,54.7,38.9,29.93,NE,43,1.0,0.0,55,0.00,,---,0.01,VWS V14.01,2013-03-06 14:20:00,
2013-03-06 06:21:00,54.6,39.2,29.93,NE,43,0.0,0.0,56,0.00,,---,0.01,VWS V14.01,2013-03-06 14:21:00,
2013-03-06 06:22:00,54.6,39.2,29.93,NW,324,0.0,0.0,56,0.00,,---,0.01,VWS V14.01,2013-03-06 14:22:00,
2013-03-06 06:23:00,54.6,38.8,29.93,NNW,338,2.0,0.0,55,0.00,,---,0.01,VWS V14.01,2013-03-06 14:23:00,
2013-03-06 06:24:00,54.6,39.2,29.93,NNW,340,0.0,0.0,56,0.00,,---,0.01,VWS V14.01,2013-03-06 14:24:00,
2013-03-06 06:25:00,54.6,39.2,29.93,North,350,0.0,0.0,56,0.00,,---,0.01,VWS V14.01,2013-03-06 14:25:00,
2013-03-06 06:26:00,54.6,39.7,29.93,West,281,4.0,0.0,57,0.00,,---,0.01,VWS V14.01,2013-03-06 14:26:00,
2013-03-06 06:27:00,54.5,38.7,29.93,NW,314,0.0,0.0,55,0.00,,---,0.01,VWS V14.01,2013-03-06 14:27:00,
2013-03-06 06:28:00,54.5,38.2,29.93,West,275,3.0,0.0,54,0.00,,---,0.01,VWS V14.01,2013-03-06 14:28:00,
2013-03-06 06:29:00,54.4,38.6,29.93,West,271,0.0,0.0,55,0.00,,---,0.01,VWS V14.01,2013-03-06 14:29:00,
2013-03-06 06:30:00,54.4,38.6,29.93,North,5,0.0,0.0,55,0.00,,---,0.01,VWS V14.01,2013-03-06 14:30:00,
2013-03-06 06:31:00,54.4,39.5,29.93,North,10,0.0,0.0,57,0.00,,---,0.01,VWS V14.01,2013-03-06 14:31:00,
2013-03-06 06:32:00,54.4,39.0,29.93,West,267,3.0,0.0,56,0.00,,---,0.01,VWS V14.01,2013-03-06 14:32:00,
2013-03-06 06:33:00,54.4,39.0,29.93,West,267,0.0,0.0,56,0.00,,---,0.01,VWS V14.01,2013-03-06 14:33:00,
2013-03-06 06:34:00,54.3,39.0,29.93,WNW,284,0.0,0.0,56,0.00,,---,0.01,VWS V14.01,2013-03-06 14:34:00,
2013-03-06 06:35:00,54.3,39.4,29.93,WNW,299,0.0,0.0,57,0.00,,---,0.01,VWS V14.01,2013-03-06 14:35:00,
2013-03-06 06:36:00,54.3,39.4,29.93,NW,319,4.0,0.0,57,0.00,,---,0.01,VWS V14.01,2013-03-06 14:36:00,
2013-03-06 06:37:00,54.3,39.4,29.93,West,272,3.0,0.0,57,0.00,,---,0.01,VWS V14.01,2013-03-06 14:37:00,
2013-03-06 06:38:00,54.3,39.0,29.93,WNW,285,0.0,0.0,56,0.00,,---,0.01,VWS V14.01,2013-03-06 14:38:00,
2013-03-06 06:39:00,54.3,39.0,29.93,NW,319,0.0,0.0,56,0.00,,---,0.01,VWS V14.01,2013-03-06 14:39:00,
2013-03-06 06:40:00,54.3,39.0,29.93,NW,313,2.0,0.0,56,0.00,,---,0.01,VWS V14.01,2013-03-06 14:40:00,
2013-03-06 06:41:00,54.3,39.0,29.93,NW,311,0.0,0.0,56,0.00,,---,0.01,VWS V14.01,2013-03-06 14:41:00,
2013-03-06 06:42:00,54.2,38.9,29.93,SSW,192,1.0,0.0,56,0.00,,---,0.01,VWS V14.01,2013-03-06 14:42:00,
2013-03-06 06:43:00,54.2,38.4,29.93,NNE,30,1.0,0.0,55,0.00,,---,0.01,VWS V14.01,2013-03-06 14:43:00,
2013-03-06 06:44:00,54.2,38.9,29.93,NNE,28,0.0,0.0,56,0.00,,---,0.01,VWS V14.01,2013-03-06 14:44:00,
2013-03-06 06:45:00,54.2,38.9,29.92,NNE,12,1.0,0.0,56,0.00,,---,0.01,VWS V14.01,2013-03-06 14:45:00,
2013-03-06 06:46:00,54.2,39.3,29.93,North,355,0.0,0.0,57,0.00,,---,0.01,VWS V14.01,2013-03-06 14:46:00,
2013-03-06 06:47:00,54.2,39.3,29.92,ENE,76,0.0,0.0,57,0.00,,---,0.01,VWS V14.01,2013-03-06 14:47:00,
2013-03-06 06:48:00,54.1,39.7,29.92,ENE,76,0.0,0.0,58,0.00,,---,0.01,VWS V14.01,2013-03-06 14:48:00,
2013-03-06 06:49:00,54.1,40.1,29.92,NW,314,0.0,0.0,59,0.00,,---,0.01,VWS V14.01,2013-03-06 14:49:00,
2013-03-06 06:50:00,54.1,39.7,29.92,WNW,293,0.0,0.0,58,0.00,,---,0.01,VWS V14.01,2013-03-06 14:50:00,
2013-03-06 06:51:00,54.1,39.2,29.92,WNW,283,0.0,0.0,57,0.00,,---,0.01,VWS V14.01,2013-03-06 14:51:00,
2013-03-06 06:52:00,54.1,38.8,29.92,West,277,0.0,0.0,56,0.00,,---,0.01,VWS V14.01,2013-03-06 14:52:00,
2013-03-06 06:53:00,54.1,38.8,29.92,WNW,288,0.0,0.0,56,0.00,,---,0.01,VWS V14.01,2013-03-06 14:53:00,
2013-03-06 06:54:00,54.0,39.1,29.92,NW,310,0.0,0.0,57,0.00,,---,0.01,VWS V14.01,2013-03-06 14:54:00,
2013-03-06 06:55:00,54.0,38.7,29.92,SW,231,0.0,0.0,56,0.00,,---,0.01,VWS V14.01,2013-03-06 14:55:00,
2013-03-06 06:56:00,54.0,38.7,29.92,West,265,1.0,0.0,56,0.00,,---,0.01,VWS V14.01,2013-03-06 14:56:00,
2013-03-06 06:57:00,54.0,38.7,29.92,West,280,0.0,0.0,56,0.00,,---,0.01,VWS V14.01,2013-03-06 14:57:00,
2013-03-06 06:58:00,53.9,38.6,29.92,West,274,0.0,0.0,56,0.00,,---,0.01,VWS V14.01,2013-03-06 14:58:00,
2013-03-06 06:59:00,53.9,39.0,29.92,West,274,1.0,0.0,57,0.00,,---,0.01,VWS V14.01,2013-03-06 14:59:00,
2013-03-06 07:00:00,53.9,38.6,29.92,West,281,0.0,0.0,56,0.00,,---,0.01,VWS V14.01,2013-03-06 15:00:00,
2013-03-06 07:01:00,53.9,39.0,29.92,West,281,0.0,0.0,57,0.00,,---,0.01,VWS V14.01,2013-03-06 15:01:00,
2013-03-06 07:02:00,53.8,38.9,29.92,West,281,0.0,0.0,57,0.00,,---,0.01,VWS V14.01,2013-03-06 15:02:00,
2013-03-06 07:03:00,53.8,39.8,29.92,West,281,0.0,0.0,59,0.00,,---,0.01,VWS V14.01,2013-03-06 15:03:00,
2013-03-06 07:04:00,53.8,40.3,29.92,NW,323,1.0,0.0,60,0.00,,---,0.01,VWS V14.01,2013-03-06 15:04:00,
2013-03-06 07:05:00,53.7,39.7,29.92,NW,326,0.0,0.0,59,0.00,,---,0.01,VWS V14.01,2013-03-06 15:05:00,
2013-03-06 07:06:00,53.7,40.2,29.92,NW,326,0.0,0.0,60,0.00,,---,0.01,VWS V14.01,2013-03-06 15:06:00,
2013-03-06 07:07:00,53.7,39.7,29.92,NW,326,0.0,0.0,59,0.00,,---,0.01,VWS V14.01,2013-03-06 15:07:00,
2013-03-06 07:08:00,53.7,39.3,29.92,NW,325,0.0,0.0,58,0.00,,---,0.01,VWS V14.01,2013-03-06 15:08:00,
2013-03-06 07:09:00,53.6,39.6,29.92,NNW,347,1.0,0.0,59,0.00,,---,0.01,VWS V14.01,2013-03-06 15:09:00,
2013-03-06 07:10:00,53.6,39.2,29.92,NW,314,2.0,0.0,58,0.00,,---,0.01,VWS V14.01,2013-03-06 15:10:00,
2013-03-06 07:11:00,53.6,38.8,29.92,NW,320,0.0,0.0,57,0.00,,---,0.01,VWS V14.01,2013-03-06 15:11:00,
2013-03-06 07:12:00,53.5,39.1,29.92,NW,319,0.0,0.0,58,0.00,,---,0.01,VWS V14.01,2013-03-06 15:12:00,
2013-03-06 07:13:00,53.5,39.1,29.92,NW,315,0.0,0.0,58,0.00,,---,0.01,VWS V14.01,2013-03-06 15:13:00,
2013-03-06 07:14:00,53.5,39.1,29.92,NW,315,0.0,0.0,58,0.00,,---,0.01,VWS V14.01,2013-03-06 15:14:00,
2013-03-06 07:15:00,53.5,39.5,29.92,WNW,302,0.0,0.0,59,0.00,,---,0.01,VWS V14.01,2013-03-06 15:15:00,
2013-03-06 07:16:00,53.5,39.1,29.92,WNW,302,0.0,0.0,58,0.00,,---,0.01,VWS V14.01,2013-03-06 15:16:00,
2013-03-06 07:17:00,53.5,39.1,29.92,WNW,302,0.0,0.0,58,0.00,,---,0.01,VWS V14.01,2013-03-06 15:17:00,
2013-03-06 07:18:00,53.4,39.9,29.92,NW,309,0.0,0.0,60,0.00,,---,0.01,VWS V14.01,2013-03-06 15:18:00,
2013-03-06 07:19:00,53.4,39.9,29.92,NW,309,0.0,0.0,60,0.00,,---,0.01,VWS V14.01,2013-03-06 15:19:00,
2013-03-06 07:20:00,53.4,39.5,29.92,NW,309,0.0,0.0,59,0.00,,---,0.01,VWS V14.01,2013-03-06 15:20:00,
2013-03-06 07:21:00,53.4,39.5,29.92,NW,309,0.0,0.0,59,0.00,,---,0.01,VWS V14.01,2013-03-06 15:21:00,
2013-03-06 07:22:00,53.3,40.2,29.92,NW,309,0.0,0.0,61,0.00,,---,0.01,VWS V14.01,2013-03-06 15:22:00,
2013-03-06 07:23:00,53.3,39.8,29.92,WNW,301,1.0,0.0,60,0.00,,---,0.01,VWS V14.01,2013-03-06 15:23:00,
2013-03-06 07:24:00,53.3,39.3,29.92,WNW,299,0.0,0.0,59,0.00,,---,0.01,VWS V14.01,2013-03-06 15:24:00,
2013-03-06 07:25:00,53.3,39.3,29.92,WNW,297,0.0,0.0,59,0.00,,---,0.01,VWS V14.01,2013-03-06 15:25:00,
2013-03-06 07:26:00,53.2,38.8,29.92,WNW,292,0.0,0.0,58,0.00,,---,0.01,VWS V14.01,2013-03-06 15:26:00,
2013-03-06 07:27:00,53.2,38.8,29.92,West,275,0.0,0.0,58,0.00,,---,0.01,VWS V14.01,2013-03-06 15:27:00,
2013-03-06 07:28:00,53.2,39.3,29.92,West,275,0.0,0.0,59,0.00,,---,0.01,VWS V14.01,2013-03-06 15:28:00,
2013-03-06 07:29:00,53.1,39.6,29.92,WNW,294,1.0,0.0,60,0.00,,---,0.01,VWS V14.01,2013-03-06 15:29:00,
2013-03-06 07:30:00,53.1,40.0,29.92,WNW,294,0.0,0.0,61,0.00,,---,0.01,VWS V14.01,2013-03-06 15:30:00,
2013-03-06 07:31:00,53.1,40.0,29.92,WNW,294,0.0,0.0,61,0.00,,---,0.01,VWS V14.01,2013-03-06 15:31:00,
2013-03-06 07:32:00,53.0,39.5,29.92,WNW,294,0.0,0.0,60,0.00,,---,0.01,VWS V14.01,2013-03-06 15:32:00,
2013-03-06 07:33:00,53.0,40.3,29.92,WNW,294,0.0,0.0,62,0.00,,---,0.01,VWS V14.01,2013-03-06 15:33:00,
2013-03-06 07:34:00,53.0,39.5,29.92,WNW,294,0.0,0.0,60,0.00,,---,0.01,VWS V14.01,2013-03-06 15:34:00,
2013-03-06 07:35:00,52.9,39.4,29.92,NW,304,0.0,0.0,60,0.00,,---,0.01,VWS V14.01,2013-03-06 15:35:00,
2013-03-06 07:36:00,52.8,39.3,29.92,NW,304,0.0,0.0,60,0.00,,---,0.01,VWS V14.01,2013-03-06 15:36:00,
2013-03-06 07:37:00,52.8,40.2,29.92,NW,304,0.0,0.0,62,0.00,,---,0.01,VWS V14.01,2013-03-06 15:37:00,
2013-03-06 07:38:00,52.7,39.6,29.92,NW,304,0.0,0.0,61,0.00,,---,0.01,VWS V14.01,2013-03-06 15:38:00,
2013-03-06 07:39:00,52.7,39.6,29.92,NW,304,0.0,0.0,61,0.00,,---,0.01,VWS V14.01,2013-03-06 15:39:00,
2013-03-06 07:40:00,52.6,39.5,29.92,NW,304,0.0,0.0,61,0.00,,---,0.01,VWS V14.01,2013-03-06 15:40:00,
2013-03-06 07:41:00,52.6,39.5,29.92,NW,304,0.0,0.0,61,0.00,,---,0.01,VWS V14.01,2013-03-06 15:41:00,
2013-03-06 07:42:00,52.5,40.3,29.92,WNW,300,1.0,0.0,63,0.00,,---,0.01,VWS V14.01,2013-03-06 15:42:00,
2013-03-06 07:43:00,52.4,39.4,29.92,WNW,300,0.0,0.0,61,0.00,,---,0.01,VWS V14.01,2013-03-06 15:43:00,
2013-03-06 07:44:00,52.3,39.3,29.92,WNW,300,0.0,0.0,61,0.00,,---,0.01,VWS V14.01,2013-03-06 15:44:00,
2013-03-06 07:45:00,52.3,39.3,29.92,WNW,301,0.0,0.0,61,0.00,,---,0.01,VWS V14.01,2013-03-06 15:45:00,
2013-03-06 07:46:00,52.2,39.6,29.92,WNW,300,0.0,0.0,62,0.00,,---,0.01,VWS V14.01,2013-03-06 15:46:00,
2013-03-06 07:47:00,52.1,39.5,29.92,WNW,301,0.0,0.0,62,0.00,,---,0.01,VWS V14.01,2013-03-06 15:47:00,
2013-03-06 07:48:00,52.1,39.9,29.92,WNW,301,0.0,0.0,63,0.00,,---,0.01,VWS V14.01,2013-03-06 15:48:00,
2013-03-06 07:49:00,52.0,39.8,29.92,WNW,301,0.0,0.0,63,0.00,,---,0.01,VWS V14.01,2013-03-06 15:49:00,
2013-03-06 07:50:00,51.9,39.7,29.92,WNW,300,0.0,0.0,63,0.00,,---,0.01,VWS V14.01,2013-03-06 15:50:00,
2013-03-06 07:51:00,51.9,40.5,29.92,WNW,300,0.0,0.0,65,0.00,,---,0.01,VWS V14.01,2013-03-06 15:51:00,
2013-03-06 07:52:00,51.8,40.4,29.92,WNW,301,0.0,0.0,65,0.00,,---,0.01,VWS V14.01,2013-03-06 15:52:00,
2013-03-06 07:53:00,51.7,39.9,29.92,WNW,300,0.0,0.0,64,0.00,,---,0.01,VWS V14.01,2013-03-06 15:53:00,
2013-03-06 07:54:00,51.6,40.2,29.92,WNW,300,0.0,0.0,65,0.00,,---,0.01,VWS V14.01,2013-03-06 15:54:00,
2013-03-06 07:55:00,51.5,39.7,29.92,WNW,301,0.0,0.0,64,0.00,,---,0.01,VWS V14.01,2013-03-06 15:55:00,
2013-03-06 07:56:00,51.5,40.1,29.92,WNW,301,0.0,0.0,65,0.00,,---,0.01,VWS V14.01,2013-03-06 15:56:00,
2013-03-06 07:57:00,51.4,40.0,29.92,WNW,300,0.0,0.0,65,0.00,,---,0.01,VWS V14.01,2013-03-06 15:57:00,
2013-03-06 07:58:00,51.3,40.0,29.92,WNW,300,0.0,0.0,65,0.00,,---,0.01,VWS V14.01,2013-03-06 15:58:00,
2013-03-06 07:59:00,51.2,39.5,29.92,WNW,300,0.0,0.0,64,0.00,,---,0.01,VWS V14.01,2013-03-06 15:59:00,
2013-03-06 08:00:00,51.1,39.4,29.92,WNW,300,0.0,0.0,64,0.00,,---,0.01,VWS V14.01,2013-03-06 16:00:00,
2013-03-06 08:01:00,51.0,39.7,29.92,WNW,300,0.0,0.0,65,0.00,,---,0.01,VWS V14.01,2013-03-06 16:01:00,
2013-03-06 08:02:00,51.0,40.1,29.92,WNW,301,0.0,0.0,66,0.00,,---,0.01,VWS V14.01,2013-03-06 16:02:00,
2013-03-06 08:03:00,50.9,40.0,29.92,WNW,300,0.0,0.0,66,0.00,,---,0.01,VWS V14.01,2013-03-06 16:03:00,
2013-03-06 08:04:00,50.8,39.9,29.92,WNW,301,0.0,0.0,66,0.00,,---,0.01,VWS V14.01,2013-03-06 16:04:00,
2013-03-06 08:05:00,50.7,40.2,29.92,WNW,300,0.0,0.0,67,0.00,,---,0.01,VWS V14.01,2013-03-06 16:05:00,
2013-03-06 08:06:00,50.6,39.7,29.92,WNW,300,0.0,0.0,66,0.00,,---,0.01,VWS V14.01,2013-03-06 16:06:00,
2013-03-06 08:07:00,50.5,40.0,29.92,WNW,300,0.0,0.0,67,0.00,,---,0.01,VWS V14.01,2013-03-06 16:07:00,
2013-03-06 08:08:00,50.4,39.9,29.92,WNW,300,0.0,0.0,67,0.00,,---,0.01,VWS V14.01,2013-03-06 16:08:00,
2013-03-06 08:09:00,50.4,39.9,29.92,WNW,301,0.0,0.0,67,0.00,,---,0.01,VWS V14.01,2013-03-06 16:09:00,
2013-03-06 08:10:00,50.3,40.2,29.92,WNW,301,0.0,0.0,68,0.00,,---,0.01,VWS V14.01,2013-03-06 16:10:00,
2013-03-06 08:11:00,50.2,40.1,29.92,WNW,300,0.0,0.0,68,0.00,,---,0.01,VWS V14.01,2013-03-06 16:11:00,
2013-03-06 08:12:00,50.1,40.3,29.92,WNW,300,0.0,0.0,69,0.00,,---,0.01,VWS V14.01,2013-03-06 16:12:00,
2013-03-06 08:13:00,50.1,40.0,29.92,WNW,300,0.0,0.0,68,0.00,,---,0.01,VWS V14.01,2013-03-06 16:13:00,
2013-03-06 08:14:00,50.0,39.9,29.92,WNW,300,0.0,0.0,68,0.00,,---,0.01,VWS V14.01,2013-03-06 16:14:00,
2013-03-06 08:15:00,49.9,39.8,29.92,WNW,300,0.0,0.0,68,0.00,,---,0.01,VWS V14.01,2013-03-06 16:15:00,
2013-03-06 08:16:00,49.8,39.7,29.92,WNW,301,0.0,0.0,68,0.00,,---,0.01,VWS V14.01,2013-03-06 16:16:00,
2013-03-06 08:17:00,49.7,39.6,29.92,WNW,300,0.0,0.0,68,0.00,,---,0.01,VWS V14.01,2013-03-06 16:17:00,
2013-03-06 08:18:00,49.6,39.9,29.92,WNW,300,0.0,0.0,69,0.00,,---,0.01,VWS V14.01,2013-03-06 16:18:00,
2013-03-06 08:19:00,49.6,39.5,29.92,WNW,301,0.0,0.0,68,0.00,,---,0.01,VWS V14.01,2013-03-06 16:19:00,
2013-03-06 08:20:00,49.5,39.8,29.92,WNW,302,0.0,0.0,69,0.00,,---,0.01,VWS V14.01,2013-03-06 16:20:00,
2013-03-06 08:21:00,49.5,40.1,29.92,WNW,300,0.0,0.0,70,0.00,,---,0.01,VWS V14.01,2013-03-06 16:21:00,
2013-03-06 08:22:00,49.4,40.0,29.92,WNW,300,0.0,0.0,70,0.00,,---,0.01,VWS V14.01,2013-03-06 16:22:00,
2013-03-06 08:23:00,49.3,39.9,29.92,WNW,301,0.0,0.0,70,0.00,,---,0.01,VWS V14.01,2013-03-06 16:23:00,
2013-03-06 08:24:00,49.3,39.6,29.92,WNW,301,0.0,0.0,69,0.00,,---,0.01,VWS V14.01,2013-03-06 16:24:00,
2013-03-06 08:25:00,49.2,39.5,29.92,WNW,300,0.0,0.0,69,0.00,,---,0.01,VWS V14.01,2013-03-06 16:25:00,
2013-03-06 08:26:00,49.1,39.8,29.92,WNW,300,0.0,0.0,70,0.00,,---,0.01,VWS V14.01,2013-03-06 16:26:00,
2013-03-06 08:27:00,49.1,39.4,29.92,WNW,300,0.0,0.0,69,0.00,,---,0.01,VWS V14.01,2013-03-06 16:27:00,
2013-03-06 08:28:00,49.0,39.3,29.92,WNW,300,0.0,0.0,69,0.00,,---,0.01,VWS V14.01,2013-03-06 16:28:00,
2013-03-06 08:29:00,49.0,39.7,29.92,WNW,300,0.0,0.0,70,0.00,,---,0.01,VWS V14.01,2013-03-06 16:29:00,
2013-03-06 08:30:00,48.9,39.6,29.92,WNW,300,0.0,0.0,70,0.00,,---,0.01,VWS V14.01,2013-03-06 16:30:00,
2013-03-06 08:31:00,48.9,39.6,29.92,WNW,300,0.0,0.0,70,0.00,,---,0.01,VWS V14.01,2013-03-06 16:31:00,
2013-03-06 08:32:00,48.8,39.8,29.92,WNW,300,0.0,0.0,71,0.00,,---,0.01,VWS V14.01,2013-03-06 16:32:00,
2013-03-06 08:33:00,48.8,39.8,29.92,WNW,301,0.0,0.0,71,0.00,,---,0.01,VWS V14.01,2013-03-06 16:33:00,
2013-03-06 08:34:00,48.7,39.4,29.92,WNW,300,0.0,0.0,70,0.00,,---,0.01,VWS V14.01,2013-03-06 16:34:00,
2013-03-06 08:35:00,48.7,39.7,29.92,WNW,300,0.0,0.0,71,0.00,,---,0.01,VWS V14.01,2013-03-06 16:35:00,
2013-03-06 08:36:00,48.6,39.6,29.92,WNW,300,0.0,0.0,71,0.00,,---,0.01,VWS V14.01,2013-03-06 16:36:00,
2013-03-06 08:37:00,48.6,39.3,29.92,WNW,301,0.0,0.0,70,0.00,,---,0.01,VWS V14.01,2013-03-06 16:37:00,
2013-03-06 08:38:00,48.5,39.2,29.92,WNW,300,0.0,0.0,70,0.00,,---,0.01,VWS V14.01,2013-03-06 16:38:00,
2013-03-06 08:39:00,48.4,39.1,29.92,WNW,300,0.0,0.0,70,0.00,,---,0.01,VWS V14.01,2013-03-06 16:39:00,
2013-03-06 08:40:00,48.3,39.0,29.92,WNW,300,0.0,0.0,70,0.00,,---,0.01,VWS V14.01,2013-03-06 16:40:00,
2013-03-06 08:41:00,48.2,38.5,29.92,WNW,300,0.0,0.0,69,0.00,,---,0.01,VWS V14.01,2013-03-06 16:41:00,
2013-03-06 08:42:00,48.1,38.4,29.92,WNW,300,0.0,0.0,69,0.00,,---,0.01,VWS V14.01,2013-03-06 16:42:00,
2013-03-06 08:43:00,48.1,38.4,29.92,WNW,300,0.0,0.0,69,0.00,,---,0.01,VWS V14.01,2013-03-06 16:43:00,
2013-03-06 08:44:00,48.0,38.7,29.92,WNW,301,0.0,0.0,70,0.00,,---,0.01,VWS V14.01,2013-03-06 16:44:00,
2013-03-06 08:45:00,47.9,38.2,29.92,WNW,302,0.0,0.0,69,0.00,,---,0.01,VWS V14.01,2013-03-06 16:45:00,
2013-03-06 08:46:00,47.9,38.2,29.92,WNW,301,0.0,0.0,69,0.00,,---,0.01,VWS V14.01,2013-03-06 16:46:00,
2013-03-06 08:47:00,47.8,38.5,29.92,WNW,301,0.0,0.0,70,0.00,,---,0.01,VWS V14.01,2013-03-06 16:47:00,
2013-03-06 08:48:00,47.8,38.1,29.92,WNW,301,0.0,0.0,69,0.00,,---,0.01,VWS V14.01,2013-03-06 16:48:00,
2013-03-06 08:49:00,47.8,37.8,29.92,WNW,301,0.0,0.0,68,0.00,,---,0.01,VWS V14.01,2013-03-06 16:49:00,
2013-03-06 08:50:00,47.8,38.1,29.92,WNW,301,0.0,0.0,69,0.00,,---,0.01,VWS V14.01,2013-03-06 16:50:00,
2013-03-06 08:51:00,47.7,38.0,29.92,WNW,301,0.0,0.0,69,0.00,,---,0.01,VWS V14.01,2013-03-06 16:51:00,
2013-03-06 08:52:00,47.8,38.5,29.92,WNW,300,0.0,0.0,70,0.00,,---,0.01,VWS V14.01,2013-03-06 16:52:00,
2013-03-06 08:53:00,47.8,38.9,29.92,WNW,300,0.0,0.0,71,0.00,,---,0.01,VWS V14.01,2013-03-06 16:53:00,
2013-03-06 08:54:00,47.8,38.9,29.92,WNW,300,0.0,0.0,71,0.00,,---,0.01,VWS V14.01,2013-03-06 16:54:00,
2013-03-06 08:55:00,47.8,38.9,29.92,WNW,300,0.0,0.0,71,0.00,,---,0.01,VWS V14.01,2013-03-06 16:55:00,
2013-03-06 08:56:00,47.8,39.2,29.92,WNW,300,0.0,0.0,72,0.00,,---,0.01,VWS V14.01,2013-03-06 16:56:00,
2013-03-06 08:57:00,47.8,39.2,29.92,WNW,301,0.0,0.0,72,0.00,,---,0.01,VWS V14.01,2013-03-06 16:57:00,
2013-03-06 08:58:00,47.8,39.2,29.92,WNW,301,0.0,0.0,72,0.00,,---,0.01,VWS V14.01,2013-03-06 16:58:00,
2013-03-06 08:59:00,47.8,39.2,29.92,WNW,301,0.0,0.0,72,0.00,,---,0.01,VWS V14.01,2013-03-06 16:59:00,
2013-03-06 09:00:00,47.8,39.2,29.92,WNW,301,0.0,0.0,72,0.00,,---,0.01,VWS V14.01,2013-03-06 17:00:00,
2013-03-06 09:01:00,47.8,39.6,29.92,WNW,301,0.0,0.0,73,0.00,,---,0.01,VWS V14.01,2013-03-06 17:01:00,
2013-03-06 09:02:00,47.7,39.5,29.92,WNW,301,0.0,0.0,73,0.00,,---,0.01,VWS V14.01,2013-03-06 17:02:00,
2013-03-06 09:03:00,47.7,39.5,29.92,WNW,300,0.0,0.0,73,0.00,,---,0.01,VWS V14.01,2013-03-06 17:03:00,
2013-03-06 09:04:00,47.7,39.5,29.92,WNW,301,0.0,0.0,73,0.00,,---,0.01,VWS V14.01,2013-03-06 17:04:00,
2013-03-06 09:05:00,47.6,39.7,29.92,WNW,300,0.0,0.0,74,0.00,,---,0.01,VWS V14.01,2013-03-06 17:05:00,
2013-03-06 09:06:00,47.6,39.4,29.92,WNW,300,0.0,0.0,73,0.00,,---,0.01,VWS V14.01,2013-03-06 17:06:00,
2013-03-06 09:07:00,47.6,39.0,29.92,WNW,301,0.0,0.0,72,0.00,,---,0.01,VWS V14.01,2013-03-06 17:07:00,
2013-03-06 09:08:00,47.5,39.3,29.92,WNW,301,0.0,0.0,73,0.00,,---,0.01,VWS V14.01,2013-03-06 17:08:00,
2013-03-06 09:09:00,47.5,39.3,29.92,WNW,300,0.0,0.0,73,0.00,,---,0.01,VWS V14.01,2013-03-06 17:09:00,
2013-03-06 09:10:00,47.5,39.3,29.92,WNW,301,0.0,0.0,73,0.00,,---,0.01,VWS V14.01,2013-03-06 17:10:00,
2013-03-06 09:11:00,47.4,39.2,29.92,WNW,300,0.0,0.0,73,0.00,,---,0.01,VWS V14.01,2013-03-06 17:11:00,
2013-03-06 09:12:00,47.4,39.2,29.92,WNW,300,0.0,0.0,73,0.00,,---,0.01,VWS V14.01,2013-03-06 17:12:00,
2013-03-06 09:13:00,47.3,39.5,29.92,WNW,300,0.0,0.0,74,0.00,,---,0.01,VWS V14.01,2013-03-06 17:13:00,
2013-03-06 09:14:00,47.3,39.5,29.92,WNW,301,0.0,0.0,74,0.00,,---,0.01,VWS V14.01,2013-03-06 17:14:00,
2013-03-06 09:15:00,47.2,39.7,29.92,WNW,301,0.0,0.0,75,0.00,,---,0.01,VWS V14.01,2013-03-06 17:15:00,
2013-03-06 09:16:00,47.2,39.7,29.92,WNW,300,0.0,0.0,75,0.00,,---,0.01,VWS V14.01,2013-03-06 17:16:00,
2013-03-06 09:17:00,47.1,39.6,29.92,WNW,301,0.0,0.0,75,0.00,,---,0.01,VWS V14.01,2013-03-06 17:17:00,
2013-03-06 09:18:00,47.1,39.6,29.92,WNW,301,0.0,0.0,75,0.00,,---,0.01,VWS V14.01,2013-03-06 17:18:00,
2013-03-06 09:19:00,47.0,39.5,29.92,WNW,300,0.0,0.0,75,0.00,,---,0.01,VWS V14.01,2013-03-06 17:19:00,
2013-03-06 09:20:00,47.0,39.5,29.92,WNW,301,0.0,0.0,75,0.00,,---,0.01,VWS V14.01,2013-03-06 17:20:00,
2013-03-06 09:21:00,46.9,39.4,29.92,WNW,300,0.0,0.0,75,0.00,,---,0.01,VWS V14.01,2013-03-06 17:21:00,
2013-03-06 09:22:00,46.9,39.4,29.92,WNW,300,0.0,0.0,75,0.00,,---,0.01,VWS V14.01,2013-03-06 17:22:00,
2013-03-06 09:23:00,46.8,39.3,29.92,WNW,300,0.0,0.0,75,0.00,,---,0.01,VWS V14.01,2013-03-06 17:23:00,
2013-03-06 09:24:00,46.8,39.3,29.92,WNW,300,0.0,0.0,75,0.00,,---,0.01,VWS V14.01,2013-03-06 17:24:00,
2013-03-06 09:25:00,46.7,39.2,29.92,WNW,300,0.0,0.0,75,0.00,,---,0.01,VWS V14.01,2013-03-06 17:25:00,
2013-03-06 09:26:00,46.7,39.2,29.91,WNW,301,0.0,0.0,75,0.00,,---,0.01,VWS V14.01,2013-03-06 17:26:00,
2013-03-06 09:27:00,46.7,39.2,29.91,WNW,301,0.0,0.0,75,0.00,,---,0.01,VWS V14.01,2013-03-06 17:27:00,
2013-03-06 09:28:00,46.6,39.1,29.91,WNW,301,0.0,0.0,75,0.00,,---,0.01,VWS V14.01,2013-03-06 17:28:00,
2013-03-06 09:29:00,46.6,39.1,29.91,WNW,301,0.0,0.0,75,0.00,,---,0.01,VWS V14.01,2013-03-06 17:29:00,
2013-03-06 09:30:00,46.6,39.1,29.91,WNW,301,0.0,0.0,75,0.00,,---,0.01,VWS V14.01,2013-03-06 17:30:00,
2013-03-06 09:31:00,46.6,39.1,29.91,WNW,301,0.0,0.0,75,0.00,,---,0.01,VWS V14.01,2013-03-06 17:31:00,
2013-03-06 09:32:00,46.6,39.1,29.91,WNW,300,0.0,0.0,75,0.00,,---,0.01,VWS V14.01,2013-03-06 17:32:00,
2013-03-06 09:33:00,46.5,39.0,29.91,WNW,300,0.0,0.0,75,0.00,,---,0.01,VWS V14.01,2013-03-06 17:33:00,
2013-03-06 09:34:00,46.5,39.0,29.91,WNW,300,0.0,0.0,75,0.00,,---,0.01,VWS V14.01,2013-03-06 17:34:00,
2013-03-06 09:35:00,46.5,39.0,29.91,WNW,300,0.0,0.0,75,0.00,,---,0.01,VWS V14.01,2013-03-06 17:35:00,
2013-03-06 09:36:00,46.4,38.9,29.91,WNW,300,0.0,0.0,75,0.00,,---,0.01,VWS V14.01,2013-03-06 17:36:00,
2013-03-06 09:37:00,46.4,38.9,29.91,WNW,300,0.0,0.0,75,0.00,,---,0.01,VWS V14.01,2013-03-06 17:37:00,
2013-03-06 09:38:00,46.4,38.9,29.91,WNW,300,0.0,0.0,75,0.00,,---,0.01,VWS V14.01,2013-03-06 17:38:00,
2013-03-06 09:39:00,46.3,38.8,29.91,WNW,301,0.0,0.0,75,0.00,,---,0.01,VWS V14.01,2013-03-06 17:39:00,
2013-03-06 09:40:00,46.3,38.8,29.91,WNW,301,0.0,0.0,75,0.00,,---,0.01,VWS V14.01,2013-03-06 17:40:00,
2013-03-06 09:41:00,46.3,39.2,29.91,WNW,300,0.0,0.0,76,0.00,,---,0.01,VWS V14.01,2013-03-06 17:41:00,
2013-03-06 09:42:00,46.2,38.7,29.91,WNW,300,0.0,0.0,75,0.00,,---,0.01,VWS V14.01,2013-03-06 17:42:00,
2013-03-06 09:43:00,46.2,38.7,29.91,WNW,301,0.0,0.0,75,0.00,,---,0.01,VWS V14.01,2013-03-06 17:43:00,
2013-03-06 09:44:00,46.2,39.1,29.91,WNW,301,0.0,0.0,76,0.00,,---,0.01,VWS V14.01,2013-03-06 17:44:00,
2013-03-06 09:45:00,46.2,39.1,29.91,WNW,300,0.0,0.0,76,0.00,,---,0.01,VWS V14.01,2013-03-06 17:45:00,
2013-03-06 09:46:00,46.1,39.0,29.91,WNW,301,0.0,0.0,76,0.00,,---,0.01,VWS V14.01,2013-03-06 17:46:00,
2013-03-06 09:47:00,46.1,39.0,29.91,WNW,300,0.0,0.0,76,0.00,,---,0.01,VWS V14.01,2013-03-06 17:47:00,
2013-03-06 09:48:00,46.1,39.0,29.91,WNW,300,0.0,0.0,76,0.00,,---,0.01,VWS V14.01,2013-03-06 17:48:00,
2013-03-06 09:49:00,46.0,38.9,29.91,WNW,300,0.0,0.0,76,0.00,,---,0.01,VWS V14.01,2013-03-06 17:49:00,
2013-03-06 09:50:00,46.0,38.9,29.91,WNW,300,0.0,0.0,76,0.00,,---,0.01,VWS V14.01,2013-03-06 17:50:00,
2013-03-06 09:51:00,46.0,38.9,29.91,WNW,300,0.0,0.0,76,0.00,,---,0.01,VWS V14.01,2013-03-06 17:51:00,
2013-03-06 09:52:00,46.0,38.9,29.91,WNW,300,0.0,0.0,76,0.00,,---,0.01,VWS V14.01,2013-03-06 17:52:00,
2013-03-06 09:53:00,46.0,38.9,29.91,WNW,300,0.0,0.0,76,0.00,,---,0.01,VWS V14.01,2013-03-06 17:53:00,
2013-03-06 09:54:00,45.9,39.1,29.91,WNW,300,0.0,0.0,77,0.00,,---,0.01,VWS V14.01,2013-03-06 17:54:00,
2013-03-06 09:55:00,45.9,39.1,29.91,WNW,301,0.0,0.0,77,0.00,,---,0.01,VWS V14.01,2013-03-06 17:55:00,
2013-03-06 09:56:00,45.9,39.1,29.91,WNW,300,0.0,0.0,77,0.00,,---,0.01,VWS V14.01,2013-03-06 17:56:00,
2013-03-06 09:57:00,45.9,39.1,29.91,WNW,300,0.0,0.0,77,0.00,,---,0.01,VWS V14.01,2013-03-06 17:57:00,
2013-03-06 09:58:00,45.8,39.0,29.91,WNW,301,0.0,0.0,77,0.00,,---,0.01,VWS V14.01,2013-03-06 17:58:00,
2013-03-06 09:59:00,45.8,39.0,29.91,WNW,300,0.0,0.0,77,0.00,,---,0.01,VWS V14.01,2013-03-06 17:59:00,
2013-03-06 10:00:00,45.7,38.9,29.91,WNW,300,0.0,0.0,77,0.00,,---,0.01,VWS V14.01,2013-03-06 18:00:00,
2013-03-06 10:01:00,45.7,39.2,29.91,WNW,301,0.0,0.0,78,0.00,,---,0.01,VWS V14.01,2013-03-06 18:01:00,
2013-03-06 10:02:00,45.7,39.2,29.91,WNW,301,0.0,0.0,78,0.00,,---,0.01,VWS V14.01,2013-03-06 18:02:00,
2013-03-06 10:03:00,45.7,39.2,29.91,WNW,301,0.0,0.0,78,0.00,,---,0.01,VWS V14.01,2013-03-06 18:03:00,
2013-03-06 10:04:00,45.6,39.2,29.91,WNW,300,0.0,0.0,78,0.00,,---,0.01,VWS V14.01,2013-03-06 18:04:00,
2013-03-06 10:05:00,45.6,39.2,29.91,WNW,300,0.0,0.0,78,0.00,,---,0.01,VWS V14.01,2013-03-06 18:05:00,
2013-03-06 10:06:00,45.6,39.2,29.91,WNW,300,0.0,0.0,78,0.00,,---,0.01,VWS V14.01,2013-03-06 18:06:00,
2013-03-06 10:07:00,45.6,39.5,29.91,WNW,300,0.0,0.0,79,0.00,,---,0.01,VWS V14.01,2013-03-06 18:07:00,
2013-03-06 10:08:00,45.5,39.0,29.92,WNW,300,0.0,0.0,78,0.00,,---,0.01,VWS V14.01,2013-03-06 18:08:00,
2013-03-06 10:09:00,45.5,39.0,29.92,WNW,300,0.0,0.0,78,0.00,,---,0.01,VWS V14.01,2013-03-06 18:09:00,
2013-03-06 10:10:00,45.5,39.0,29.92,WNW,301,0.0,0.0,78,0.00,,---,0.01,VWS V14.01,2013-03-06 18:10:00,
2013-03-06 10:11:00,45.4,39.0,29.92,WNW,300,0.0,0.0,78,0.00,,---,0.01,VWS V14.01,2013-03-06 18:11:00,
2013-03-06 10:12:00,45.4,39.0,29.92,WNW,300,0.0,0.0,78,0.00,,---,0.01,VWS V14.01,2013-03-06 18:12:00,
2013-03-06 10:13:00,45.3,38.9,29.92,WNW,302,0.0,0.0,78,0.00,,---,0.01,VWS V14.01,2013-03-06 18:13:00,
2013-03-06 10:14:00,45.3,38.9,29.92,WNW,300,0.0,0.0,78,0.00,,---,0.01,VWS V14.01,2013-03-06 18:14:00,
2013-03-06 10:15:00,45.3,38.9,29.92,WNW,301,0.0,0.0,78,0.00,,---,0.01,VWS V14.01,2013-03-06 18:15:00,
2013-03-06 10:16:00,45.2,39.1,29.92,WNW,300,0.0,0.0,79,0.00,,---,0.01,VWS V14.01,2013-03-06 18:16:00,
2013-03-06 10:17:00,45.2,39.1,29.91,WNW,300,0.0,0.0,79,0.00,,---,0.01,VWS V14.01,2013-03-06 18:17:00,
2013-03-06 10:18:00,45.2,39.1,29.91,WNW,300,0.0,0.0,79,0.00,,---,0.01,VWS V14.01,2013-03-06 18:18:00,
2013-03-06 10:19:00,45.2,39.4,29.92,WNW,301,0.0,0.0,80,0.00,,---,0.01,VWS V14.01,2013-03-06 18:19:00,
2013-03-06 10:20:00,45.1,39.0,29.92,WNW,301,0.0,0.0,79,0.00,,---,0.01,VWS V14.01,2013-03-06 18:20:00,
2013-03-06 10:21:00,45.1,39.0,29.92,WNW,300,0.0,0.0,79,0.00,,---,0.01,VWS V14.01,2013-03-06 18:21:00,
2013-03-06 10:22:00,45.1,39.0,29.91,WNW,300,0.0,0.0,79,0.00,,---,0.01,VWS V14.01,2013-03-06 18:22:00,
2013-03-06 10:23:00,45.1,39.0,29.91,WNW,300,0.0,0.0,79,0.00,,---,0.01,VWS V14.01,2013-03-06 18:23:00,
2013-03-06 10:24:00,45.0,38.9,29.91,WNW,301,0.0,0.0,79,0.00,,---,0.01,VWS V14.01,2013-03-06 18:24:00,
2013-03-06 10:25:00,45.0,38.9,29.91,WNW,300,0.0,0.0,79,0.00,,---,0.01,VWS V14.01,2013-03-06 18:25:00,
2013-03-06 10:26:00,45.0,38.9,29.91,WNW,300,0.0,0.0,79,0.00,,---,0.01,VWS V14.01,2013-03-06 18:26:00,
2013-03-06 10:27:00,44.9,38.8,29.91,WNW,301,0.0,0.0,79,0.00,,---,0.01,VWS V14.01,2013-03-06 18:27:00,
2013-03-06 10:28:00,44.9,38.8,29.91,WNW,300,0.0,0.0,79,0.00,,---,0.01,VWS V14.01,2013-03-06 18:28:00,
2013-03-06 10:29:00,44.9,39.1,29.91,WNW,300,0.0,0.0,80,0.00,,---,0.01,VWS V14.01,2013-03-06 18:29:00,
2013-03-06 10:30:00,44.9,39.1,29.91,WNW,301,0.0,0.0,80,0.00,,---,0.01,VWS V14.01,2013-03-06 18:30:00,
2013-03-06 10:31:00,44.8,39.0,29.91,WNW,301,0.0,0.0,80,0.00,,---,0.01,VWS V14.01,2013-03-06 18:31:00,
2013-03-06 10:32:00,44.8,39.0,29.91,WNW,301,0.0,0.0,80,0.00,,---,0.01,VWS V14.01,2013-03-06 18:32:00,
2013-03-06 10:33:00,44.8,39.0,29.91,WNW,301,0.0,0.0,80,0.00,,---,0.01,VWS V14.01,2013-03-06 18:33:00,
2013-03-06 10:34:00,44.7,39.2,29.92,WNW,301,0.0,0.0,81,0.00,,---,0.01,VWS V14.01,2013-03-06 18:34:00,
2013-03-06 10:35:00,44.7,39.2,29.92,WNW,300,0.0,0.0,81,0.00,,---,0.01,VWS V14.01,2013-03-06 18:35:00,
2013-03-06 10:36:00,44.7,38.9,29.92,WNW,301,0.0,0.0,80,0.00,,---,0.01,VWS V14.01,2013-03-06 18:36:00,
2013-03-06 10:37:00,44.7,38.9,29.92,WNW,301,0.0,0.0,80,0.00,,---,0.01,VWS V14.01,2013-03-06 18:37:00,
2013-03-06 10:38:00,44.7,39.2,29.92,WNW,301,0.0,0.0,81,0.00,,---,0.01,VWS V14.01,2013-03-06 18:38:00,
2013-03-06 10:39:00,44.6,39.1,29.92,WNW,301,0.0,0.0,81,0.00,,---,0.01,VWS V14.01,2013-03-06 18:39:00,
2013-03-06 10:40:00,44.6,39.1,29.92,WNW,300,0.0,0.0,81,0.00,,---,0.01,VWS V14.01,2013-03-06 18:40:00,
2013-03-06 10:41:00,44.6,39.1,29.92,WNW,300,0.0,0.0,81,0.00,,---,0.01,VWS V14.01,2013-03-06 18:41:00,
2013-03-06 10:42:00,44.6,39.1,29.92,WNW,301,0.0,0.0,81,0.00,,---,0.01,VWS V14.01,2013-03-06 18:42:00,
2013-03-06 10:43:00,44.6,39.5,29.92,WNW,300,0.0,0.0,82,0.00,,---,0.01,VWS V14.01,2013-03-06 18:43:00,
2013-03-06 10:44:00,44.6,39.1,29.92,WNW,301,0.0,0.0,81,0.00,,---,0.01,VWS V14.01,2013-03-06 18:44:00,
2013-03-06 10:45:00,44.6,39.5,29.92,WNW,302,0.0,0.0,82,0.00,,---,0.01,VWS V14.01,2013-03-06 18:45:00,
2013-03-06 10:46:00,44.6,39.5,29.92,WNW,301,0.0,0.0,82,0.00,,---,0.01,VWS V14.01,2013-03-06 18:46:00,
2013-03-06 10:47:00,44.5,39.4,29.92,WNW,300,0.0,0.0,82,0.00,,---,0.01,VWS V14.01,2013-03-06 18:47:00,
2013-03-06 10:48:00,44.5,39.4,29.92,WNW,301,0.0,0.0,82,0.00,,---,0.01,VWS V14.01,2013-03-06 18:48:00,
2013-03-06 10:49:00,44.5,39.4,29.92,WNW,301,0.0,0.0,82,0.00,,---,0.01,VWS V14.01,2013-03-06 18:49:00,
2013-03-06 10:50:00,44.5,39.4,29.92,WNW,300,0.0,0.0,82,0.00,,---,0.01,VWS V14.01,2013-03-06 18:50:00,
2013-03-06 10:51:00,44.5,39.4,29.92,WNW,300,0.0,0.0,82,0.00,,---,0.01,VWS V14.01,2013-03-06 18:51:00,
2013-03-06 10:52:00,44.4,39.3,29.92,WNW,301,0.0,0.0,82,0.00,,---,0.01,VWS V14.01,2013-03-06 18:52:00,
2013-03-06 10:53:00,44.4,39.3,29.92,WNW,300,0.0,0.0,82,0.00,,---,0.01,VWS V14.01,2013-03-06 18:53:00,
2013-03-06 10:54:00,44.4,39.3,29.92,WNW,300,0.0,0.0,82,0.00,,---,0.01,VWS V14.01,2013-03-06 18:54:00,
2013-03-06 10:55:00,44.4,39.6,29.92,WNW,300,0.0,0.0,83,0.00,,---,0.01,VWS V14.01,2013-03-06 18:55:00,
2013-03-06 10:56:00,44.3,39.5,29.92,WNW,301,0.0,0.0,83,0.00,,---,0.01,VWS V14.01,2013-03-06 18:56:00,
2013-03-06 10:57:00,44.3,39.5,29.92,WNW,300,0.0,0.0,83,0.00,,---,0.01,VWS V14.01,2013-03-06 18:57:00,
2013-03-06 10:58:00,44.3,39.2,29.92,WNW,300,0.0,0.0,82,0.00,,---,0.01,VWS V14.01,2013-03-06 18:58:00,
2013-03-06 10:59:00,44.3,39.2,29.92,WNW,301,0.0,0.0,82,0.00,,---,0.01,VWS V14.01,2013-03-06 18:59:00,
2013-03-06 11:00:00,44.3,39.5,29.92,WNW,300,0.0,0.0,83,0.00,,---,0.01,VWS V14.01,2013-03-06 19:00:00,
2013-03-06 11:01:00,44.3,39.5,29.92,WNW,300,0.0,0.0,83,0.00,,---,0.01,VWS V14.01,2013-03-06 19:01:00,
2013-03-06 11:02:00,44.3,39.5,29.92,WNW,300,0.0,0.0,83,0.00,,---,0.01,VWS V14.01,2013-03-06 19:02:00,
2013-03-06 11:03:00,44.3,39.5,29.92,WNW,300,0.0,0.0,83,0.00,,---,0.01,VWS V14.01,2013-03-06 19:03:00,
2013-03-06 11:04:00,44.2,39.4,29.92,WNW,301,0.0,0.0,83,0.00,,---,0.01,VWS V14.01,2013-03-06 19:04:00,
2013-03-06 11:05:00,44.2,39.4,29.92,WNW,301,0.0,0.0,83,0.00,,---,0.01,VWS V14.01,2013-03-06 19:05:00,
2013-03-06 11:06:00,44.2,39.4,29.92,WNW,301,0.0,0.0,83,0.00,,---,0.01,VWS V14.01,2013-03-06 19:06:00,
2013-03-06 11:07:00,44.2,39.4,29.92,WNW,301,0.0,0.0,83,0.00,,---,0.01,VWS V14.01,2013-03-06 19:07:00,
2013-03-06 11:08:00,44.2,39.4,29.92,WNW,300,0.0,0.0,83,0.00,,---,0.01,VWS V14.01,2013-03-06 19:08:00,
2013-03-06 11:09:00,44.2,39.4,29.92,WNW,301,0.0,0.0,83,0.00,,---,0.01,VWS V14.01,2013-03-06 19:09:00,
2013-03-06 11:10:00,44.2,39.4,29.92,WNW,300,0.0,0.0,83,0.00,,---,0.01,VWS V14.01,2013-03-06 19:10:00,
2013-03-06 11:11:00,44.2,39.4,29.92,WNW,300,0.0,0.0,83,0.00,,---,0.01,VWS V14.01,2013-03-06 19:11:00,
2013-03-06 11:12:00,44.2,39.4,29.92,WNW,300,0.0,0.0,83,0.00,,---,0.01,VWS V14.01,2013-03-06 19:12:00,
2013-03-06 11:13:00,44.2,39.4,29.92,WNW,301,0.0,0.0,83,0.00,,---,0.01,VWS V14.01,2013-03-06 19:13:00,
2013-03-06 11:14:00,44.2,39.4,29.92,WNW,301,0.0,0.0,83,0.00,,---,0.01,VWS V14.01,2013-03-06 19:14:00,
2013-03-06 11:15:00,44.2,39.4,29.92,WNW,300,0.0,0.0,83,0.00,,---,0.01,VWS V14.01,2013-03-06 19:15:00,
2013-03-06 11:16:00,44.2,39.4,29.92,WNW,300,0.0,0.0,83,0.00,,---,0.01,VWS V14.01,2013-03-06 19:16:00,
2013-03-06 11:17:00,44.2,39.4,29.92,NNE,28,0.0,0.0,83,0.00,,---,0.01,VWS V14.01,2013-03-06 19:17:00,
2013-03-06 11:18:00,44.2,39.4,29.92,NNE,30,0.0,0.0,83,0.00,,---,0.01,VWS V14.01,2013-03-06 19:18:00,
2013-03-06 11:19:00,44.3,39.5,29.92,NNE,30,0.0,0.0,83,0.00,,---,0.01,VWS V14.01,2013-03-06 19:19:00,
2013-03-06 11:20:00,44.2,39.4,29.92,NE,51,0.0,0.0,83,0.00,,---,0.01,VWS V14.01,2013-03-06 19:20:00,
2013-03-06 11:21:00,44.2,39.4,29.91,ENE,62,0.0,0.0,83,0.00,,---,0.01,VWS V14.01,2013-03-06 19:21:00,
2013-03-06 11:22:00,44.3,39.5,29.92,ENE,62,0.0,0.0,83,0.00,,---,0.01,VWS V14.01,2013-03-06 19:22:00,
2013-03-06 11:23:00,44.3,39.5,29.92,ENE,62,0.0,0.0,83,0.00,,---,0.01,VWS V14.01,2013-03-06 19:23:00,
2013-03-06 11:24:00,44.3,39.5,29.92,ENE,62,0.0,0.0,83,0.00,,---,0.01,VWS V14.01,2013-03-06 19:24:00,
2013-03-06 11:25:00,44.3,39.5,29.92,ENE,62,0.0,0.0,83,0.00,,---,0.01,VWS V14.01,2013-03-06 19:25:00,
2013-03-06 11:26:00,44.3,39.8,29.92,ENE,62,0.0,0.0,84,0.00,,---,0.01,VWS V14.01,2013-03-06 19:26:00,
2013-03-06 11:27:00,44.3,39.8,29.92,ENE,62,0.0,0.0,84,0.00,,---,0.01,VWS V14.01,2013-03-06 19:27:00,
2013-03-06 11:28:00,44.3,39.8,29.92,ENE,62,0.0,0.0,84,0.00,,---,0.01,VWS V14.01,2013-03-06 19:28:00,
2013-03-06 11:29:00,44.3,39.8,29.92,ENE,62,0.0,0.0,84,0.00,,---,0.01,VWS V14.01,2013-03-06 19:29:00,
2013-03-06 11:30:00,44.4,39.9,29.92,ENE,62,0.0,0.0,84,0.00,,---,0.01,VWS V14.01,2013-03-06 19:30:00,
2013-03-06 11:31:00,44.4,39.9,29.92,ENE,62,0.0,0.0,84,0.00,,---,0.01,VWS V14.01,2013-03-06 19:31:00,
2013-03-06 11:32:00,44.4,39.6,29.92,ENE,62,0.0,0.0,83,0.00,,---,0.01,VWS V14.01,2013-03-06 19:32:00,
2013-03-06 11:33:00,44.4,39.6,29.92,ENE,62,0.0,0.0,83,0.00,,---,0.01,VWS V14.01,2013-03-06 19:33:00,
2013-03-06 11:34:00,44.4,39.6,29.92,ENE,62,0.0,0.0,83,0.00,,---,0.01,VWS V14.01,2013-03-06 19:34:00,
2013-03-06 11:35:00,44.4,39.6,29.92,ENE,62,0.0,0.0,83,0.00,,---,0.01,VWS V14.01,2013-03-06 19:35:00,
2013-03-06 11:36:00,44.4,39.6,29.92,ENE,62,0.0,0.0,83,0.00,,---,0.01,VWS V14.01,2013-03-06 19:36:00,
2013-03-06 11:37:00,44.4,39.6,29.92,ENE,62,0.0,0.0,83,0.00,,---,0.01,VWS V14.01,2013-03-06 19:37:00,
2013-03-06 11:38:00,44.5,39.7,29.92,ENE,62,0.0,0.0,83,0.00,,---,0.01,VWS V14.01,2013-03-06 19:38:00,
2013-03-06 11:39:00,44.5,39.7,29.92,ENE,62,0.0,0.0,83,0.00,,---,0.01,VWS V14.01,2013-03-06 19:39:00,
2013-03-06 11:40:00,44.5,39.7,29.92,ENE,62,0.0,0.0,83,0.00,,---,0.01,VWS V14.01,2013-03-06 19:40:00,
2013-03-06 11:41:00,44.5,39.7,29.92,ENE,62,0.0,0.0,83,0.00,,---,0.01,VWS V14.01,2013-03-06 19:41:00,
2013-03-06 11:42:00,44.5,39.7,29.92,ENE,62,0.0,0.0,83,0.00,,---,0.01,VWS V14.01,2013-03-06 19:42:00,
2013-03-06 11:43:00,44.5,39.7,29.92,ENE,62,0.0,0.0,83,0.00,,---,0.01,VWS V14.01,2013-03-06 19:43:00,
2013-03-06 11:44:00,44.6,39.8,29.92,ENE,62,0.0,0.0,83,0.00,,---,0.01,VWS V14.01,2013-03-06 19:44:00,
2013-03-06 11:45:00,44.6,39.8,29.92,ENE,62,0.0,0.0,83,0.00,,---,0.01,VWS V14.01,2013-03-06 19:45:00,
2013-03-06 11:46:00,44.6,39.8,29.92,ENE,62,0.0,0.0,83,0.00,,---,0.01,VWS V14.01,2013-03-06 19:46:00,
2013-03-06 11:47:00,44.6,39.8,29.92,ENE,62,0.0,0.0,83,0.00,,---,0.01,VWS V14.01,2013-03-06 19:47:00,
2013-03-06 11:48:00,44.7,39.9,29.92,ENE,62,0.0,0.0,83,0.00,,---,0.01,VWS V14.01,2013-03-06 19:48:00,
2013-03-06 11:49:00,44.7,39.9,29.92,ENE,61,0.0,0.0,83,0.00,,---,0.01,VWS V14.01,2013-03-06 19:49:00,
2013-03-06 11:50:00,44.7,39.9,29.92,ENE,62,0.0,0.0,83,0.00,,---,0.01,VWS V14.01,2013-03-06 19:50:00,
2013-03-06 11:51:00,44.7,39.9,29.92,ENE,62,0.0,0.0,83,0.00,,---,0.01,VWS V14.01,2013-03-06 19:51:00,
2013-03-06 11:52:00,44.7,39.9,29.92,ENE,62,0.0,0.0,83,0.00,,---,0.01,VWS V14.01,2013-03-06 19:52:00,
2013-03-06 11:53:00,44.7,39.9,29.92,ENE,62,0.0,0.0,83,0.00,,---,0.01,VWS V14.01,2013-03-06 19:53:00,
2013-03-06 11:54:00,44.7,39.9,29.92,ENE,62,0.0,0.0,83,0.00,,---,0.01,VWS V14.01,2013-03-06 19:54:00,
2013-03-06 11:55:00,44.7,39.9,29.92,ENE,70,0.0,0.0,83,0.00,,---,0.01,VWS V14.01,2013-03-06 19:55:00,
2013-03-06 11:56:00,44.8,40.0,29.92,ENE,69,0.0,0.0,83,0.00,,---,0.01,VWS V14.01,2013-03-06 19:56:00,
2013-03-06 11:57:00,44.8,40.0,29.92,East,88,0.0,0.0,83,0.00,,---,0.01,VWS V14.01,2013-03-06 19:57:00,
2013-03-06 11:58:00,44.8,40.0,29.92,East,88,0.0,0.0,83,0.00,,---,0.01,VWS V14.01,2013-03-06 19:58:00,
2013-03-06 11:59:00,44.8,40.0,29.92,East,89,0.0,0.0,83,0.00,,---,0.01,VWS V14.01,2013-03-06 19:59:00,
2013-03-06 12:00:00,44.8,40.0,29.92,East,88,0.0,0.0,83,0.00,,---,0.01,VWS V14.01,2013-03-06 20:00:00,
2013-03-06 12:01:00,44.8,40.0,29.92,East,88,0.0,0.0,83,0.00,,---,0.01,VWS V14.01,2013-03-06 20:01:00,
2013-03-06 12:02:00,44.8,40.0,29.92,East,88,0.0,0.0,83,0.00,,---,0.01,VWS V14.01,2013-03-06 20:02:00,
2013-03-06 12:03:00,44.8,40.0,29.92,East,88,0.0,0.0,83,0.00,,---,0.01,VWS V14.01,2013-03-06 20:03:00,
2013-03-06 12:04:00,44.8,40.0,29.92,East,90,0.0,0.0,83,0.00,,---,0.01,VWS V14.01,2013-03-06 20:04:00,
2013-03-06 12:05:00,44.8,40.0,29.92,East,88,0.0,0.0,83,0.00,,---,0.01,VWS V14.01,2013-03-06 20:05:00,
2013-03-06 12:06:00,44.8,40.0,29.92,East,88,0.0,0.0,83,0.00,,---,0.01,VWS V14.01,2013-03-06 20:06:00,
2013-03-06 12:07:00,44.8,40.0,29.92,East,88,0.0,0.0,83,0.00,,---,0.01,VWS V14.01,2013-03-06 20:07:00,
2013-03-06 12:08:00,44.8,40.0,29.92,East,88,0.0,0.0,83,0.00,,---,0.01,VWS V14.01,2013-03-06 20:08:00,
2013-03-06 12:09:00,44.8,40.0,29.92,East,88,0.0,0.0,83,0.00,,---,0.01,VWS V14.01,2013-03-06 20:09:00,
2013-03-06 12:10:00,44.9,40.1,29.92,East,88,0.0,0.0,83,0.00,,---,0.01,VWS V14.01,2013-03-06 20:10:00,
2013-03-06 12:11:00,44.8,40.0,29.92,East,88,0.0,0.0,83,0.00,,---,0.01,VWS V14.01,2013-03-06 20:11:00,
2013-03-06 12:12:00,44.9,40.1,29.91,East,88,0.0,0.0,83,0.00,,---,0.01,VWS V14.01,2013-03-06 20:12:00,
2013-03-06 12:13:00,44.9,40.1,29.91,East,88,0.0,0.0,83,0.00,,---,0.01,VWS V14.01,2013-03-06 20:13:00,
2013-03-06 12:14:00,44.9,40.1,29.91,East,88,0.0,0.0,83,0.00,,---,0.01,VWS V14.01,2013-03-06 20:14:00,
2013-03-06 12:15:00,44.9,40.1,29.91,East,88,0.0,0.0,83,0.00,,---,0.01,VWS V14.01,2013-03-06 20:15:00,
2013-03-06 12:16:00,44.9,40.1,29.91,East,88,0.0,0.0,83,0.00,,---,0.01,VWS V14.01,2013-03-06 20:16:00,
2013-03-06 12:17:00,44.9,40.1,29.91,East,88,0.0,0.0,83,0.00,,---,0.01,VWS V14.01,2013-03-06 20:17:00,
2013-03-06 12:18:00,44.9,40.1,29.91,East,88,0.0,0.0,83,0.00,,---,0.01,VWS V14.01,2013-03-06 20:18:00,
2013-03-06 12:19:00,44.9,40.1,29.91,East,88,0.0,0.0,83,0.00,,---,0.01,VWS V14.01,2013-03-06 20:19:00,
2013-03-06 12:20:00,44.9,40.1,29.91,East,88,0.0,0.0,83,0.00,,---,0.01,VWS V14.01,2013-03-06 20:20:00,
2013-03-06 12:21:00,44.9,40.1,29.91,East,88,0.0,0.0,83,0.00,,---,0.01,VWS V14.01,2013-03-06 20:21:00,
2013-03-06 12:22:00,44.9,40.1,29.91,East,88,0.0,0.0,83,0.00,,---,0.01,VWS V14.01,2013-03-06 20:22:00,
2013-03-06 12:23:00,44.9,40.1,29.91,East,88,0.0,0.0,83,0.00,,---,0.01,VWS V14.01,2013-03-06 20:23:00,
2013-03-06 12:24:00,44.9,40.1,29.91,East,88,0.0,0.0,83,0.00,,---,0.01,VWS V14.01,2013-03-06 20:24:00,
2013-03-06 12:25:00,44.9,40.1,29.91,East,88,0.0,0.0,83,0.00,,---,0.01,VWS V14.01,2013-03-06 20:25:00,
2013-03-06 12:26:00,44.9,40.1,29.91,East,88,0.0,0.0,83,0.00,,---,0.01,VWS V14.01,2013-03-06 20:26:00,
2013-03-06 12:27:00,44.9,40.1,29.91,East,88,0.0,0.0,83,0.00,,---,0.01,VWS V14.01,2013-03-06 20:27:00,
2013-03-06 12:28:00,44.9,40.1,29.91,East,88,0.0,0.0,83,0.00,,---,0.01,VWS V14.01,2013-03-06 20:28:00,
2013-03-06 12:29:00,44.9,40.4,29.91,East,88,0.0,0.0,84,0.00,,---,0.01,VWS V14.01,2013-03-06 20:29:00,
2013-03-06 12:30:00,44.9,40.1,29.91,East,88,0.0,0.0,83,0.00,,---,0.01,VWS V14.01,2013-03-06 20:30:00,
2013-03-06 12:31:00,44.9,40.1,29.91,East,88,0.0,0.0,83,0.00,,---,0.01,VWS V14.01,2013-03-06 20:31:00,
2013-03-06 12:32:00,44.9,40.1,29.91,East,88,0.0,0.0,83,0.00,,---,0.01,VWS V14.01,2013-03-06 20:32:00,
2013-03-06 12:33:00,44.9,40.1,29.91,East,88,0.0,0.0,83,0.00,,---,0.01,VWS V14.01,2013-03-06 20:33:00,
2013-03-06 12:34:00,44.9,40.1,29.91,East,88,0.0,0.0,83,0.00,,---,0.01,VWS V14.01,2013-03-06 20:34:00,
2013-03-06 12:35:00,44.9,40.1,29.91,East,88,0.0,0.0,83,0.00,,---,0.01,VWS V14.01,2013-03-06 20:35:00,
2013-03-06 12:36:00,45.0,40.2,29.91,East,88,0.0,0.0,83,0.00,,---,0.01,VWS V14.01,2013-03-06 20:36:00,
2013-03-06 12:37:00,45.0,40.2,29.91,East,88,0.0,0.0,83,0.00,,---,0.01,VWS V14.01,2013-03-06 20:37:00,
2013-03-06 12:38:00,45.0,40.2,29.91,East,88,0.0,0.0,83,0.00,,---,0.01,VWS V14.01,2013-03-06 20:38:00,
2013-03-06 12:39:00,45.0,40.2,29.91,East,88,0.0,0.0,83,0.00,,---,0.01,VWS V14.01,2013-03-06 20:39:00,
2013-03-06 12:40:00,45.0,40.2,29.91,East,88,1.0,0.0,83,0.00,,---,0.01,VWS V14.01,2013-03-06 20:40:00,
2013-03-06 12:41:00,45.0,40.2,29.91,East,88,0.0,0.0,83,0.00,,---,0.01,VWS V14.01,2013-03-06 20:41:00,
2013-03-06 12:42:00,45.0,40.2,29.91,East,88,0.0,0.0,83,0.00,,---,0.01,VWS V14.01,2013-03-06 20:42:00,
2013-03-06 12:43:00,45.0,40.2,29.91,East,88,0.0,0.0,83,0.00,,---,0.01,VWS V14.01,2013-03-06 20:43:00,
2013-03-06 12:44:00,45.0,40.2,29.91,East,88,0.0,0.0,83,0.00,,---,0.01,VWS V14.01,2013-03-06 20:44:00,
2013-03-06 12:45:00,45.0,40.2,29.91,East,89,0.0,0.0,83,0.00,,---,0.01,VWS V14.01,2013-03-06 20:45:00,
2013-03-06 12:46:00,45.0,40.2,29.91,East,88,0.0,0.0,83,0.00,,---,0.01,VWS V14.01,2013-03-06 20:46:00,
2013-03-06 12:47:00,45.0,40.2,29.91,East,88,0.0,0.0,83,0.00,,---,0.01,VWS V14.01,2013-03-06 20:47:00,
2013-03-06 12:48:00,45.0,40.2,29.91,East,88,0.0,0.0,83,0.00,,---,0.01,VWS V14.01,2013-03-06 20:48:00,
2013-03-06 12:49:00,45.0,40.2,29.91,East,88,0.0,0.0,83,0.00,,---,0.01,VWS V14.01,2013-03-06 20:49:00,
2013-03-06 12:50:00,45.0,40.2,29.91,East,88,0.0,0.0,83,0.00,,---,0.01,VWS V14.01,2013-03-06 20:50:00,
2013-03-06 12:51:00,45.0,40.2,29.91,East,88,0.0,0.0,83,0.00,,---,0.01,VWS V14.01,2013-03-06 20:51:00,
2013-03-06 12:52:00,45.0,39.8,29.91,East,88,0.0,0.0,82,0.00,,---,0.01,VWS V14.01,2013-03-06 20:52:00,
2013-03-06 12:53:00,45.0,39.8,29.91,East,88,1.0,0.0,82,0.00,,---,0.01,VWS V14.01,2013-03-06 20:53:00,
2013-03-06 12:54:00,45.0,40.2,29.91,East,88,0.0,0.0,83,0.00,,---,0.01,VWS V14.01,2013-03-06 20:54:00,
2013-03-06 12:55:00,45.0,40.2,29.91,East,88,0.0,0.0,83,0.00,,---,0.01,VWS V14.01,2013-03-06 20:55:00,
2013-03-06 12:56:00,45.0,40.2,29.90,East,87,0.0,0.0,83,0.00,,---,0.01,VWS V14.01,2013-03-06 20:56:00,
2013-03-06 12:57:00,45.0,40.2,29.90,East,88,0.0,0.0,83,0.00,,---,0.01,VWS V14.01,2013-03-06 20:57:00,
2013-03-06 12:58:00,45.0,40.2,29.90,East,88,0.0,0.0,83,0.00,,---,0.01,VWS V14.01,2013-03-06 20:58:00,
2013-03-06 12:59:00,45.0,40.2,29.90,East,81,0.0,0.0,83,0.00,,---,0.01,VWS V14.01,2013-03-06 20:59:00,
2013-03-06 13:00:00,45.0,40.2,29.90,East,80,0.0,0.0,83,0.00,,---,0.01,VWS V14.01,2013-03-06 21:00:00,
2013-03-06 13:01:00,45.0,40.5,29.90,East,80,0.0,0.0,84,0.00,,---,0.01,VWS V14.01,2013-03-06 21:01:00,
2013-03-06 13:02:00,45.0,40.2,29.90,East,80,0.0,0.0,83,0.00,,---,0.01,VWS V14.01,2013-03-06 21:02:00,
2013-03-06 13:03:00,45.0,40.2,29.90,East,80,0.0,0.0,83,0.00,,---,0.01,VWS V14.01,2013-03-06 21:03:00,
2013-03-06 13:04:00,45.0,40.2,29.90,East,80,0.0,0.0,83,0.00,,---,0.01,VWS V14.01,2013-03-06 21:04:00,
2013-03-06 13:05:00,45.0,40.2,29.90,East,80,0.0,0.0,83,0.00,,---,0.01,VWS V14.01,2013-03-06 21:05:00,
2013-03-06 13:06:00,45.0,40.2,29.90,East,80,0.0,0.0,83,0.00,,---,0.01,VWS V14.01,2013-03-06 21:06:00,
2013-03-06 13:07:00,45.0,40.5,29.90,East,80,0.0,0.0,84,0.00,,---,0.01,VWS V14.01,2013-03-06 21:07:00,
2013-03-06 13:08:00,45.0,40.5,29.90,East,80,0.0,0.0,84,0.00,,---,0.01,VWS V14.01,2013-03-06 21:08:00,
2013-03-06 13:09:00,45.0,40.5,29.90,East,96,0.0,0.0,84,0.00,,---,0.01,VWS V14.01,2013-03-06 21:09:00,
2013-03-06 13:10:00,45.0,40.5,29.90,East,96,0.0,0.0,84,0.00,,---,0.01,VWS V14.01,2013-03-06 21:10:00,
2013-03-06 13:11:00,45.0,40.5,29.90,East,96,0.0,0.0,84,0.00,,---,0.01,VWS V14.01,2013-03-06 21:11:00,
2013-03-06 13:12:00,45.0,40.5,29.90,East,96,0.0,0.0,84,0.00,,---,0.01,VWS V14.01,2013-03-06 21:12:00,
2013-03-06 13:13:00,45.0,40.5,29.90,East,95,0.0,0.0,84,0.00,,---,0.01,VWS V14.01,2013-03-06 21:13:00,
2013-03-06 13:14:00,45.0,40.5,29.90,East,96,0.0,0.0,84,0.00,,---,0.01,VWS V14.01,2013-03-06 21:14:00,
2013-03-06 13:15:00,45.0,40.5,29.90,East,96,0.0,0.0,84,0.00,,---,0.01,VWS V14.01,2013-03-06 21:15:00,
2013-03-06 13:16:00,44.9,40.4,29.90,East,96,0.0,0.0,84,0.00,,---,0.01,VWS V14.01,2013-03-06 21:16:00,
2013-03-06 13:17:00,45.0,40.5,29.90,East,96,2.0,0.0,84,0.00,,---,0.01,VWS V14.01,2013-03-06 21:17:00,
2013-03-06 13:18:00,45.0,40.5,29.90,East,94,0.0,0.0,84,0.00,,---,0.01,VWS V14.01,2013-03-06 21:18:00,
2013-03-06 13:19:00,44.9,40.4,29.90,East,95,2.0,0.0,84,0.00,,---,0.01,VWS V14.01,2013-03-06 21:19:00,
2013-03-06 13:20:00,44.9,40.4,29.90,East,93,2.0,0.0,84,0.00,,---,0.01,VWS V14.01,2013-03-06 21:20:00,
2013-03-06 13:21:00,44.9,40.4,29.90,East,93,0.0,0.0,84,0.00,,---,0.01,VWS V14.01,2013-03-06 21:21:00,
2013-03-06 13:22:00,44.9,40.4,29.90,East,94,0.0,0.0,84,0.00,,---,0.01,VWS V14.01,2013-03-06 21:22:00,
2013-03-06 13:23:00,44.9,40.4,29.90,East,94,0.0,0.0,84,0.00,,---,0.01,VWS V14.01,2013-03-06 21:23:00,
2013-03-06 13:24:00,44.9,40.4,29.90,East,93,0.0,0.0,84,0.00,,---,0.01,VWS V14.01,2013-03-06 21:24:00,
2013-03-06 13:25:00,44.9,40.4,29.90,East,93,2.0,0.0,84,0.00,,---,0.01,VWS V14.01,2013-03-06 21:25:00,
2013-03-06 13:26:00,44.9,40.4,29.90,East,93,0.0,0.0,84,0.00,,---,0.01,VWS V14.01,2013-03-06 21:26:00,
2013-03-06 13:27:00,44.9,40.4,29.90,East,93,0.0,0.0,84,0.00,,---,0.01,VWS V14.01,2013-03-06 21:27:00,
2013-03-06 13:28:00,44.9,40.1,29.90,East,93,0.0,0.0,83,0.00,,---,0.01,VWS V14.01,2013-03-06 21:28:00,
2013-03-06 13:29:00,44.8,40.3,29.90,East,93,0.0,0.0,84,0.00,,---,0.01,VWS V14.01,2013-03-06 21:29:00,
2013-03-06 13:30:00,44.9,40.4,29.90,East,93,0.0,0.0,84,0.00,,---,0.01,VWS V14.01,2013-03-06 21:30:00,
2013-03-06 13:31:00,44.9,40.4,29.90,East,93,0.0,0.0,84,0.00,,---,0.01,VWS V14.01,2013-03-06 21:31:00,
2013-03-06 13:32:00,44.9,40.4,29.90,East,93,0.0,0.0,84,0.00,,---,0.01,VWS V14.01,2013-03-06 21:32:00,
2013-03-06 13:33:00,44.9,40.4,29.90,East,93,0.0,0.0,84,0.00,,---,0.01,VWS V14.01,2013-03-06 21:33:00,
2013-03-06 13:34:00,44.9,40.4,29.90,East,93,0.0,0.0,84,0.00,,---,0.01,VWS V14.01,2013-03-06 21:34:00,
2013-03-06 13:35:00,44.9,40.4,29.90,East,93,0.0,0.0,84,0.00,,---,0.01,VWS V14.01,2013-03-06 21:35:00,
2013-03-06 13:36:00,44.9,40.4,29.90,East,93,0.0,0.0,84,0.00,,---,0.01,VWS V14.01,2013-03-06 21:36:00,
2013-03-06 13:37:00,44.8,40.3,29.90,East,93,0.0,0.0,84,0.00,,---,0.01,VWS V14.01,2013-03-06 21:37:00,
2013-03-06 13:38:00,44.8,40.3,29.90,East,92,0.0,0.0,84,0.00,,---,0.01,VWS V14.01,2013-03-06 21:38:00,
2013-03-06 13:39:00,44.8,40.3,29.90,East,93,0.0,0.0,84,0.00,,---,0.01,VWS V14.01,2013-03-06 21:39:00,
2013-03-06 13:40:00,44.8,40.3,29.90,East,93,0.0,0.0,84,0.00,,---,0.01,VWS V14.01,2013-03-06 21:40:00,
2013-03-06 13:41:00,44.8,40.3,29.90,East,93,0.0,0.0,84,0.00,,---,0.01,VWS V14.01,2013-03-06 21:41:00,
2013-03-06 13:42:00,44.9,40.4,29.90,East,93,0.0,0.0,84,0.00,,---,0.01,VWS V14.01,2013-03-06 21:42:00,
2013-03-06 13:43:00,44.9,40.4,29.90,East,93,0.0,0.0,84,0.00,,---,0.01,VWS V14.01,2013-03-06 21:43:00,
2013-03-06 13:44:00,44.9,40.4,29.90,East,93,0.0,0.0,84,0.00,,---,0.01,VWS V14.01,2013-03-06 21:44:00,
2013-03-06 13:45:00,44.9,40.4,29.90,East,93,0.0,0.0,84,0.00,,---,0.01,VWS V14.01,2013-03-06 21:45:00,
2013-03-06 13:46:00,44.9,40.4,29.90,East,93,0.0,0.0,84,0.00,,---,0.01,VWS V14.01,2013-03-06 21:46:00,
2013-03-06 13:47:00,44.9,40.4,29.90,East,93,0.0,0.0,84,0.00,,---,0.01,VWS V14.01,2013-03-06 21:47:00,
2013-03-06 13:48:00,44.9,40.4,29.90,East,94,0.0,0.0,84,0.00,,---,0.01,VWS V14.01,2013-03-06 21:48:00,
2013-03-06 13:49:00,44.9,40.4,29.90,East,93,0.0,0.0,84,0.00,,---,0.01,VWS V14.01,2013-03-06 21:49:00,
2013-03-06 13:50:00,44.9,40.4,29.90,East,93,0.0,0.0,84,0.00,,---,0.01,VWS V14.01,2013-03-06 21:50:00,
2013-03-06 13:51:00,44.9,40.4,29.90,East,93,0.0,0.0,84,0.00,,---,0.01,VWS V14.01,2013-03-06 21:51:00,
2013-03-06 13:52:00,44.9,40.4,29.90,East,93,0.0,0.0,84,0.00,,---,0.01,VWS V14.01,2013-03-06 21:52:00,
2013-03-06 13:53:00,44.9,40.4,29.90,East,93,0.0,0.0,84,0.00,,---,0.01,VWS V14.01,2013-03-06 21:53:00,
2013-03-06 13:54:00,44.9,40.4,29.90,East,93,0.0,0.0,84,0.00,,---,0.01,VWS V14.01,2013-03-06 21:54:00,
2013-03-06 13:55:00,44.9,40.4,29.90,East,93,0.0,0.0,84,0.00,,---,0.01,VWS V14.01,2013-03-06 21:55:00,
2013-03-06 13:56:00,45.0,40.5,29.90,East,93,0.0,0.0,84,0.00,,---,0.01,VWS V14.01,2013-03-06 21:56:00,
2013-03-06 13:57:00,45.0,40.5,29.90,East,93,0.0,0.0,84,0.00,,---,0.01,VWS V14.01,2013-03-06 21:57:00,
2013-03-06 13:58:00,45.0,40.5,29.90,East,93,0.0,0.0,84,0.00,,---,0.01,VWS V14.01,2013-03-06 21:58:00,
2013-03-06 13:59:00,45.0,40.5,29.90,East,93,0.0,0.0,84,0.00,,---,0.01,VWS V14.01,2013-03-06 21:59:00,
2013-03-06 14:00:00,45.0,40.5,29.90,East,93,0.0,0.0,84,0.00,,---,0.01,VWS V14.01,2013-03-06 22:00:00,
2013-03-06 14:01:00,45.0,40.5,29.90,East,93,0.0,0.0,84,0.00,,---,0.01,VWS V14.01,2013-03-06 22:01:00,
2013-03-06 14:02:00,45.0,40.5,29.90,East,93,0.0,0.0,84,0.00,,---,0.01,VWS V14.01,2013-03-06 22:02:00,
2013-03-06 14:03:00,45.0,40.5,29.90,East,93,0.0,0.0,84,0.00,,---,0.01,VWS V14.01,2013-03-06 22:03:00,
2013-03-06 14:04:00,45.0,40.5,29.90,East,93,0.0,0.0,84,0.00,,---,0.01,VWS V14.01,2013-03-06 22:04:00,
2013-03-06 14:05:00,45.0,40.5,29.90,East,94,0.0,0.0,84,0.00,,---,0.01,VWS V14.01,2013-03-06 22:05:00,
2013-03-06 14:06:00,45.0,40.5,29.90,East,93,0.0,0.0,84,0.00,,---,0.01,VWS V14.01,2013-03-06 22:06:00,
2013-03-06 14:07:00,45.0,40.5,29.90,East,93,0.0,0.0,84,0.00,,---,0.01,VWS V14.01,2013-03-06 22:07:00,
2013-03-06 14:08:00,45.1,40.6,29.90,East,93,0.0,0.0,84,0.00,,---,0.01,VWS V14.01,2013-03-06 22:08:00,
2013-03-06 14:09:00,45.0,40.5,29.90,East,93,0.0,0.0,84,0.00,,---,0.01,VWS V14.01,2013-03-06 22:09:00,
2013-03-06 14:10:00,45.0,40.5,29.90,East,93,0.0,0.0,84,0.00,,---,0.01,VWS V14.01,2013-03-06 22:10:00,
2013-03-06 14:11:00,45.1,40.6,29.90,East,93,0.0,0.0,84,0.00,,---,0.01,VWS V14.01,2013-03-06 22:11:00,
2013-03-06 14:12:00,45.0,40.5,29.90,East,93,0.0,0.0,84,0.00,,---,0.01,VWS V14.01,2013-03-06 22:12:00,
2013-03-06 14:13:00,45.0,40.5,29.90,East,93,0.0,0.0,84,0.00,,---,0.01,VWS V14.01,2013-03-06 22:13:00,
2013-03-06 14:14:00,45.1,40.6,29.90,East,93,0.0,0.0,84,0.00,,---,0.01,VWS V14.01,2013-03-06 22:14:00,
2013-03-06 14:15:00,45.0,40.2,29.90,East,93,0.0,0.0,83,0.00,,---,0.01,VWS V14.01,2013-03-06 22:15:00,
2013-03-06 14:16:00,45.0,40.5,29.90,East,93,0.0,0.0,84,0.00,,---,0.01,VWS V14.01,2013-03-06 22:16:00,
2013-03-06 14:17:00,45.0,40.5,29.90,East,93,0.0,0.0,84,0.00,,---,0.01,VWS V14.01,2013-03-06 22:17:00,
2013-03-06 14:18:00,45.0,40.5,29.90,East,93,0.0,0.0,84,0.00,,---,0.01,VWS V14.01,2013-03-06 22:18:00,
2013-03-06 14:19:00,45.0,40.5,29.90,East,93,0.0,0.0,84,0.00,,---,0.01,VWS V14.01,2013-03-06 22:19:00,
2013-03-06 14:20:00,45.0,40.5,29.90,East,93,0.0,0.0,84,0.00,,---,0.01,VWS V14.01,2013-03-06 22:20:00,
2013-03-06 14:21:00,45.0,40.5,29.90,East,93,0.0,0.0,84,0.00,,---,0.01,VWS V14.01,2013-03-06 22:21:00,
2013-03-06 14:22:00,45.0,40.5,29.90,East,93,0.0,0.0,84,0.00,,---,0.01,VWS V14.01,2013-03-06 22:22:00,
2013-03-06 14:23:00,45.1,40.6,29.90,East,93,0.0,0.0,84,0.00,,---,0.01,VWS V14.01,2013-03-06 22:23:00,
2013-03-06 14:24:00,45.0,40.5,29.90,East,93,0.0,0.0,84,0.00,,---,0.01,VWS V14.01,2013-03-06 22:24:00,
2013-03-06 14:25:00,45.0,40.5,29.90,East,93,0.0,0.0,84,0.00,,---,0.01,VWS V14.01,2013-03-06 22:25:00,
2013-03-06 14:26:00,45.0,40.5,29.90,East,94,0.0,0.0,84,0.00,,---,0.01,VWS V14.01,2013-03-06 22:26:00,
2013-03-06 14:27:00,45.0,40.5,29.90,East,93,0.0,0.0,84,0.00,,---,0.01,VWS V14.01,2013-03-06 22:27:00,
2013-03-06 14:28:00,45.0,40.5,29.90,East,93,0.0,0.0,84,0.00,,---,0.01,VWS V14.01,2013-03-06 22:28:00,
2013-03-06 14:29:00,45.0,40.5,29.90,East,93,0.0,0.0,84,0.00,,---,0.01,VWS V14.01,2013-03-06 22:29:00,
2013-03-06 14:30:00,45.0,40.5,29.90,East,93,0.0,0.0,84,0.00,,---,0.01,VWS V14.01,2013-03-06 22:30:00,
2013-03-06 14:31:00,45.0,40.5,29.90,East,93,0.0,0.0,84,0.00,,---,0.01,VWS V14.01,2013-03-06 22:31:00,
2013-03-06 14:32:00,45.0,40.5,29.90,East,93,0.0,0.0,84,0.00,,---,0.01,VWS V14.01,2013-03-06 22:32:00,
2013-03-06 14:33:00,45.0,40.5,29.90,East,93,0.0,0.0,84,0.00,,---,0.01,VWS V14.01,2013-03-06 22:33:00,
2013-03-06 14:34:00,45.0,40.5,29.90,East,93,0.0,0.0,84,0.00,,---,0.01,VWS V14.01,2013-03-06 22:34:00,
2013-03-06 14:35:00,45.0,40.5,29.90,East,93,0.0,0.0,84,0.00,,---,0.01,VWS V14.01,2013-03-06 22:35:00,
2013-03-06 14:36:00,44.9,40.4,29.90,East,93,0.0,0.0,84,0.00,,---,0.01,VWS V14.01,2013-03-06 22:36:00,
2013-03-06 14:37:00,44.9,40.7,29.90,East,93,0.0,0.0,85,0.00,,---,0.01,VWS V14.01,2013-03-06 22:37:00,
2013-03-06 14:38:00,44.9,40.7,29.90,East,93,0.0,0.0,85,0.00,,---,0.01,VWS V14.01,2013-03-06 22:38:00,
2013-03-06 14:39:00,44.9,40.4,29.90,East,93,0.0,0.0,84,0.00,,---,0.01,VWS V14.01,2013-03-06 22:39:00,
2013-03-06 14:40:00,44.9,40.7,29.90,East,92,0.0,0.0,85,0.00,,---,0.01,VWS V14.01,2013-03-06 22:40:00,
2013-03-06 14:41:00,44.8,40.3,29.90,East,93,0.0,0.0,84,0.00,,---,0.01,VWS V14.01,2013-03-06 22:41:00,
2013-03-06 14:42:00,44.8,40.6,29.90,East,93,0.0,0.0,85,0.00,,---,0.01,VWS V14.01,2013-03-06 22:42:00,
2013-03-06 14:43:00,44.8,40.3,29.90,East,93,0.0,0.0,84,0.00,,---,0.01,VWS V14.01,2013-03-06 22:43:00,
2013-03-06 14:44:00,44.8,40.3,29.90,East,93,0.0,0.0,84,0.00,,---,0.01,VWS V14.01,2013-03-06 22:44:00,
2013-03-06 14:45:00,44.8,40.3,29.90,East,93,0.0,0.0,84,0.00,,---,0.01,VWS V14.01,2013-03-06 22:45:00,
2013-03-06 14:46:00,44.7,40.2,29.90,East,93,0.0,0.0,84,0.00,,---,0.01,VWS V14.01,2013-03-06 22:46:00,
2013-03-06 14:47:00,44.7,40.5,29.90,East,93,0.0,0.0,85,0.00,,---,0.01,VWS V14.01,2013-03-06 22:47:00,
2013-03-06 14:48:00,44.7,40.5,29.90,East,93,0.0,0.0,85,0.00,,---,0.01,VWS V14.01,2013-03-06 22:48:00,
2013-03-06 14:49:00,44.7,40.5,29.90,East,93,0.0,0.0,85,0.00,,---,0.01,VWS V14.01,2013-03-06 22:49:00,
2013-03-06 14:50:00,44.7,40.5,29.90,East,93,0.0,0.0,85,0.00,,---,0.01,VWS V14.01,2013-03-06 22:50:00,
2013-03-06 14:51:00,44.6,40.4,29.90,East,93,0.0,0.0,85,0.00,,---,0.01,VWS V14.01,2013-03-06 22:51:00,
2013-03-06 14:52:00,44.6,40.4,29.90,East,93,0.0,0.0,85,0.00,,---,0.01,VWS V14.01,2013-03-06 22:52:00,
2013-03-06 14:53:00,44.6,40.4,29.90,East,93,0.0,0.0,85,0.00,,---,0.01,VWS V14.01,2013-03-06 22:53:00,
2013-03-06 14:54:00,44.6,40.1,29.90,East,93,0.0,0.0,84,0.00,,---,0.01,VWS V14.01,2013-03-06 22:54:00,
2013-03-06 14:55:00,44.5,40.0,29.90,East,93,0.0,0.0,84,0.00,,---,0.01,VWS V14.01,2013-03-06 22:55:00,
2013-03-06 14:56:00,44.5,40.0,29.90,East,93,0.0,0.0,84,0.00,,---,0.01,VWS V14.01,2013-03-06 22:56:00,
2013-03-06 14:57:00,44.5,40.0,29.90,East,93,0.0,0.0,84,0.00,,---,0.01,VWS V14.01,2013-03-06 22:57:00,
2013-03-06 14:58:00,44.5,40.0,29.90,East,93,0.0,0.0,84,0.00,,---,0.01,VWS V14.01,2013-03-06 22:58:00,
2013-03-06 14:59:00,44.4,40.2,29.90,East,93,0.0,0.0,85,0.00,,---,0.01,VWS V14.01,2013-03-06 22:59:00,
2013-03-06 15:00:00,44.4,40.2,29.90,East,93,0.0,0.0,85,0.00,,---,0.01,VWS V14.01,2013-03-06 23:00:00,
2013-03-06 15:01:00,44.4,40.2,29.90,East,93,0.0,0.0,85,0.00,,---,0.01,VWS V14.01,2013-03-06 23:01:00,
2013-03-06 15:02:00,44.3,40.1,29.90,East,93,0.0,0.0,85,0.00,,---,0.01,VWS V14.01,2013-03-06 23:02:00,
2013-03-06 15:03:00,44.3,40.1,29.90,East,93,0.0,0.0,85,0.00,,---,0.01,VWS V14.01,2013-03-06 23:03:00,
2013-03-06 15:04:00,44.3,40.1,29.90,East,93,0.0,0.0,85,0.00,,---,0.01,VWS V14.01,2013-03-06 23:04:00,
2013-03-06 15:05:00,44.3,40.1,29.90,East,93,0.0,0.0,85,0.00,,---,0.01,VWS V14.01,2013-03-06 23:05:00,
2013-03-06 15:06:00,44.3,40.1,29.89,East,93,0.0,0.0,85,0.00,,---,0.01,VWS V14.01,2013-03-06 23:06:00,
2013-03-06 15:07:00,44.3,40.4,29.89,East,93,0.0,0.0,86,0.00,,---,0.01,VWS V14.01,2013-03-06 23:07:00,
2013-03-06 15:08:00,44.2,40.3,29.89,East,93,0.0,0.0,86,0.00,,---,0.01,VWS V14.01,2013-03-06 23:08:00,
2013-03-06 15:09:00,44.2,40.0,29.89,East,93,0.0,0.0,85,0.00,,---,0.01,VWS V14.01,2013-03-06 23:09:00,
2013-03-06 15:10:00,44.2,40.3,29.89,East,93,0.0,0.0,86,0.00,,---,0.01,VWS V14.01,2013-03-06 23:10:00,
2013-03-06 15:11:00,44.2,40.0,29.89,East,93,0.0,0.0,85,0.00,,---,0.01,VWS V14.01,2013-03-06 23:11:00,
2013-03-06 15:12:00,44.2,40.0,29.89,East,93,0.0,0.0,85,0.00,,---,0.01,VWS V14.01,2013-03-06 23:12:00,
2013-03-06 15:13:00,44.2,40.0,29.89,East,93,0.0,0.0,85,0.00,,---,0.01,VWS V14.01,2013-03-06 23:13:00,
2013-03-06 15:14:00,44.2,40.0,29.89,East,94,0.0,0.0,85,0.00,,---,0.01,VWS V14.01,2013-03-06 23:14:00,
2013-03-06 15:15:00,44.2,40.0,29.89,East,92,0.0,0.0,85,0.00,,---,0.01,VWS V14.01,2013-03-06 23:15:00,
2013-03-06 15:16:00,44.1,39.9,29.89,East,93,0.0,0.0,85,0.00,,---,0.01,VWS V14.01,2013-03-06 23:16:00,
2013-03-06 15:17:00,44.1,39.9,29.89,East,93,0.0,0.0,85,0.00,,---,0.01,VWS V14.01,2013-03-06 23:17:00,
2013-03-06 15:18:00,44.1,39.9,29.89,East,93,0.0,0.0,85,0.00,,---,0.01,VWS V14.01,2013-03-06 23:18:00,
2013-03-06 15:19:00,44.1,39.9,29.89,East,93,0.0,0.0,85,0.00,,---,0.01,VWS V14.01,2013-03-06 23:19:00,
2013-03-06 15:20:00,44.0,39.8,29.89,East,93,0.0,0.0,85,0.00,,---,0.01,VWS V14.01,2013-03-06 23:20:00,
2013-03-06 15:21:00,44.0,39.8,29.89,East,93,0.0,0.0,85,0.00,,---,0.01,VWS V14.01,2013-03-06 23:21:00,
2013-03-06 15:22:00,44.0,39.8,29.89,East,93,0.0,0.0,85,0.00,,---,0.01,VWS V14.01,2013-03-06 23:22:00,
2013-03-06 15:23:00,43.9,39.7,29.89,East,93,0.0,0.0,85,0.00,,---,0.01,VWS V14.01,2013-03-06 23:23:00,
2013-03-06 15:24:00,43.9,39.7,29.89,East,93,0.0,0.0,85,0.00,,---,0.01,VWS V14.01,2013-03-06 23:24:00,
2013-03-06 15:25:00,43.8,39.6,29.89,East,93,0.0,0.0,85,0.00,,---,0.01,VWS V14.01,2013-03-06 23:25:00,
2013-03-06 15:26:00,43.8,39.6,29.89,East,93,0.0,0.0,85,0.00,,---,0.01,VWS V14.01,2013-03-06 23:26:00,
2013-03-06 15:27:00,43.7,39.5,29.89,ESE,114,1.0,0.0,85,0.00,,---,0.01,VWS V14.01,2013-03-06 23:27:00,
2013-03-06 15:28:00,43.7,39.5,29.89,ESE,114,0.0,0.0,85,0.00,,---,0.01,VWS V14.01,2013-03-06 23:28:00,
2013-03-06 15:29:00,43.7,39.8,29.89,ESE,114,0.0,0.0,86,0.00,,---,0.01,VWS V14.01,2013-03-06 23:29:00,
2013-03-06 15:30:00,43.6,39.7,29.89,ESE,114,0.0,0.0,86,0.00,,---,0.01,VWS V14.01,2013-03-06 23:30:00,
2013-03-06 15:31:00,43.6,39.7,29.89,ESE,114,0.0,0.0,86,0.00,,---,0.01,VWS V14.01,2013-03-06 23:31:00,
2013-03-06 15:32:00,43.6,39.4,29.89,ESE,114,0.0,0.0,85,0.00,,---,0.01,VWS V14.01,2013-03-06 23:32:00,
2013-03-06 15:33:00,43.5,39.3,29.89,ESE,114,0.0,0.0,85,0.00,,---,0.01,VWS V14.01,2013-03-06 23:33:00,
2013-03-06 15:34:00,43.4,39.2,29.89,ESE,114,0.0,0.0,85,0.00,,---,0.01,VWS V14.01,2013-03-06 23:34:00,
2013-03-06 15:35:00,43.4,39.5,29.89,ESE,114,0.0,0.0,86,0.00,,---,0.01,VWS V14.01,2013-03-06 23:35:00,
2013-03-06 15:36:00,43.4,39.5,29.89,ESE,114,0.0,0.0,86,0.00,,---,0.01,VWS V14.01,2013-03-06 23:36:00,
2013-03-06 15:37:00,43.3,39.4,29.89,ESE,114,0.0,0.0,86,0.00,,---,0.01,VWS V14.01,2013-03-06 23:37:00,
2013-03-06 15:38:00,43.3,39.4,29.89,ESE,114,0.0,0.0,86,0.00,,---,0.01,VWS V14.01,2013-03-06 23:38:00,
2013-03-06 15:39:00,43.2,39.3,29.89,ESE,114,0.0,0.0,86,0.00,,---,0.01,VWS V14.01,2013-03-06 23:39:00,
2013-03-06 15:40:00,43.2,39.3,29.89,ESE,114,0.0,0.0,86,0.00,,---,0.01,VWS V14.01,2013-03-06 23:40:00,
2013-03-06 15:41:00,43.1,39.2,29.89,ESE,114,0.0,0.0,86,0.00,,---,0.01,VWS V14.01,2013-03-06 23:41:00,
2013-03-06 15:42:00,43.1,39.2,29.89,ESE,114,0.0,0.0,86,0.00,,---,0.01,VWS V14.01,2013-03-06 23:42:00,
2013-03-06 15:43:00,43.1,39.2,29.89,ESE,114,0.0,0.0,86,0.00,,---,0.01,VWS V14.01,2013-03-06 23:43:00,
2013-03-06 15:44:00,43.0,39.1,29.89,ESE,114,0.0,0.0,86,0.00,,---,0.01,VWS V14.01,2013-03-06 23:44:00,
2013-03-06 15:45:00,43.0,39.1,29.89,ESE,114,0.0,0.0,86,0.00,,---,0.01,VWS V14.01,2013-03-06 23:45:00,
2013-03-06 15:46:00,42.9,39.0,29.89,ESE,115,0.0,0.0,86,0.00,,---,0.01,VWS V14.01,2013-03-06 23:46:00,
2013-03-06 15:47:00,42.8,38.9,29.89,ESE,114,0.0,0.0,86,0.00,,---,0.01,VWS V14.01,2013-03-06 23:47:00,
2013-03-06 15:48:00,42.8,38.9,29.89,ESE,115,0.0,0.0,86,0.00,,---,0.01,VWS V14.01,2013-03-06 23:48:00,
2013-03-06 15:49:00,42.8,38.9,29.89,ESE,114,0.0,0.0,86,0.00,,---,0.01,VWS V14.01,2013-03-06 23:49:00,
2013-03-06 15:50:00,42.7,39.1,29.88,ESE,114,0.0,0.0,87,0.00,,---,0.01,VWS V14.01,2013-03-06 23:50:00,
2013-03-06 15:51:00,42.7,39.1,29.88,ESE,114,0.0,0.0,87,0.00,,---,0.01,VWS V14.01,2013-03-06 23:51:00,
2013-03-06 15:52:00,42.7,39.1,29.88,ESE,114,0.0,0.0,87,0.00,,---,0.01,VWS V14.01,2013-03-06 23:52:00,
2013-03-06 15:53:00,42.7,39.1,29.88,ESE,114,0.0,0.0,87,0.00,,---,0.01,VWS V14.01,2013-03-06 23:53:00,
2013-03-06 15:54:00,42.6,38.7,29.88,ESE,114,0.0,0.0,86,0.00,,---,0.01,VWS V14.01,2013-03-06 23:54:00,
2013-03-06 15:55:00,42.5,38.6,29.88,ESE,114,0.0,0.0,86,0.00,,---,0.01,VWS V14.01,2013-03-06 23:55:00,
2013-03-06 15:56:00,42.5,38.9,29.88,ESE,114,0.0,0.0,87,0.00,,---,0.01,VWS V14.01,2013-03-06 23:56:00,
2013-03-06 15:57:00,42.5,38.9,29.88,ESE,114,0.0,0.0,87,0.00,,---,0.01,VWS V14.01,2013-03-06 23:57:00,
2013-03-06 15:58:00,42.4,38.8,29.88,ESE,114,0.0,0.0,87,0.00,,---,0.01,VWS V14.01,2013-03-06 23:58:00,
2013-03-06 15:59:00,42.4,38.8,29.88,ESE,114,0.0,0.0,87,0.00,,---,0.01,VWS V14.01,2013-03-06 23:59:00,
2013-03-06 16:00:00,42.4,38.8,29.88,ESE,114,0.0,0.0,87,0.00,,---,0.01,VWS V14.01,2013-03-07 00:00:00,
2013-03-06 16:01:00,42.3,38.7,29.88,ESE,114,0.0,0.0,87,0.00,,---,0.01,VWS V14.01,2013-03-07 00:01:00,
2013-03-06 16:02:00,42.3,38.7,29.88,ESE,115,0.0,0.0,87,0.00,,---,0.01,VWS V14.01,2013-03-07 00:02:00,
2013-03-06 16:03:00,42.3,38.7,29.88,ESE,114,0.0,0.0,87,0.00,,---,0.01,VWS V14.01,2013-03-07 00:03:00,
2013-03-06 16:04:00,42.2,38.6,29.88,ESE,115,0.0,0.0,87,0.00,,---,0.01,VWS V14.01,2013-03-07 00:04:00,
2013-03-06 16:05:00,42.2,38.6,29.88,ESE,114,0.0,0.0,87,0.00,,---,0.01,VWS V14.01,2013-03-07 00:05:00,
2013-03-06 16:06:00,42.2,38.9,29.88,ESE,114,0.0,0.0,88,0.00,,---,0.01,VWS V14.01,2013-03-07 00:06:00,
2013-03-06 16:07:00,42.1,38.8,29.88,ESE,114,0.0,0.0,88,0.00,,---,0.01,VWS V14.01,2013-03-07 00:07:00,
2013-03-06 16:08:00,42.1,38.8,29.88,ESE,114,0.0,0.0,88,0.00,,---,0.01,VWS V14.01,2013-03-07 00:08:00,
2013-03-06 16:09:00,42.1,38.8,29.88,ESE,114,0.0,0.0,88,0.00,,---,0.01,VWS V14.01,2013-03-07 00:09:00,
2013-03-06 16:10:00,42.1,38.8,29.88,ESE,114,0.0,0.0,88,0.00,,---,0.01,VWS V14.01,2013-03-07 00:10:00,
2013-03-06 16:11:00,42.1,38.8,29.88,ESE,114,0.0,0.0,88,0.00,,---,0.01,VWS V14.01,2013-03-07 00:11:00,
2013-03-06 16:12:00,42.0,38.7,29.88,ESE,114,0.0,0.0,88,0.00,,---,0.01,VWS V14.01,2013-03-07 00:12:00,
2013-03-06 16:13:00,42.0,38.7,29.88,ESE,115,0.0,0.0,88,0.00,,---,0.01,VWS V14.01,2013-03-07 00:13:00,
2013-03-06 16:14:00,42.0,38.7,29.88,ESE,114,0.0,0.0,88,0.00,,---,0.01,VWS V14.01,2013-03-07 00:14:00,
2013-03-06 16:15:00,42.0,38.7,29.88,ESE,114,0.0,0.0,88,0.00,,---,0.01,VWS V14.01,2013-03-07 00:15:00,
2013-03-06 16:16:00,42.0,38.7,29.88,ESE,114,0.0,0.0,88,0.00,,---,0.01,VWS V14.01,2013-03-07 00:16:00,
2013-03-06 16:17:00,42.0,38.7,29.87,ESE,113,0.0,0.0,88,0.00,,---,0.01,VWS V14.01,2013-03-07 00:17:00,
2013-03-06 16:18:00,41.9,38.6,29.88,ESE,114,0.0,0.0,88,0.00,,---,0.01,VWS V14.01,2013-03-07 00:18:00,
2013-03-06 16:19:00,41.9,38.6,29.87,ESE,113,2.0,0.0,88,0.00,,---,0.01,VWS V14.01,2013-03-07 00:19:00,
2013-03-06 16:20:00,41.9,38.9,29.87,ESE,108,0.0,0.0,89,0.00,,---,0.01,VWS V14.01,2013-03-07 00:20:00,
2013-03-06 16:21:00,41.9,38.9,29.87,East,93,2.0,0.0,89,0.00,,---,0.01,VWS V14.01,2013-03-07 00:21:00,
2013-03-06 16:22:00,41.9,38.9,29.87,East,93,0.0,0.0,89,0.00,,---,0.01,VWS V14.01,2013-03-07 00:22:00,
2013-03-06 16:23:00,41.9,38.9,29.87,East,98,0.0,0.0,89,0.00,,---,0.01,VWS V14.01,2013-03-07 00:23:00,
2013-03-06 16:24:00,41.9,38.9,29.87,East,98,0.0,0.0,89,0.00,,---,0.01,VWS V14.01,2013-03-07 00:24:00,
2013-03-06 16:25:00,41.9,38.9,29.87,East,98,0.0,0.0,89,0.00,,---,0.01,VWS V14.01,2013-03-07 00:25:00,
2013-03-06 16:26:00,41.9,38.9,29.87,East,98,2.0,0.0,89,0.00,,---,0.01,VWS V14.01,2013-03-07 00:26:00,
2013-03-06 16:27:00,41.9,38.9,29.87,East,97,0.0,0.0,89,0.00,,---,0.01,VWS V14.01,2013-03-07 00:27:00,
2013-03-06 16:28:00,41.9,38.9,29.87,East,98,1.0,0.0,89,0.00,,---,0.01,VWS V14.01,2013-03-07 00:28:00,
2013-03-06 16:29:00,41.9,38.9,29.87,East,98,0.0,0.0,89,0.00,,---,0.01,VWS V14.01,2013-03-07 00:29:00,
2013-03-06 16:30:00,41.9,38.9,29.87,East,97,0.0,0.0,89,0.00,,---,0.01,VWS V14.01,2013-03-07 00:30:00,
2013-03-06 16:31:00,41.8,38.8,29.87,East,98,0.0,0.0,89,0.00,,---,0.01,VWS V14.01,2013-03-07 00:31:00,
2013-03-06 16:32:00,41.8,38.8,29.87,East,98,0.0,0.0,89,0.00,,---,0.01,VWS V14.01,2013-03-07 00:32:00,
2013-03-06 16:33:00,41.8,38.8,29.87,East,98,0.0,0.0,89,0.00,,---,0.01,VWS V14.01,2013-03-07 00:33:00,
2013-03-06 16:34:00,41.8,38.5,29.87,East,98,0.0,0.0,88,0.00,,---,0.01,VWS V14.01,2013-03-07 00:34:00,
2013-03-06 16:35:00,41.8,38.5,29.87,East,98,0.0,0.0,88,0.00,,---,0.01,VWS V14.01,2013-03-07 00:35:00,
2013-03-06 16:36:00,41.7,38.4,29.87,East,98,0.0,0.0,88,0.00,,---,0.01,VWS V14.01,2013-03-07 00:36:00,
2013-03-06 16:37:00,41.7,38.4,29.87,East,98,1.0,0.0,88,0.00,,---,0.01,VWS V14.01,2013-03-07 00:37:00,
2013-03-06 16:38:00,41.7,38.4,29.87,East,98,0.0,0.0,88,0.00,,---,0.01,VWS V14.01,2013-03-07 00:38:00,
2013-03-06 16:39:00,41.6,38.3,29.87,East,98,0.0,0.0,88,0.00,,---,0.01,VWS V14.01,2013-03-07 00:39:00,
2013-03-06 16:40:00,41.6,38.3,29.87,East,97,0.0,0.0,88,0.00,,---,0.01,VWS V14.01,2013-03-07 00:40:00,
2013-03-06 16:41:00,41.6,38.3,29.87,East,98,0.0,0.0,88,0.00,,---,0.01,VWS V14.01,2013-03-07 00:41:00,
2013-03-06 16:42:00,41.6,38.6,29.87,East,98,0.0,0.0,89,0.00,,---,0.01,VWS V14.01,2013-03-07 00:42:00,
2013-03-06 16:43:00,41.6,38.6,29.87,East,97,0.0,0.0,89,0.00,,---,0.01,VWS V14.01,2013-03-07 00:43:00,
2013-03-06 16:44:00,41.5,38.5,29.87,East,98,0.0,0.0,89,0.00,,---,0.01,VWS V14.01,2013-03-07 00:44:00,
2013-03-06 16:45:00,41.5,38.5,29.87,East,97,0.0,0.0,89,0.00,,---,0.01,VWS V14.01,2013-03-07 00:45:00,
2013-03-06 16:46:00,41.5,38.5,29.87,East,98,0.0,0.0,89,0.00,,---,0.01,VWS V14.01,2013-03-07 00:46:00,
2013-03-06 16:47:00,41.5,38.5,29.87,East,98,0.0,0.0,89,0.00,,---,0.01,VWS V14.01,2013-03-07 00:47:00,
2013-03-06 16:48:00,41.5,38.5,29.87,East,97,0.0,0.0,89,0.00,,---,0.01,VWS V14.01,2013-03-07 00:48:00,
2013-03-06 16:49:00,41.5,38.5,29.87,East,97,0.0,0.0,89,0.00,,---,0.01,VWS V14.01,2013-03-07 00:49:00,
2013-03-06 16:50:00,41.5,38.5,29.87,East,98,0.0,0.0,89,0.00,,---,0.01,VWS V14.01,2013-03-07 00:50:00,
2013-03-06 16:51:00,41.5,38.5,29.87,East,97,0.0,0.0,89,0.00,,---,0.01,VWS V14.01,2013-03-07 00:51:00,
2013-03-06 16:52:00,41.5,38.5,29.87,East,97,0.0,0.0,89,0.00,,---,0.01,VWS V14.01,2013-03-07 00:52:00,
2013-03-06 16:53:00,41.4,38.4,29.87,East,98,1.0,0.0,89,0.00,,---,0.01,VWS V14.01,2013-03-07 00:53:00,
2013-03-06 16:54:00,41.4,38.4,29.86,East,98,0.0,0.0,89,0.00,,---,0.01,VWS V14.01,2013-03-07 00:54:00,
2013-03-06 16:55:00,41.4,38.4,29.87,East,98,0.0,0.0,89,0.00,,---,0.01,VWS V14.01,2013-03-07 00:55:00,
2013-03-06 16:56:00,41.4,38.4,29.86,East,98,0.0,0.0,89,0.00,,---,0.01,VWS V14.01,2013-03-07 00:56:00,
2013-03-06 16:57:00,41.3,38.3,29.86,East,97,0.0,0.0,89,0.00,,---,0.01,VWS V14.01,2013-03-07 00:57:00,
2013-03-06 16:58:00,41.3,38.3,29.86,East,97,0.0,0.0,89,0.00,,---,0.01,VWS V14.01,2013-03-07 00:58:00,
2013-03-06 16:59:00,41.3,38.3,29.87,East,97,0.0,0.0,89,0.00,,---,0.01,VWS V14.01,2013-03-07 00:59:00,
2013-03-06 17:00:00,41.3,38.3,29.87,East,98,0.0,0.0,89,0.00,,---,0.01,VWS V14.01,2013-03-07 01:00:00,
2013-03-06 17:01:00,41.3,38.3,29.86,East,97,0.0,0.0,89,0.00,,---,0.01,VWS V14.01,2013-03-07 01:01:00,
2013-03-06 17:02:00,41.3,38.3,29.87,East,98,0.0,0.0,89,0.00,,---,0.01,VWS V14.01,2013-03-07 01:02:00,
2013-03-06 17:03:00,41.3,38.3,29.86,East,97,0.0,0.0,89,0.00,,---,0.01,VWS V14.01,2013-03-07 01:03:00,
2013-03-06 17:04:00,41.2,38.2,29.87,East,97,0.0,0.0,89,0.00,,---,0.01,VWS V14.01,2013-03-07 01:04:00,
2013-03-06 17:05:00,41.2,38.2,29.86,East,98,0.0,0.0,89,0.00,,---,0.01,VWS V14.01,2013-03-07 01:05:00,
2013-03-06 17:06:00,41.2,38.2,29.86,East,98,0.0,0.0,89,0.00,,---,0.01,VWS V14.01,2013-03-07 01:06:00,
2013-03-06 17:07:00,41.2,38.2,29.86,East,93,0.0,0.0,89,0.00,,---,0.01,VWS V14.01,2013-03-07 01:07:00,
2013-03-06 17:08:00,41.2,38.2,29.86,East,93,0.0,0.0,89,0.00,,---,0.01,VWS V14.01,2013-03-07 01:08:00,
2013-03-06 17:09:00,41.2,38.2,29.86,East,94,0.0,0.0,89,0.00,,---,0.01,VWS V14.01,2013-03-07 01:09:00,
2013-03-06 17:10:00,41.1,38.1,29.86,East,93,0.0,0.0,89,0.00,,---,0.01,VWS V14.01,2013-03-07 01:10:00,
2013-03-06 17:11:00,41.1,38.4,29.86,East,92,0.0,0.0,90,0.00,,---,0.01,VWS V14.01,2013-03-07 01:11:00,
2013-03-06 17:12:00,41.1,38.4,29.86,East,92,0.0,0.0,90,0.00,,---,0.01,VWS V14.01,2013-03-07 01:12:00,
2013-03-06 17:13:00,41.1,38.4,29.86,East,92,0.0,0.0,90,0.00,,---,0.01,VWS V14.01,2013-03-07 01:13:00,
2013-03-06 17:14:00,41.1,38.4,29.86,East,92,0.0,0.0,90,0.00,,---,0.01,VWS V14.01,2013-03-07 01:14:00,
2013-03-06 17:15:00,41.1,38.4,29.86,East,92,0.0,0.0,90,0.00,,---,0.01,VWS V14.01,2013-03-07 01:15:00,
2013-03-06 17:16:00,41.1,38.4,29.86,East,92,0.0,0.0,90,0.00,,---,0.01,VWS V14.01,2013-03-07 01:16:00,
2013-03-06 17:17:00,41.1,38.4,29.86,East,92,0.0,0.0,90,0.00,,---,0.01,VWS V14.01,2013-03-07 01:17:00,
2013-03-06 17:18:00,41.1,38.4,29.86,East,92,0.0,0.0,90,0.00,,---,0.01,VWS V14.01,2013-03-07 01:18:00,
2013-03-06 17:19:00,41.1,38.4,29.86,East,93,1.0,0.0,90,0.00,,---,0.01,VWS V14.01,2013-03-07 01:19:00,
2013-03-06 17:20:00,41.1,38.4,29.86,East,93,0.0,0.0,90,0.00,,---,0.01,VWS V14.01,2013-03-07 01:20:00,
2013-03-06 17:21:00,41.2,38.5,29.86,East,92,0.0,0.0,90,0.00,,---,0.01,VWS V14.01,2013-03-07 01:21:00,
2013-03-06 17:22:00,41.1,38.4,29.86,East,92,0.0,0.0,90,0.00,,---,0.01,VWS V14.01,2013-03-07 01:22:00,
2013-03-06 17:23:00,41.2,38.5,29.86,East,92,0.0,0.0,90,0.00,,---,0.01,VWS V14.01,2013-03-07 01:23:00,
2013-03-06 17:24:00,41.1,38.4,29.86,East,93,0.0,0.0,90,0.00,,---,0.01,VWS V14.01,2013-03-07 01:24:00,
2013-03-06 17:25:00,41.1,38.4,29.86,East,92,0.0,0.0,90,0.00,,---,0.01,VWS V14.01,2013-03-07 01:25:00,
2013-03-06 17:26:00,41.2,38.5,29.86,East,94,2.0,0.0,90,0.00,,---,0.01,VWS V14.01,2013-03-07 01:26:00,
2013-03-06 17:27:00,41.2,38.5,29.86,East,95,1.0,0.0,90,0.00,,---,0.01,VWS V14.01,2013-03-07 01:27:00,
2013-03-06 17:28:00,41.1,38.4,29.86,East,95,0.0,0.0,90,0.00,,---,0.01,VWS V14.01,2013-03-07 01:28:00,
2013-03-06 17:29:00,41.1,38.4,29.86,East,90,1.0,0.0,90,0.00,,---,0.01,VWS V14.01,2013-03-07 01:29:00,
2013-03-06 17:30:00,41.1,38.4,29.86,East,90,0.0,0.0,90,0.00,,---,0.01,VWS V14.01,2013-03-07 01:30:00,
2013-03-06 17:31:00,41.1,38.4,29.86,East,90,0.0,0.0,90,0.00,,---,0.01,VWS V14.01,2013-03-07 01:31:00,
2013-03-06 17:32:00,41.1,38.4,29.86,East,91,0.0,0.0,90,0.00,,---,0.01,VWS V14.01,2013-03-07 01:32:00,
2013-03-06 17:33:00,41.1,38.4,29.85,East,90,0.0,0.0,90,0.00,,---,0.01,VWS V14.01,2013-03-07 01:33:00,
2013-03-06 17:34:00,41.1,38.4,29.86,East,90,0.0,0.0,90,0.00,,---,0.01,VWS V14.01,2013-03-07 01:34:00,
2013-03-06 17:35:00,41.1,38.4,29.85,East,90,0.0,0.0,90,0.00,,---,0.01,VWS V14.01,2013-03-07 01:35:00,
2013-03-06 17:36:00,41.1,38.4,29.85,East,90,0.0,0.0,90,0.00,,---,0.01,VWS V14.01,2013-03-07 01:36:00,
2013-03-06 17:37:00,41.1,38.4,29.85,East,84,2.0,0.0,90,0.00,,---,0.01,VWS V14.01,2013-03-07 01:37:00,
2013-03-06 17:38:00,41.1,38.4,29.85,East,82,1.0,0.0,90,0.00,,---,0.01,VWS V14.01,2013-03-07 01:38:00,
2013-03-06 17:39:00,41.0,38.3,29.85,East,92,0.0,0.0,90,0.00,,---,0.01,VWS V14.01,2013-03-07 01:39:00,
2013-03-06 17:40:00,41.0,38.3,29.85,East,92,0.0,0.0,90,0.00,,---,0.01,VWS V14.01,2013-03-07 01:40:00,
2013-03-06 17:41:00,41.0,38.3,29.85,East,92,0.0,0.0,90,0.00,,---,0.01,VWS V14.01,2013-03-07 01:41:00,
2013-03-06 17:42:00,41.0,38.3,29.85,East,92,0.0,0.0,90,0.00,,---,0.01,VWS V14.01,2013-03-07 01:42:00,
2013-03-06 17:43:00,41.0,38.3,29.85,East,92,0.0,0.0,90,0.00,,---,0.01,VWS V14.01,2013-03-07 01:43:00,
2013-03-06 17:44:00,41.0,38.3,29.85,East,92,0.0,0.0,90,0.00,,---,0.01,VWS V14.01,2013-03-07 01:44:00,
2013-03-06 17:45:00,41.0,38.3,29.85,East,91,0.0,0.0,90,0.00,,---,0.01,VWS V14.01,2013-03-07 01:45:00,
2013-03-06 17:46:00,41.0,38.3,29.85,East,94,1.0,0.0,90,0.00,,---,0.01,VWS V14.01,2013-03-07 01:46:00,
2013-03-06 17:47:00,41.0,38.3,29.85,East,94,0.0,0.0,90,0.00,,---,0.01,VWS V14.01,2013-03-07 01:47:00,
2013-03-06 17:48:00,41.0,38.3,29.85,East,94,0.0,0.0,90,0.00,,---,0.01,VWS V14.01,2013-03-07 01:48:00,
2013-03-06 17:49:00,41.0,38.3,29.85,East,94,0.0,0.0,90,0.00,,---,0.01,VWS V14.01,2013-03-07 01:49:00,
2013-03-06 17:50:00,41.0,38.3,29.85,East,94,0.0,0.0,90,0.00,,---,0.01,VWS V14.01,2013-03-07 01:50:00,
2013-03-06 17:51:00,41.0,38.3,29.85,East,97,1.0,0.0,90,0.00,,---,0.01,VWS V14.01,2013-03-07 01:51:00,
2013-03-06 17:52:00,40.9,38.2,29.85,East,98,2.0,0.0,90,0.00,,---,0.01,VWS V14.01,2013-03-07 01:52:00,
2013-03-06 17:53:00,40.9,38.2,29.85,East,97,0.0,0.0,90,0.00,,---,0.01,VWS V14.01,2013-03-07 01:53:00,
2013-03-06 17:54:00,40.9,38.2,29.85,East,97,1.0,0.0,90,0.00,,---,0.01,VWS V14.01,2013-03-07 01:54:00,
2013-03-06 17:55:00,41.0,38.3,29.85,East,93,0.0,0.0,90,0.00,,---,0.01,VWS V14.01,2013-03-07 01:55:00,
2013-03-06 17:56:00,40.9,38.2,29.85,East,93,0.0,0.0,90,0.00,,---,0.01,VWS V14.01,2013-03-07 01:56:00,
2013-03-06 17:57:00,40.9,38.2,29.85,East,95,2.0,0.0,90,0.00,,---,0.01,VWS V14.01,2013-03-07 01:57:00,
2013-03-06 17:58:00,40.9,38.2,29.85,East,94,0.0,0.0,90,0.00,,---,0.01,VWS V14.01,2013-03-07 01:58:00,
2013-03-06 17:59:00,40.9,38.2,29.85,East,94,0.0,0.0,90,0.00,,---,0.01,VWS V14.01,2013-03-07 01:59:00,
2013-03-06 18:00:00,40.9,38.2,29.85,East,94,0.0,0.0,90,0.00,,---,0.01,VWS V14.01,2013-03-07 02:00:00,
2013-03-06 18:01:00,40.9,38.2,29.85,ESE,111,2.0,0.0,90,0.00,,---,0.01,VWS V14.01,2013-03-07 02:01:00,
2013-03-06 18:02:00,40.9,38.2,29.85,East,100,0.0,0.0,90,0.00,,---,0.01,VWS V14.01,2013-03-07 02:02:00,
2013-03-06 18:03:00,40.9,38.2,29.85,East,98,2.0,0.0,90,0.00,,---,0.01,VWS V14.01,2013-03-07 02:03:00,
2013-03-06 18:04:00,40.9,38.2,29.85,East,100,0.0,0.0,90,0.00,,---,0.01,VWS V14.01,2013-03-07 02:04:00,
2013-03-06 18:05:00,40.9,38.2,29.85,East,100,0.0,0.0,90,0.00,,---,0.01,VWS V14.01,2013-03-07 02:05:00,
2013-03-06 18:06:00,40.9,38.2,29.85,East,100,0.0,0.0,90,0.00,,---,0.01,VWS V14.01,2013-03-07 02:06:00,
2013-03-06 18:07:00,40.9,38.2,29.85,East,100,0.0,0.0,90,0.00,,---,0.01,VWS V14.01,2013-03-07 02:07:00,
2013-03-06 18:08:00,40.9,38.2,29.86,East,100,0.0,0.0,90,0.00,,---,0.01,VWS V14.01,2013-03-07 02:08:00,
2013-03-06 18:09:00,40.9,38.2,29.86,ESE,103,0.0,0.0,90,0.00,,---,0.01,VWS V14.01,2013-03-07 02:09:00,
2013-03-06 18:10:00,40.9,38.2,29.86,ESE,103,1.0,0.0,90,0.00,,---,0.01,VWS V14.01,2013-03-07 02:10:00,
2013-03-06 18:11:00,40.9,38.2,29.86,ESE,103,0.0,0.0,90,0.00,,---,0.01,VWS V14.01,2013-03-07 02:11:00,
2013-03-06 18:12:00,40.9,38.2,29.86,ESE,103,0.0,0.0,90,0.00,,---,0.01,VWS V14.01,2013-03-07 02:12:00,
2013-03-06 18:13:00,40.9,38.2,29.86,ESE,103,0.0,0.0,90,0.00,,---,0.01,VWS V14.01,2013-03-07 02:13:00,
2013-03-06 18:14:00,40.9,38.2,29.86,ESE,103,0.0,0.0,90,0.00,,---,0.01,VWS V14.01,2013-03-07 02:14:00,
2013-03-06 18:15:00,40.9,38.2,29.86,ESE,103,0.0,0.0,90,0.00,,---,0.01,VWS V14.01,2013-03-07 02:15:00,
2013-03-06 18:16:00,40.9,38.2,29.86,ESE,103,0.0,0.0,90,0.00,,---,0.01,VWS V14.01,2013-03-07 02:16:00,
2013-03-06 18:17:00,40.9,38.2,29.86,ESE,103,0.0,0.0,90,0.00,,---,0.01,VWS V14.01,2013-03-07 02:17:00,
2013-03-06 18:18:00,40.9,38.2,29.86,ESE,103,0.0,0.0,90,0.00,,---,0.01,VWS V14.01,2013-03-07 02:18:00,
2013-03-06 18:19:00,40.9,38.2,29.86,ESE,103,0.0,0.0,90,0.00,,---,0.01,VWS V14.01,2013-03-07 02:19:00,
2013-03-06 18:20:00,40.9,38.2,29.86,ESE,103,0.0,0.0,90,0.00,,---,0.01,VWS V14.01,2013-03-07 02:20:00,
2013-03-06 18:21:00,40.9,38.2,29.86,ESE,103,0.0,0.0,90,0.00,,---,0.01,VWS V14.01,2013-03-07 02:21:00,
2013-03-06 18:22:00,40.9,38.2,29.86,ESE,103,0.0,0.0,90,0.00,,---,0.01,VWS V14.01,2013-03-07 02:22:00,
2013-03-06 18:23:00,40.9,37.9,29.86,ESE,103,0.0,0.0,89,0.00,,---,0.01,VWS V14.01,2013-03-07 02:23:00,
2013-03-06 18:24:00,40.9,37.9,29.86,ESE,104,0.0,0.0,89,0.00,,---,0.01,VWS V14.01,2013-03-07 02:24:00,
2013-03-06 18:25:00,40.9,37.9,29.86,ESE,103,0.0,0.0,89,0.00,,---,0.01,VWS V14.01,2013-03-07 02:25:00,
2013-03-06 18:26:00,40.9,37.9,29.86,ESE,103,0.0,0.0,89,0.00,,---,0.01,VWS V14.01,2013-03-07 02:26:00,
2013-03-06 18:27:00,40.9,37.9,29.86,ESE,103,0.0,0.0,89,0.00,,---,0.01,VWS V14.01,2013-03-07 02:27:00,
2013-03-06 18:28:00,40.8,37.8,29.86,ESE,103,0.0,0.0,89,0.00,,---,0.01,VWS V14.01,2013-03-07 02:28:00,
2013-03-06 18:29:00,40.8,38.1,29.86,ESE,103,0.0,0.0,90,0.00,,---,0.01,VWS V14.01,2013-03-07 02:29:00,
2013-03-06 18:30:00,40.8,38.1,29.86,ESE,103,0.0,0.0,90,0.00,,---,0.01,VWS V14.01,2013-03-07 02:30:00,
2013-03-06 18:31:00,40.8,37.8,29.86,ESE,103,0.0,0.0,89,0.00,,---,0.01,VWS V14.01,2013-03-07 02:31:00,
2013-03-06 18:32:00,40.8,37.8,29.86,ESE,103,0.0,0.0,89,0.00,,---,0.01,VWS V14.01,2013-03-07 02:32:00,
2013-03-06 18:33:00,40.8,37.8,29.86,ESE,103,0.0,0.0,89,0.00,,---,0.01,VWS V14.01,2013-03-07 02:33:00,
2013-03-06 18:34:00,40.7,37.7,29.86,ESE,103,0.0,0.0,89,0.00,,---,0.01,VWS V14.01,2013-03-07 02:34:00,
2013-03-06 18:35:00,40.7,37.7,29.86,ESE,103,0.0,0.0,89,0.00,,---,0.01,VWS V14.01,2013-03-07 02:35:00,
2013-03-06 18:36:00,40.7,37.7,29.86,ESE,103,0.0,0.0,89,0.00,,---,0.01,VWS V14.01,2013-03-07 02:36:00,
2013-03-06 18:37:00,40.7,37.7,29.86,ESE,103,0.0,0.0,89,0.00,,---,0.01,VWS V14.01,2013-03-07 02:37:00,
2013-03-06 18:38:00,40.6,37.6,29.86,ESE,103,0.0,0.0,89,0.00,,---,0.01,VWS V14.01,2013-03-07 02:38:00,
2013-03-06 18:39:00,40.6,37.6,29.86,ESE,103,0.0,0.0,89,0.00,,---,0.01,VWS V14.01,2013-03-07 02:39:00,
2013-03-06 18:40:00,40.6,37.6,29.86,ESE,103,0.0,0.0,89,0.00,,---,0.01,VWS V14.01,2013-03-07 02:40:00,
2013-03-06 18:41:00,40.6,37.6,29.86,ESE,103,0.0,0.0,89,0.00,,---,0.01,VWS V14.01,2013-03-07 02:41:00,
2013-03-06 18:42:00,40.6,37.6,29.86,ESE,103,0.0,0.0,89,0.00,,---,0.01,VWS V14.01,2013-03-07 02:42:00,
2013-03-06 18:43:00,40.6,37.6,29.86,ESE,103,0.0,0.0,89,0.00,,---,0.01,VWS V14.01,2013-03-07 02:43:00,
2013-03-06 18:44:00,40.6,37.6,29.86,ESE,103,0.0,0.0,89,0.00,,---,0.01,VWS V14.01,2013-03-07 02:44:00,
2013-03-06 18:45:00,40.6,37.6,29.86,ESE,103,0.0,0.0,89,0.00,,---,0.01,VWS V14.01,2013-03-07 02:45:00,
2013-03-06 18:46:00,40.6,37.6,29.86,ESE,103,0.0,0.0,89,0.00,,---,0.01,VWS V14.01,2013-03-07 02:46:00,
2013-03-06 18:47:00,40.6,37.6,29.86,ESE,103,0.0,0.0,89,0.00,,---,0.01,VWS V14.01,2013-03-07 02:47:00,
2013-03-06 18:48:00,40.6,37.6,29.86,ESE,103,0.0,0.0,89,0.00,,---,0.01,VWS V14.01,2013-03-07 02:48:00,
2013-03-06 18:49:00,40.5,37.5,29.86,ESE,103,0.0,0.0,89,0.00,,---,0.01,VWS V14.01,2013-03-07 02:49:00,
2013-03-06 18:50:00,40.6,37.6,29.86,ESE,103,0.0,0.0,89,0.00,,---,0.01,VWS V14.01,2013-03-07 02:50:00,
2013-03-06 18:51:00,40.5,37.5,29.86,ESE,103,0.0,0.0,89,0.00,,---,0.01,VWS V14.01,2013-03-07 02:51:00,
2013-03-06 18:52:00,40.5,37.5,29.86,ESE,103,0.0,0.0,89,0.00,,---,0.01,VWS V14.01,2013-03-07 02:52:00,
2013-03-06 18:53:00,40.5,37.5,29.86,ESE,103,0.0,0.0,89,0.00,,---,0.01,VWS V14.01,2013-03-07 02:53:00,
2013-03-06 18:54:00,40.5,37.8,29.86,ESE,103,0.0,0.0,90,0.00,,---,0.01,VWS V14.01,2013-03-07 02:54:00,
2013-03-06 18:55:00,40.5,37.8,29.86,ESE,103,0.0,0.0,90,0.00,,---,0.01,VWS V14.01,2013-03-07 02:55:00,
2013-03-06 18:56:00,40.5,37.8,29.86,ESE,103,0.0,0.0,90,0.00,,---,0.01,VWS V14.01,2013-03-07 02:56:00,
2013-03-06 18:57:00,40.5,37.8,29.86,ESE,103,0.0,0.0,90,0.00,,---,0.01,VWS V14.01,2013-03-07 02:57:00,
2013-03-06 18:58:00,40.4,37.7,29.86,ESE,103,0.0,0.0,90,0.00,,---,0.01,VWS V14.01,2013-03-07 02:58:00,
2013-03-06 18:59:00,40.4,37.7,29.86,ESE,103,0.0,0.0,90,0.00,,---,0.01,VWS V14.01,2013-03-07 02:59:00,
2013-03-06 19:00:00,40.4,37.7,29.86,ESE,103,0.0,0.0,90,0.00,,---,0.01,VWS V14.01,2013-03-07 03:00:00,
2013-03-06 19:01:00,40.4,37.7,29.86,ESE,103,0.0,0.0,90,0.00,,---,0.01,VWS V14.01,2013-03-07 03:01:00,
2013-03-06 19:02:00,40.4,37.7,29.86,ESE,103,0.0,0.0,90,0.00,,---,0.01,VWS V14.01,2013-03-07 03:02:00,
2013-03-06 19:03:00,40.3,37.6,29.86,East,101,0.0,0.0,90,0.00,,---,0.01,VWS V14.01,2013-03-07 03:03:00,
2013-03-06 19:04:00,40.4,37.7,29.86,East,101,0.0,0.0,90,0.00,,---,0.01,VWS V14.01,2013-03-07 03:04:00,
2013-03-06 19:05:00,40.3,37.6,29.86,East,101,0.0,0.0,90,0.00,,---,0.01,VWS V14.01,2013-03-07 03:05:00,
2013-03-06 19:06:00,40.3,37.6,29.86,East,101,0.0,0.0,90,0.00,,---,0.01,VWS V14.01,2013-03-07 03:06:00,
2013-03-06 19:07:00,40.3,37.6,29.86,East,101,0.0,0.0,90,0.00,,---,0.01,VWS V14.01,2013-03-07 03:07:00,
2013-03-06 19:08:00,40.2,37.5,29.86,East,101,0.0,0.0,90,0.00,,---,0.01,VWS V14.01,2013-03-07 03:08:00,
2013-03-06 19:09:00,40.2,37.5,29.85,East,101,0.0,0.0,90,0.00,,---,0.01,VWS V14.01,2013-03-07 03:09:00,
2013-03-06 19:10:00,40.2,37.5,29.85,ESE,107,1.0,0.0,90,0.00,,---,0.01,VWS V14.01,2013-03-07 03:10:00,
2013-03-06 19:11:00,40.2,37.5,29.85,ENE,76,2.0,0.0,90,0.00,,---,0.01,VWS V14.01,2013-03-07 03:11:00,
2013-03-06 19:12:00,40.2,37.5,29.85,ENE,76,0.0,0.0,90,0.00,,---,0.01,VWS V14.01,2013-03-07 03:12:00,
2013-03-06 19:13:00,40.1,37.4,29.85,ENE,78,0.0,0.0,90,0.00,,---,0.01,VWS V14.01,2013-03-07 03:13:00,
2013-03-06 19:14:00,40.1,37.4,29.85,ENE,78,1.0,0.0,90,0.00,,---,0.01,VWS V14.01,2013-03-07 03:14:00,
2013-03-06 19:15:00,40.1,37.1,29.85,ENE,78,0.0,0.0,89,0.00,,---,0.01,VWS V14.01,2013-03-07 03:15:00,
2013-03-06 19:16:00,40.1,37.1,29.85,ENE,78,0.0,0.0,89,0.00,,---,0.01,VWS V14.01,2013-03-07 03:16:00,
2013-03-06 19:17:00,40.1,37.1,29.85,ENE,78,0.0,0.0,89,0.00,,---,0.01,VWS V14.01,2013-03-07 03:17:00,
2013-03-06 19:18:00,40.1,37.1,29.85,ENE,78,0.0,0.0,89,0.00,,---,0.01,VWS V14.01,2013-03-07 03:18:00,
2013-03-06 19:19:00,40.0,37.0,29.86,ENE,78,0.0,0.0,89,0.00,,---,0.01,VWS V14.01,2013-03-07 03:19:00,
2013-03-06 19:20:00,40.0,37.0,29.86,ENE,78,0.0,0.0,89,0.00,,---,0.01,VWS V14.01,2013-03-07 03:20:00,
2013-03-06 19:21:00,40.0,37.0,29.86,ENE,78,0.0,0.0,89,0.00,,---,0.01,VWS V14.01,2013-03-07 03:21:00,
2013-03-06 19:22:00,40.0,37.0,29.86,ENE,78,0.0,0.0,89,0.00,,---,0.01,VWS V14.01,2013-03-07 03:22:00,
2013-03-06 19:23:00,40.0,37.0,29.85,ENE,78,0.0,0.0,89,0.00,,---,0.01,VWS V14.01,2013-03-07 03:23:00,
2013-03-06 19:24:00,40.0,37.0,29.85,ENE,78,0.0,0.0,89,0.00,,---,0.01,VWS V14.01,2013-03-07 03:24:00,
2013-03-06 19:25:00,40.0,37.0,29.86,ENE,78,0.0,0.0,89,0.00,,---,0.01,VWS V14.01,2013-03-07 03:25:00,
2013-03-06 19:26:00,40.0,37.0,29.86,ENE,78,0.0,0.0,89,0.00,,---,0.01,VWS V14.01,2013-03-07 03:26:00,
2013-03-06 19:27:00,40.0,37.0,29.86,ENE,78,0.0,0.0,89,0.00,,---,0.01,VWS V14.01,2013-03-07 03:27:00,
2013-03-06 19:28:00,40.0,37.0,29.86,ENE,78,0.0,0.0,89,0.00,,---,0.01,VWS V14.01,2013-03-07 03:28:00,
2013-03-06 19:29:00,40.0,37.0,29.86,ENE,78,0.0,0.0,89,0.00,,---,0.01,VWS V14.01,2013-03-07 03:29:00,
2013-03-06 19:30:00,40.0,37.0,29.86,ENE,78,0.0,0.0,89,0.00,,---,0.01,VWS V14.01,2013-03-07 03:30:00,
2013-03-06 19:31:00,40.0,37.0,29.86,ENE,78,0.0,0.0,89,0.00,,---,0.01,VWS V14.01,2013-03-07 03:31:00,
2013-03-06 19:32:00,39.9,36.9,29.86,ENE,78,0.0,0.0,89,0.00,,---,0.01,VWS V14.01,2013-03-07 03:32:00,
2013-03-06 19:33:00,40.0,37.0,29.86,ENE,78,0.0,0.0,89,0.00,,---,0.01,VWS V14.01,2013-03-07 03:33:00,
2013-03-06 19:34:00,39.9,36.9,29.86,ENE,78,0.0,0.0,89,0.00,,---,0.01,VWS V14.01,2013-03-07 03:34:00,
2013-03-06 19:35:00,39.9,36.9,29.86,ENE,78,0.0,0.0,89,0.00,,---,0.01,VWS V14.01,2013-03-07 03:35:00,
2013-03-06 19:36:00,39.9,36.9,29.86,ENE,78,0.0,0.0,89,0.00,,---,0.01,VWS V14.01,2013-03-07 03:36:00,
2013-03-06 19:37:00,39.9,36.9,29.86,ENE,78,0.0,0.0,89,0.00,,---,0.01,VWS V14.01,2013-03-07 03:37:00,
2013-03-06 19:38:00,39.9,36.9,29.86,ENE,78,0.0,0.0,89,0.00,,---,0.01,VWS V14.01,2013-03-07 03:38:00,
2013-03-06 19:39:00,39.9,36.9,29.86,ENE,78,0.0,0.0,89,0.00,,---,0.01,VWS V14.01,2013-03-07 03:39:00,
2013-03-06 19:40:00,39.9,36.9,29.86,ENE,78,0.0,0.0,89,0.00,,---,0.01,VWS V14.01,2013-03-07 03:40:00,
2013-03-06 19:41:00,39.9,36.9,29.86,ENE,78,0.0,0.0,89,0.00,,---,0.01,VWS V14.01,2013-03-07 03:41:00,
2013-03-06 19:42:00,39.9,36.9,29.86,ENE,78,0.0,0.0,89,0.00,,---,0.01,VWS V14.01,2013-03-07 03:42:00,
2013-03-06 19:43:00,39.9,36.9,29.86,ENE,78,2.0,0.0,89,0.00,,---,0.01,VWS V14.01,2013-03-07 03:43:00,
2013-03-06 19:44:00,39.9,36.9,29.86,ENE,78,0.0,0.0,89,0.00,,---,0.01,VWS V14.01,2013-03-07 03:44:00,
2013-03-06 19:45:00,39.8,36.8,29.86,ENE,78,0.0,0.0,89,0.00,,---,0.01,VWS V14.01,2013-03-07 03:45:00,
2013-03-06 19:46:00,39.9,36.9,29.86,ENE,78,0.0,0.0,89,0.00,,---,0.01,VWS V14.01,2013-03-07 03:46:00,
2013-03-06 19:47:00,39.9,36.9,29.86,ENE,78,0.0,0.0,89,0.00,,---,0.01,VWS V14.01,2013-03-07 03:47:00,
2013-03-06 19:48:00,39.8,36.8,29.86,ENE,78,0.0,0.0,89,0.00,,---,0.01,VWS V14.01,2013-03-07 03:48:00,
2013-03-06 19:49:00,39.9,36.9,29.86,ENE,78,0.0,0.0,89,0.00,,---,0.01,VWS V14.01,2013-03-07 03:49:00,
2013-03-06 19:50:00,39.9,36.9,29.86,ENE,78,0.0,0.0,89,0.00,,---,0.01,VWS V14.01,2013-03-07 03:50:00,
2013-03-06 19:51:00,39.9,36.9,29.86,ENE,77,0.0,0.0,89,0.00,,---,0.01,VWS V14.01,2013-03-07 03:51:00,
2013-03-06 19:52:00,39.9,36.9,29.86,ENE,78,1.0,0.0,89,0.00,,---,0.01,VWS V14.01,2013-03-07 03:52:00,
2013-03-06 19:53:00,39.9,36.9,29.86,ENE,78,0.0,0.0,89,0.00,,---,0.01,VWS V14.01,2013-03-07 03:53:00,
2013-03-06 19:54:00,39.9,36.9,29.86,ENE,78,0.0,0.0,89,0.00,,---,0.01,VWS V14.01,2013-03-07 03:54:00,
2013-03-06 19:55:00,39.9,36.9,29.86,ENE,78,0.0,0.0,89,0.00,,---,0.01,VWS V14.01,2013-03-07 03:55:00,
2013-03-06 19:56:00,39.8,36.8,29.86,ENE,78,0.0,0.0,89,0.00,,---,0.01,VWS V14.01,2013-03-07 03:56:00,
2013-03-06 19:57:00,39.8,36.8,29.86,ENE,76,0.0,0.0,89,0.00,,---,0.01,VWS V14.01,2013-03-07 03:57:00,
2013-03-06 19:58:00,39.8,36.8,29.86,ENE,78,0.0,0.0,89,0.00,,---,0.01,VWS V14.01,2013-03-07 03:58:00,
2013-03-06 19:59:00,39.8,36.8,29.86,ENE,77,0.0,0.0,89,0.00,,---,0.01,VWS V14.01,2013-03-07 03:59:00,
2013-03-06 20:00:00,39.8,36.8,29.86,ENE,78,0.0,0.0,89,0.00,,---,0.01,VWS V14.01,2013-03-07 04:00:00,
2013-03-06 20:01:00,39.8,36.8,29.86,ENE,78,0.0,0.0,89,0.00,,---,0.01,VWS V14.01,2013-03-07 04:01:00,
2013-03-06 20:02:00,39.8,36.8,29.86,ENE,78,0.0,0.0,89,0.00,,---,0.01,VWS V14.01,2013-03-07 04:02:00,
2013-03-06 20:03:00,39.8,36.8,29.86,ENE,78,0.0,0.0,89,0.00,,---,0.01,VWS V14.01,2013-03-07 04:03:00,
2013-03-06 20:04:00,39.8,36.8,29.86,ENE,78,0.0,0.0,89,0.00,,---,0.01,VWS V14.01,2013-03-07 04:04:00,
2013-03-06 20:05:00,39.8,36.8,29.86,ENE,78,0.0,0.0,89,0.00,,---,0.01,VWS V14.01,2013-03-07 04:05:00,
2013-03-06 20:06:00,39.8,36.8,29.86,ENE,78,0.0,0.0,89,0.00,,---,0.01,VWS V14.01,2013-03-07 04:06:00,
2013-03-06 20:07:00,39.8,36.8,29.86,ENE,78,0.0,0.0,89,0.00,,---,0.01,VWS V14.01,2013-03-07 04:07:00,
2013-03-06 20:08:00,39.8,36.8,29.86,ENE,78,0.0,0.0,89,0.00,,---,0.01,VWS V14.01,2013-03-07 04:08:00,
2013-03-06 20:09:00,39.7,36.7,29.86,ENE,78,0.0,0.0,89,0.00,,---,0.01,VWS V14.01,2013-03-07 04:09:00,
2013-03-06 20:10:00,39.7,36.7,29.86,ENE,78,0.0,0.0,89,0.00,,---,0.01,VWS V14.01,2013-03-07 04:10:00,
2013-03-06 20:11:00,39.7,36.7,29.86,ENE,78,0.0,0.0,89,0.00,,---,0.01,VWS V14.01,2013-03-07 04:11:00,
2013-03-06 20:12:00,39.7,36.7,29.86,ENE,78,0.0,0.0,89,0.00,,---,0.01,VWS V14.01,2013-03-07 04:12:00,
2013-03-06 20:13:00,39.7,36.7,29.86,ENE,78,0.0,0.0,89,0.00,,---,0.01,VWS V14.01,2013-03-07 04:13:00,
2013-03-06 20:14:00,39.7,36.7,29.86,ENE,78,0.0,0.0,89,0.00,,---,0.01,VWS V14.01,2013-03-07 04:14:00,
2013-03-06 20:15:00,39.7,36.7,29.86,ENE,78,0.0,0.0,89,0.00,,---,0.01,VWS V14.01,2013-03-07 04:15:00,
2013-03-06 20:16:00,39.7,36.7,29.86,ENE,78,0.0,0.0,89,0.00,,---,0.01,VWS V14.01,2013-03-07 04:16:00,
2013-03-06 20:17:00,39.7,36.7,29.86,ENE,78,0.0,0.0,89,0.00,,---,0.01,VWS V14.01,2013-03-07 04:17:00,
2013-03-06 20:18:00,39.7,36.7,29.85,ENE,78,0.0,0.0,89,0.00,,---,0.01,VWS V14.01,2013-03-07 04:18:00,
2013-03-06 20:19:00,39.6,36.9,29.85,ENE,78,0.0,0.0,90,0.00,,---,0.01,VWS V14.01,2013-03-07 04:19:00,
2013-03-06 20:20:00,39.6,36.6,29.85,ENE,78,0.0,0.0,89,0.00,,---,0.01,VWS V14.01,2013-03-07 04:20:00,
2013-03-06 20:21:00,39.6,36.9,29.85,ENE,78,0.0,0.0,90,0.00,,---,0.01,VWS V14.01,2013-03-07 04:21:00,
2013-03-06 20:22:00,39.6,36.9,29.86,ENE,78,0.0,0.0,90,0.00,,---,0.01,VWS V14.01,2013-03-07 04:22:00,
2013-03-06 20:23:00,39.6,36.9,29.86,East,79,0.0,0.0,90,0.00,,---,0.01,VWS V14.01,2013-03-07 04:23:00,
2013-03-06 20:24:00,39.6,36.9,29.86,East,93,0.0,0.0,90,0.00,,---,0.01,VWS V14.01,2013-03-07 04:24:00,
2013-03-06 20:25:00,39.6,36.9,29.86,East,94,0.0,0.0,90,0.00,,---,0.01,VWS V14.01,2013-03-07 04:25:00,
2013-03-06 20:26:00,39.6,36.9,29.86,East,93,0.0,0.0,90,0.00,,---,0.01,VWS V14.01,2013-03-07 04:26:00,
2013-03-06 20:27:00,39.6,36.9,29.86,East,93,0.0,0.0,90,0.00,,---,0.01,VWS V14.01,2013-03-07 04:27:00,
2013-03-06 20:28:00,39.6,36.9,29.86,East,93,0.0,0.0,90,0.00,,---,0.01,VWS V14.01,2013-03-07 04:28:00,
2013-03-06 20:29:00,39.6,36.9,29.86,East,93,0.0,0.0,90,0.00,,---,0.01,VWS V14.01,2013-03-07 04:29:00,
2013-03-06 20:30:00,39.6,36.9,29.86,East,93,0.0,0.0,90,0.00,,---,0.01,VWS V14.01,2013-03-07 04:30:00,
2013-03-06 20:31:00,39.6,36.9,29.86,East,93,0.0,0.0,90,0.00,,---,0.01,VWS V14.01,2013-03-07 04:31:00,
2013-03-06 20:32:00,39.6,36.9,29.86,East,93,0.0,0.0,90,0.00,,---,0.01,VWS V14.01,2013-03-07 04:32:00,
2013-03-06 20:33:00,39.6,36.9,29.86,East,93,0.0,0.0,90,0.00,,---,0.01,VWS V14.01,2013-03-07 04:33:00,
2013-03-06 20:34:00,39.6,36.9,29.86,East,93,0.0,0.0,90,0.00,,---,0.01,VWS V14.01,2013-03-07 04:34:00,
2013-03-06 20:35:00,39.6,36.9,29.86,East,93,0.0,0.0,90,0.00,,---,0.01,VWS V14.01,2013-03-07 04:35:00,
2013-03-06 20:36:00,39.6,36.9,29.86,ENE,71,0.0,0.0,90,0.00,,---,0.01,VWS V14.01,2013-03-07 04:36:00,
2013-03-06 20:37:00,39.6,36.9,29.86,East,82,0.0,0.0,90,0.00,,---,0.01,VWS V14.01,2013-03-07 04:37:00,
2013-03-06 20:38:00,39.6,36.9,29.86,East,83,0.0,0.0,90,0.00,,---,0.01,VWS V14.01,2013-03-07 04:38:00,
2013-03-06 20:39:00,39.6,36.9,29.86,East,83,0.0,0.0,90,0.00,,---,0.01,VWS V14.01,2013-03-07 04:39:00,
2013-03-06 20:40:00,39.6,36.9,29.86,East,83,0.0,0.0,90,0.00,,---,0.01,VWS V14.01,2013-03-07 04:40:00,
2013-03-06 20:41:00,39.6,36.9,29.86,East,83,0.0,0.0,90,0.00,,---,0.01,VWS V14.01,2013-03-07 04:41:00,
2013-03-06 20:42:00,39.6,36.9,29.86,East,85,0.0,0.0,90,0.00,,---,0.01,VWS V14.01,2013-03-07 04:42:00,
2013-03-06 20:43:00,39.6,36.9,29.86,East,86,0.0,0.0,90,0.00,,---,0.01,VWS V14.01,2013-03-07 04:43:00,
2013-03-06 20:44:00,39.5,36.8,29.86,East,85,0.0,0.0,90,0.00,,---,0.01,VWS V14.01,2013-03-07 04:44:00,
2013-03-06 20:45:00,39.5,36.8,29.86,East,86,0.0,0.0,90,0.00,,---,0.01,VWS V14.01,2013-03-07 04:45:00,
2013-03-06 20:46:00,39.6,36.9,29.86,East,86,0.0,0.0,90,0.00,,---,0.01,VWS V14.01,2013-03-07 04:46:00,
2013-03-06 20:47:00,39.6,36.9,29.86,East,85,0.0,0.0,90,0.00,,---,0.01,VWS V14.01,2013-03-07 04:47:00,
2013-03-06 20:48:00,39.6,36.9,29.86,East,86,0.0,0.0,90,0.00,,---,0.01,VWS V14.01,2013-03-07 04:48:00,
2013-03-06 20:49:00,39.6,36.9,29.86,East,85,0.0,0.0,90,0.00,,---,0.01,VWS V14.01,2013-03-07 04:49:00,
2013-03-06 20:50:00,39.6,36.9,29.86,East,84,0.0,0.0,90,0.00,,---,0.01,VWS V14.01,2013-03-07 04:50:00,
2013-03-06 20:51:00,39.7,37.0,29.86,East,85,0.0,0.0,90,0.00,,---,0.01,VWS V14.01,2013-03-07 04:51:00,
2013-03-06 20:52:00,39.7,37.0,29.86,East,85,0.0,0.0,90,0.00,,---,0.01,VWS V14.01,2013-03-07 04:52:00,
2013-03-06 20:53:00,39.7,37.0,29.86,East,86,0.0,0.0,90,0.00,,---,0.01,VWS V14.01,2013-03-07 04:53:00,
2013-03-06 20:54:00,39.7,37.0,29.86,East,85,0.0,0.0,90,0.00,,---,0.01,VWS V14.01,2013-03-07 04:54:00,
2013-03-06 20:55:00,39.8,37.1,29.86,East,85,0.0,0.0,90,0.00,,---,0.01,VWS V14.01,2013-03-07 04:55:00,
2013-03-06 20:56:00,39.8,37.1,29.86,East,85,0.0,0.0,90,0.00,,---,0.01,VWS V14.01,2013-03-07 04:56:00,
2013-03-06 20:57:00,39.8,37.1,29.86,East,85,0.0,0.0,90,0.00,,---,0.01,VWS V14.01,2013-03-07 04:57:00,
2013-03-06 20:58:00,39.9,37.2,29.86,East,86,0.0,0.0,90,0.00,,---,0.01,VWS V14.01,2013-03-07 04:58:00,
2013-03-06 20:59:00,39.9,37.2,29.86,East,85,0.0,0.0,90,0.00,,---,0.01,VWS V14.01,2013-03-07 04:59:00,
2013-03-06 21:00:00,39.9,37.2,29.86,East,85,0.0,0.0,90,0.00,,---,0.01,VWS V14.01,2013-03-07 05:00:00,
2013-03-06 21:01:00,40.0,37.3,29.86,East,86,0.0,0.0,90,0.00,,---,0.01,VWS V14.01,2013-03-07 05:01:00,
2013-03-06 21:02:00,40.0,37.3,29.86,East,86,0.0,0.0,90,0.00,,---,0.01,VWS V14.01,2013-03-07 05:02:00,
2013-03-06 21:03:00,40.0,37.3,29.86,East,85,0.0,0.0,90,0.00,,---,0.01,VWS V14.01,2013-03-07 05:03:00,
2013-03-06 21:04:00,40.0,37.3,29.86,East,86,0.0,0.0,90,0.00,,---,0.01,VWS V14.01,2013-03-07 05:04:00,
2013-03-06 21:05:00,40.1,37.4,29.86,East,85,0.0,0.0,90,0.00,,---,0.01,VWS V14.01,2013-03-07 05:05:00,
2013-03-06 21:06:00,40.1,37.4,29.86,East,86,0.0,0.0,90,0.00,,---,0.01,VWS V14.01,2013-03-07 05:06:00,
2013-03-06 21:07:00,40.1,37.4,29.86,East,86,0.0,0.0,90,0.00,,---,0.01,VWS V14.01,2013-03-07 05:07:00,
2013-03-06 21:08:00,40.1,37.4,29.86,East,85,0.0,0.0,90,0.00,,---,0.01,VWS V14.01,2013-03-07 05:08:00,
2013-03-06 21:09:00,40.1,37.4,29.86,East,86,1.0,0.0,90,0.00,,---,0.01,VWS V14.01,2013-03-07 05:09:00,
2013-03-06 21:10:00,40.2,37.5,29.86,East,85,0.0,0.0,90,0.00,,---,0.01,VWS V14.01,2013-03-07 05:10:00,
2013-03-06 21:11:00,40.2,37.5,29.86,East,86,0.0,0.0,90,0.00,,---,0.01,VWS V14.01,2013-03-07 05:11:00,
2013-03-06 21:12:00,40.2,37.5,29.86,East,85,0.0,0.0,90,0.00,,---,0.01,VWS V14.01,2013-03-07 05:12:00,
2013-03-06 21:13:00,40.2,37.5,29.86,East,85,0.0,0.0,90,0.00,,---,0.01,VWS V14.01,2013-03-07 05:13:00,
2013-03-06 21:14:00,40.3,37.6,29.87,East,86,0.0,0.0,90,0.00,,---,0.01,VWS V14.01,2013-03-07 05:14:00,
2013-03-06 21:15:00,40.3,37.6,29.87,East,85,0.0,0.0,90,0.00,,---,0.01,VWS V14.01,2013-03-07 05:15:00,
2013-03-06 21:16:00,40.3,37.6,29.86,East,86,0.0,0.0,90,0.00,,---,0.01,VWS V14.01,2013-03-07 05:16:00,
2013-03-06 21:17:00,40.3,37.6,29.86,East,85,0.0,0.0,90,0.00,,---,0.01,VWS V14.01,2013-03-07 05:17:00,
2013-03-06 21:18:00,40.4,37.7,29.86,East,86,0.0,0.0,90,0.00,,---,0.01,VWS V14.01,2013-03-07 05:18:00,
2013-03-06 21:19:00,40.4,37.7,29.86,East,86,0.0,0.0,90,0.00,,---,0.01,VWS V14.01,2013-03-07 05:19:00,
2013-03-06 21:20:00,40.4,37.7,29.87,East,85,0.0,0.0,90,0.00,,---,0.01,VWS V14.01,2013-03-07 05:20:00,
2013-03-06 21:21:00,40.4,37.7,29.87,East,85,0.0,0.0,90,0.00,,---,0.01,VWS V14.01,2013-03-07 05:21:00,
2013-03-06 21:22:00,40.5,37.8,29.87,East,86,0.0,0.0,90,0.00,,---,0.01,VWS V14.01,2013-03-07 05:22:00,
2013-03-06 21:23:00,40.5,37.8,29.87,East,86,0.0,0.0,90,0.00,,---,0.01,VWS V14.01,2013-03-07 05:23:00,
2013-03-06 21:24:00,40.5,37.5,29.87,East,86,0.0,0.0,89,0.00,,---,0.01,VWS V14.01,2013-03-07 05:24:00,
2013-03-06 21:25:00,40.6,37.6,29.87,East,86,0.0,0.0,89,0.00,,---,0.01,VWS V14.01,2013-03-07 05:25:00,
2013-03-06 21:26:00,40.6,37.6,29.87,East,86,1.0,0.0,89,0.00,,---,0.01,VWS V14.01,2013-03-07 05:26:00,
2013-03-06 21:27:00,40.6,37.6,29.87,East,85,0.0,0.0,89,0.00,,---,0.01,VWS V14.01,2013-03-07 05:27:00,
2013-03-06 21:28:00,40.7,37.7,29.86,East,84,0.0,0.0,89,0.00,,---,0.01,VWS V14.01,2013-03-07 05:28:00,
2013-03-06 21:29:00,40.7,37.7,29.86,East,85,0.0,0.0,89,0.00,,---,0.01,VWS V14.01,2013-03-07 05:29:00,
2013-03-06 21:30:00,40.7,37.7,29.86,East,86,0.0,0.0,89,0.00,,---,0.01,VWS V14.01,2013-03-07 05:30:00,
2013-03-06 21:31:00,40.7,37.7,29.86,East,86,0.0,0.0,89,0.00,,---,0.01,VWS V14.01,2013-03-07 05:31:00,
2013-03-06 21:32:00,40.8,37.8,29.86,East,85,0.0,0.0,89,0.00,,---,0.01,VWS V14.01,2013-03-07 05:32:00,
2013-03-06 21:33:00,40.8,37.8,29.86,East,86,0.0,0.0,89,0.00,,---,0.01,VWS V14.01,2013-03-07 05:33:00,
2013-03-06 21:34:00,40.9,37.9,29.87,East,86,0.0,0.0,89,0.00,,---,0.01,VWS V14.01,2013-03-07 05:34:00,
2013-03-06 21:35:00,40.9,37.9,29.86,East,86,0.0,0.0,89,0.00,,---,0.01,VWS V14.01,2013-03-07 05:35:00,
2013-03-06 21:36:00,40.9,37.9,29.86,East,86,0.0,0.0,89,0.00,,---,0.01,VWS V14.01,2013-03-07 05:36:00,
2013-03-06 21:37:00,41.0,38.0,29.87,East,85,0.0,0.0,89,0.00,,---,0.01,VWS V14.01,2013-03-07 05:37:00,
2013-03-06 21:38:00,41.0,38.0,29.86,East,85,0.0,0.0,89,0.00,,---,0.01,VWS V14.01,2013-03-07 05:38:00,
2013-03-06 21:39:00,41.0,39.4,29.86,East,86,0.0,0.0,94,0.00,,---,0.01,VWS V14.01,2013-03-07 05:39:00,
2013-03-06 21:40:00,41.1,38.1,29.87,East,84,2.0,0.0,89,0.00,,---,0.01,VWS V14.01,2013-03-07 05:40:00,
2013-03-06 21:41:00,41.1,38.1,29.87,East,86,0.0,0.0,89,0.00,,---,0.01,VWS V14.01,2013-03-07 05:41:00,
2013-03-06 21:42:00,41.1,37.8,29.87,East,85,0.0,0.0,88,0.00,,---,0.01,VWS V14.01,2013-03-07 05:42:00,
2013-03-06 21:43:00,41.1,37.8,29.87,East,85,0.0,0.0,88,0.00,,---,0.01,VWS V14.01,2013-03-07 05:43:00,
2013-03-06 21:44:00,41.1,37.8,29.86,East,85,0.0,0.0,88,0.00,,---,0.01,VWS V14.01,2013-03-07 05:44:00,
2013-03-06 21:45:00,41.2,37.9,29.86,East,86,0.0,0.0,88,0.00,,---,0.01,VWS V14.01,2013-03-07 05:45:00,
2013-03-06 21:46:00,41.2,37.9,29.86,East,85,0.0,0.0,88,0.00,,---,0.01,VWS V14.01,2013-03-07 05:46:00,
2013-03-06 21:47:00,41.3,38.0,29.86,East,85,0.0,0.0,88,0.00,,---,0.01,VWS V14.01,2013-03-07 05:47:00,
2013-03-06 21:48:00,41.3,38.0,29.86,East,85,0.0,0.0,88,0.00,,---,0.01,VWS V14.01,2013-03-07 05:48:00,
2013-03-06 21:49:00,41.3,38.0,29.86,East,86,0.0,0.0,88,0.00,,---,0.01,VWS V14.01,2013-03-07 05:49:00,
2013-03-06 21:50:00,41.3,38.0,29.86,East,85,0.0,0.0,88,0.00,,---,0.01,VWS V14.01,2013-03-07 05:50:00,
2013-03-06 21:51:00,41.4,38.1,29.87,East,86,0.0,0.0,88,0.00,,---,0.01,VWS V14.01,2013-03-07 05:51:00,
2013-03-06 21:52:00,41.4,38.1,29.86,East,85,0.0,0.0,88,0.00,,---,0.01,VWS V14.01,2013-03-07 05:52:00,
2013-03-06 21:53:00,41.4,38.1,29.87,East,86,0.0,0.0,88,0.00,,---,0.01,VWS V14.01,2013-03-07 05:53:00,
2013-03-06 21:54:00,41.5,38.2,29.87,East,86,0.0,0.0,88,0.00,,---,0.01,VWS V14.01,2013-03-07 05:54:00,
2013-03-06 21:55:00,41.5,38.2,29.87,East,85,0.0,0.0,88,0.00,,---,0.01,VWS V14.01,2013-03-07 05:55:00,
2013-03-06 21:56:00,41.5,38.2,29.87,East,86,0.0,0.0,88,0.00,,---,0.01,VWS V14.01,2013-03-07 05:56:00,
2013-03-06 21:57:00,41.6,38.0,29.86,East,85,0.0,0.0,87,0.00,,---,0.01,VWS V14.01,2013-03-07 05:57:00,
2013-03-06 21:58:00,41.6,38.0,29.86,East,85,0.0,0.0,87,0.00,,---,0.01,VWS V14.01,2013-03-07 05:58:00,
2013-03-06 21:59:00,41.7,38.4,29.86,East,85,1.0,0.0,88,0.00,,---,0.01,VWS V14.01,2013-03-07 05:59:00,
2013-03-06 22:00:00,41.7,39.5,29.86,East,85,1.0,0.0,92,0.00,,---,0.01,VWS V14.01,2013-03-07 06:00:00,
2013-03-06 22:01:00,41.8,38.2,29.86,East,80,1.0,0.0,87,0.00,,---,0.01,VWS V14.01,2013-03-07 06:01:00,
2013-03-06 22:02:00,41.8,38.2,29.86,ENE,76,1.0,0.0,87,0.00,,---,0.01,VWS V14.01,2013-03-07 06:02:00,
2013-03-06 22:03:00,41.8,38.2,29.86,East,94,1.0,0.0,87,0.00,,---,0.01,VWS V14.01,2013-03-07 06:03:00,
2013-03-06 22:04:00,41.9,38.0,29.86,East,90,2.0,0.0,86,0.00,,---,0.01,VWS V14.01,2013-03-07 06:04:00,
2013-03-06 22:05:00,41.9,38.0,29.86,ESE,103,2.0,0.0,86,0.00,,---,0.01,VWS V14.01,2013-03-07 06:05:00,
2013-03-06 22:06:00,42.0,38.1,29.86,East,98,2.0,0.0,86,0.00,,---,0.01,VWS V14.01,2013-03-07 06:06:00,
2013-03-06 22:07:00,42.0,38.1,29.86,ESE,103,0.0,0.0,86,0.00,,---,0.01,VWS V14.01,2013-03-07 06:07:00,
2013-03-06 22:08:00,42.1,38.2,29.86,East,101,2.0,0.0,86,0.00,,---,0.01,VWS V14.01,2013-03-07 06:08:00,
2013-03-06 22:09:00,42.1,38.2,29.86,East,101,2.0,0.0,86,0.00,,---,0.01,VWS V14.01,2013-03-07 06:09:00,
2013-03-06 22:10:00,42.2,38.3,29.86,East,90,2.0,0.0,86,0.00,,---,0.01,VWS V14.01,2013-03-07 06:10:00,
2013-03-06 22:11:00,42.2,38.3,29.86,East,89,3.0,0.0,86,0.00,,---,0.01,VWS V14.01,2013-03-07 06:11:00,
2013-03-06 22:12:00,42.3,38.1,29.86,ESE,103,5.0,0.0,85,0.00,,---,0.01,VWS V14.01,2013-03-07 06:12:00,
2013-03-06 22:13:00,42.4,38.2,29.86,East,95,0.0,0.0,85,0.00,,---,0.01,VWS V14.01,2013-03-07 06:13:00,
2013-03-06 22:14:00,42.4,38.2,29.86,East,94,0.0,0.0,85,0.00,,---,0.01,VWS V14.01,2013-03-07 06:14:00,
2013-03-06 22:15:00,42.5,38.3,29.86,East,94,2.0,0.0,85,0.00,,---,0.01,VWS V14.01,2013-03-07 06:15:00,
2013-03-06 22:16:00,42.5,38.3,29.86,East,94,0.0,0.0,85,0.00,,---,0.01,VWS V14.01,2013-03-07 06:16:00,
2013-03-06 22:17:00,42.6,38.4,29.86,East,94,2.0,0.0,85,0.00,,---,0.01,VWS V14.01,2013-03-07 06:17:00,
2013-03-06 22:18:00,42.7,38.5,29.86,East,93,1.0,0.0,85,0.00,,---,0.01,VWS V14.01,2013-03-07 06:18:00,
2013-03-06 22:19:00,42.8,38.6,29.86,East,94,0.0,0.0,85,0.00,,---,0.01,VWS V14.01,2013-03-07 06:19:00,
2013-03-06 22:20:00,42.8,38.6,29.86,East,94,2.0,0.0,85,0.00,,---,0.01,VWS V14.01,2013-03-07 06:20:00,
2013-03-06 22:21:00,42.9,38.7,29.86,East,94,0.0,0.0,85,0.00,,---,0.01,VWS V14.01,2013-03-07 06:21:00,
2013-03-06 22:22:00,43.0,38.8,29.86,East,94,0.0,0.0,85,0.00,,---,0.01,VWS V14.01,2013-03-07 06:22:00,
2013-03-06 22:23:00,43.1,38.9,29.86,East,94,1.0,0.0,85,0.00,,---,0.01,VWS V14.01,2013-03-07 06:23:00,
2013-03-06 22:24:00,43.1,38.9,29.86,East,94,2.0,0.0,85,0.00,,---,0.01,VWS V14.01,2013-03-07 06:24:00,
2013-03-06 22:25:00,43.2,38.7,29.86,East,94,1.0,0.0,84,0.00,,---,0.01,VWS V14.01,2013-03-07 06:25:00,
2013-03-06 22:26:00,43.3,38.8,29.86,East,94,0.0,0.0,84,0.00,,---,0.01,VWS V14.01,2013-03-07 06:26:00,
2013-03-06 22:27:00,43.3,38.8,29.86,East,94,0.0,0.0,84,0.00,,---,0.01,VWS V14.01,2013-03-07 06:27:00,
2013-03-06 22:28:00,43.4,38.9,29.86,East,94,0.0,0.0,84,0.00,,---,0.01,VWS V14.01,2013-03-07 06:28:00,
2013-03-06 22:29:00,43.5,39.0,29.86,East,94,0.0,0.0,84,0.00,,---,0.01,VWS V14.01,2013-03-07 06:29:00,
2013-03-06 22:30:00,43.6,39.1,29.86,East,94,0.0,0.0,84,0.00,,---,0.01,VWS V14.01,2013-03-07 06:30:00,
2013-03-06 22:31:00,43.7,38.9,29.86,East,94,0.0,0.0,83,0.00,,---,0.01,VWS V14.01,2013-03-07 06:31:00,
2013-03-06 22:32:00,43.8,39.0,29.86,East,94,0.0,0.0,83,0.00,,---,0.01,VWS V14.01,2013-03-07 06:32:00,
2013-03-06 22:33:00,43.8,39.0,29.86,East,94,0.0,0.0,83,0.00,,---,0.01,VWS V14.01,2013-03-07 06:33:00,
2013-03-06 22:34:00,43.9,39.1,29.86,East,94,0.0,0.0,83,0.00,,---,0.01,VWS V14.01,2013-03-07 06:34:00,
2013-03-06 22:35:00,44.0,39.2,29.86,East,94,0.0,0.0,83,0.00,,---,0.01,VWS V14.01,2013-03-07 06:35:00,
2013-03-06 22:36:00,44.1,39.6,29.86,East,94,0.0,0.0,84,0.00,,---,0.01,VWS V14.01,2013-03-07 06:36:00,
2013-03-06 22:37:00,44.2,39.4,29.86,East,94,0.0,0.0,83,0.00,,---,0.01,VWS V14.01,2013-03-07 06:37:00,
2013-03-06 22:38:00,44.4,39.6,29.86,East,94,0.0,0.0,83,0.00,,---,0.01,VWS V14.01,2013-03-07 06:38:00,
2013-03-06 22:39:00,44.5,39.7,29.86,East,94,0.0,0.0,83,0.00,,---,0.01,VWS V14.01,2013-03-07 06:39:00,
2013-03-06 22:40:00,44.6,39.8,29.86,East,94,0.0,0.0,83,0.00,,---,0.01,VWS V14.01,2013-03-07 06:40:00,
2013-03-06 22:41:00,44.7,39.9,29.86,East,94,0.0,0.0,83,0.00,,---,0.01,VWS V14.01,2013-03-07 06:41:00,
2013-03-06 22:42:00,44.8,39.7,29.86,East,94,0.0,0.0,82,0.00,,---,0.01,VWS V14.01,2013-03-07 06:42:00,
2013-03-06 22:43:00,44.9,39.8,29.86,East,94,0.0,0.0,82,0.00,,---,0.01,VWS V14.01,2013-03-07 06:43:00,
2013-03-06 22:44:00,45.0,39.8,29.86,East,94,0.0,0.0,82,0.00,,---,0.01,VWS V14.01,2013-03-07 06:44:00,
2013-03-06 22:45:00,45.2,40.3,29.86,East,94,0.0,0.0,83,0.00,,---,0.01,VWS V14.01,2013-03-07 06:45:00,
2013-03-06 22:46:00,45.3,40.1,29.86,East,94,0.0,0.0,82,0.00,,---,0.01,VWS V14.01,2013-03-07 06:46:00,
2013-03-06 22:47:00,45.4,40.2,29.86,East,94,0.0,0.0,82,0.00,,---,0.01,VWS V14.01,2013-03-07 06:47:00,
2013-03-06 22:48:00,45.5,40.0,29.86,East,94,0.0,0.0,81,0.00,,---,0.01,VWS V14.01,2013-03-07 06:48:00,
2013-03-06 22:49:00,45.6,40.1,29.86,East,94,0.0,0.0,81,0.00,,---,0.01,VWS V14.01,2013-03-07 06:49:00,
2013-03-06 22:50:00,45.7,40.2,29.85,East,94,0.0,0.0,81,0.00,,---,0.01,VWS V14.01,2013-03-07 06:50:00,
2013-03-06 22:51:00,45.8,40.3,29.86,East,94,0.0,0.0,81,0.00,,---,0.01,VWS V14.01,2013-03-07 06:51:00,
2013-03-06 22:52:00,45.9,40.4,29.86,East,94,0.0,0.0,81,0.00,,---,0.01,VWS V14.01,2013-03-07 06:52:00,
2013-03-06 22:53:00,46.0,40.2,29.85,East,94,0.0,0.0,80,0.00,,---,0.01,VWS V14.01,2013-03-07 06:53:00,
2013-03-06 22:54:00,46.2,40.1,29.85,East,94,0.0,0.0,79,0.00,,---,0.01,VWS V14.01,2013-03-07 06:54:00,
2013-03-06 22:55:00,46.2,40.1,29.85,East,94,0.0,0.0,79,0.00,,---,0.01,VWS V14.01,2013-03-07 06:55:00,
2013-03-06 22:56:00,46.3,39.8,29.85,East,94,0.0,0.0,78,0.00,,---,0.01,VWS V14.01,2013-03-07 06:56:00,
2013-03-06 22:57:00,46.4,39.6,29.85,East,94,0.0,0.0,77,0.00,,---,0.01,VWS V14.01,2013-03-07 06:57:00,
2013-03-06 22:58:00,46.5,39.7,29.85,East,94,0.0,0.0,77,0.00,,---,0.01,VWS V14.01,2013-03-07 06:58:00,
2013-03-06 22:59:00,46.6,39.8,29.85,East,94,0.0,0.0,77,0.00,,---,0.01,VWS V14.01,2013-03-07 06:59:00,
2013-03-06 23:00:00,46.7,39.9,29.85,East,94,0.0,0.0,77,0.00,,---,0.01,VWS V14.01,2013-03-07 07:00:00,
2013-03-06 23:01:00,46.8,40.0,29.85,East,94,0.0,0.0,77,0.00,,---,0.01,VWS V14.01,2013-03-07 07:01:00,
2013-03-06 23:02:00,46.9,40.1,29.85,East,94,0.0,0.0,77,0.00,,---,0.01,VWS V14.01,2013-03-07 07:02:00,
2013-03-06 23:03:00,46.9,40.4,29.85,East,95,0.0,0.0,78,0.00,,---,0.01,VWS V14.01,2013-03-07 07:03:00,
2013-03-06 23:04:00,47.0,40.2,29.85,East,94,0.0,0.0,77,0.00,,---,0.01,VWS V14.01,2013-03-07 07:04:00,
2013-03-06 23:05:00,47.1,40.3,29.85,East,94,0.0,0.0,77,0.00,,---,0.01,VWS V14.01,2013-03-07 07:05:00,
2013-03-06 23:06:00,47.2,40.7,29.85,East,94,0.0,0.0,78,0.00,,---,0.01,VWS V14.01,2013-03-07 07:06:00,
2013-03-06 23:07:00,47.3,40.8,29.85,East,94,0.0,0.0,78,0.00,,---,0.01,VWS V14.01,2013-03-07 07:07:00,
2013-03-06 23:08:00,47.4,41.2,29.85,East,94,0.0,0.0,79,0.00,,---,0.01,VWS V14.01,2013-03-07 07:08:00,
2013-03-06 23:09:00,47.5,41.0,29.85,East,94,0.0,0.0,78,0.00,,---,0.01,VWS V14.01,2013-03-07 07:09:00,
2013-03-06 23:10:00,47.6,41.1,29.85,East,94,0.0,0.0,78,0.00,,---,0.01,VWS V14.01,2013-03-07 07:10:00,
2013-03-06 23:11:00,47.6,41.1,29.85,East,94,0.0,0.0,78,0.00,,---,0.01,VWS V14.01,2013-03-07 07:11:00,
2013-03-06 23:12:00,47.7,41.2,29.85,East,94,0.0,0.0,78,0.00,,---,0.01,VWS V14.01,2013-03-07 07:12:00,
2013-03-06 23:13:00,47.8,41.0,29.85,East,93,0.0,0.0,77,0.00,,---,0.01,VWS V14.01,2013-03-07 07:13:00,
2013-03-06 23:14:00,47.8,41.0,29.85,East,94,0.0,0.0,77,0.00,,---,0.01,VWS V14.01,2013-03-07 07:14:00,
2013-03-06 23:15:00,47.8,41.0,29.85,East,94,0.0,0.0,77,0.00,,---,0.01,VWS V14.01,2013-03-07 07:15:00,
2013-03-06 23:16:00,47.9,40.7,29.85,East,94,0.0,0.0,76,0.00,,---,0.01,VWS V14.01,2013-03-07 07:16:00,
2013-03-06 23:17:00,47.9,40.7,29.85,East,94,0.0,0.0,76,0.00,,---,0.01,VWS V14.01,2013-03-07 07:17:00,
2013-03-06 23:18:00,48.0,40.8,29.85,East,94,0.0,0.0,76,0.00,,---,0.01,VWS V14.01,2013-03-07 07:18:00,
2013-03-06 23:19:00,48.0,40.5,29.85,East,94,0.0,0.0,75,0.00,,---,0.01,VWS V14.01,2013-03-07 07:19:00,
2013-03-06 23:20:00,48.1,40.6,29.85,East,94,0.0,0.0,75,0.00,,---,0.01,VWS V14.01,2013-03-07 07:20:00,
2013-03-06 23:21:00,48.1,40.6,29.85,East,94,0.0,0.0,75,0.00,,---,0.01,VWS V14.01,2013-03-07 07:21:00,
2013-03-06 23:22:00,48.2,40.7,29.85,East,94,0.0,0.0,75,0.00,,---,0.01,VWS V14.01,2013-03-07 07:22:00,
2013-03-06 23:23:00,48.2,41.7,29.85,East,94,0.0,0.0,78,0.00,,---,0.01,VWS V14.01,2013-03-07 07:23:00,
2013-03-06 23:24:00,48.3,40.8,29.85,East,93,0.0,0.0,75,0.00,,---,0.01,VWS V14.01,2013-03-07 07:24:00,
2013-03-06 23:25:00,48.4,41.2,29.85,East,94,0.0,0.0,76,0.00,,---,0.01,VWS V14.01,2013-03-07 07:25:00,
2013-03-06 23:26:00,48.5,41.3,29.85,East,94,0.0,0.0,76,0.00,,---,0.01,VWS V14.01,2013-03-07 07:26:00,
2013-03-06 23:27:00,48.5,41.3,29.85,East,94,0.0,0.0,76,0.00,,---,0.01,VWS V14.01,2013-03-07 07:27:00,
2013-03-06 23:28:00,48.6,41.4,29.85,East,94,1.0,0.0,76,0.00,,---,0.01,VWS V14.01,2013-03-07 07:28:00,
2013-03-06 23:29:00,48.7,41.1,29.85,SW,218,2.0,0.0,75,0.00,,---,0.01,VWS V14.01,2013-03-07 07:29:00,
2013-03-06 23:30:00,48.7,40.8,29.85,WSW,258,1.0,0.0,74,0.00,,---,0.01,VWS V14.01,2013-03-07 07:30:00,
2013-03-06 23:31:00,48.8,40.5,29.85,West,262,0.0,0.0,73,0.00,,---,0.01,VWS V14.01,2013-03-07 07:31:00,
2013-03-06 23:32:00,48.8,40.5,29.85,WSW,256,1.0,0.0,73,0.00,,---,0.01,VWS V14.01,2013-03-07 07:32:00,
2013-03-06 23:33:00,48.9,40.3,29.85,WSW,256,0.0,0.0,72,0.00,,---,0.01,VWS V14.01,2013-03-07 07:33:00,
2013-03-06 23:34:00,48.9,40.3,29.85,WSW,256,0.0,0.0,72,0.00,,---,0.01,VWS V14.01,2013-03-07 07:34:00,
2013-03-06 23:35:00,49.0,40.7,29.85,WSW,256,0.0,0.0,73,0.00,,---,0.01,VWS V14.01,2013-03-07 07:35:00,
2013-03-06 23:36:00,49.1,40.8,29.85,WSW,256,1.0,0.0,73,0.00,,---,0.01,VWS V14.01,2013-03-07 07:36:00,
2013-03-06 23:37:00,49.1,40.8,29.85,WSW,256,0.0,0.0,73,0.00,,---,0.01,VWS V14.01,2013-03-07 07:37:00,
2013-03-06 23:38:00,49.2,40.9,29.85,WSW,256,0.0,0.0,73,0.00,,---,0.01,VWS V14.01,2013-03-07 07:38:00,
2013-03-06 23:39:00,49.2,40.6,29.85,WSW,256,0.0,0.0,72,0.00,,---,0.01,VWS V14.01,2013-03-07 07:39:00,
2013-03-06 23:40:00,49.4,40.8,29.85,WSW,256,0.0,0.0,72,0.00,,---,0.01,VWS V14.01,2013-03-07 07:40:00,
2013-03-06 23:41:00,49.4,40.8,29.85,WSW,256,0.0,0.0,72,0.00,,---,0.01,VWS V14.01,2013-03-07 07:41:00,
2013-03-06 23:42:00,49.6,41.3,29.85,WSW,256,0.0,0.0,73,0.00,,---,0.01,VWS V14.01,2013-03-07 07:42:00,
2013-03-06 23:43:00,49.7,41.4,29.85,WSW,256,0.0,0.0,73,0.00,,---,0.01,VWS V14.01,2013-03-07 07:43:00,
2013-03-06 23:44:00,49.8,41.5,29.85,WSW,256,0.0,0.0,73,0.00,,---,0.01,VWS V14.01,2013-03-07 07:44:00,
2013-03-06 23:45:00,49.9,41.2,29.85,WSW,256,0.0,0.0,72,0.00,,---,0.01,VWS V14.01,2013-03-07 07:45:00,
2013-03-06 23:46:00,50.0,41.0,29.85,NNE,30,2.0,0.0,71,0.00,,---,0.01,VWS V14.01,2013-03-07 07:46:00,
2013-03-06 23:47:00,50.1,41.1,29.85,NNE,27,0.0,0.0,71,0.00,,---,0.01,VWS V14.01,2013-03-07 07:47:00,
2013-03-06 23:48:00,50.2,41.5,29.85,NNE,27,0.0,0.0,72,0.00,,---,0.01,VWS V14.01,2013-03-07 07:48:00,
2013-03-06 23:49:00,50.3,41.6,29.85,NNE,27,0.0,0.0,72,0.00,,---,0.01,VWS V14.01,2013-03-07 07:49:00,
2013-03-06 23:50:00,50.4,41.4,29.85,NNE,27,0.0,0.0,71,0.00,,---,0.01,VWS V14.01,2013-03-07 07:50:00,
2013-03-06 23:51:00,50.4,41.0,29.85,NNE,27,0.0,0.0,70,0.00,,---,0.01,VWS V14.01,2013-03-07 07:51:00,
2013-03-06 23:52:00,50.5,41.1,29.85,NNE,27,0.0,0.0,70,0.00,,---,0.01,VWS V14.01,2013-03-07 07:52:00,
2013-03-06 23:53:00,50.6,41.2,29.85,NNE,27,0.0,0.0,70,0.00,,---,0.01,VWS V14.01,2013-03-07 07:53:00,
2013-03-06 23:54:00,50.7,41.3,29.85,NNE,27,0.0,0.0,70,0.00,,---,0.01,VWS V14.01,2013-03-07 07:54:00,
2013-03-06 23:55:00,50.8,41.0,29.85,NNE,27,1.0,0.0,69,0.00,,---,0.01,VWS V14.01,2013-03-07 07:55:00,
2013-03-06 23:56:00,50.9,41.1,29.85,NNE,27,0.0,0.0,69,0.00,,---,0.01,VWS V14.01,2013-03-07 07:56:00,
2013-03-06 23:57:00,51.0,41.2,29.85,NNE,26,0.0,0.0,69,0.00,,---,0.01,VWS V14.01,2013-03-07 07:57:00,
2013-03-06 23:58:00,51.1,41.7,29.85,NE,40,1.0,0.0,70,0.00,,---,0.01,VWS V14.01,2013-03-07 07:58:00,
2013-03-06 23:59:00,51.2,41.8,29.85,NE,38,0.0,0.0,70,0.00,,---,0.01,VWS V14.01,2013-03-07 07:59:00,